<?xml version="1.0" encoding="UTF-8" standalone="no" ?>
<gpx xmlns="http://www.topografix.com/GPX/1/1" xmlns:xsi="http://www.w3.org/2001/XMLSchema-instance" xsi:schemaLocation="http://www.topografix.com/GPX/1/1 http://www.topografix.com/GPX/1/1/gpx.xsd" version="1.1" creator="VisuGPX - https://www.visugpx.com">
  <metadata>
    <name>Revel-vizille-luitel-chamrousse-revel</name>
    <desc><![CDATA[File with points/tracks from Locus Map/3.48.2]]></desc>
  </metadata>
  <trk>
    <name><![CDATA[2020-09-13 12:31:33]]></name>
    <desc><![CDATA[Luitel]]></desc>
    <extensions>
      <line xmlns="http://www.topografix.com/GPX/gpx_style/0/2">
        <color>0000FF</color>
        <opacity>0.59</opacity>
        <width>6.0</width>
      </line>
    </extensions>
    <trkseg>
      <trkpt lat="45.18372" lon="5.87375">
        <ele>690.9</ele>
        <time>2020-09-13T10:31:35.000Z</time>
      </trkpt>
      <trkpt lat="45.18366" lon="5.87387">
        <ele>693.92</ele>
        <time>2020-09-13T10:31:47.000Z</time>
      </trkpt>
      <trkpt lat="45.18375" lon="5.87376">
        <ele>689.71</ele>
        <time>2020-09-13T10:31:52.000Z</time>
      </trkpt>
      <trkpt lat="45.18387" lon="5.8739">
        <ele>689.04</ele>
        <time>2020-09-13T10:32:01.000Z</time>
      </trkpt>
      <trkpt lat="45.1838" lon="5.87404">
        <ele>683.85</ele>
        <time>2020-09-13T10:32:06.000Z</time>
      </trkpt>
      <trkpt lat="45.18374" lon="5.87421">
        <ele>683.5</ele>
        <time>2020-09-13T10:32:11.000Z</time>
      </trkpt>
      <trkpt lat="45.18365" lon="5.8744">
        <ele>678.62</ele>
        <time>2020-09-13T10:32:16.000Z</time>
      </trkpt>
      <trkpt lat="45.1836" lon="5.87461">
        <ele>679.18</ele>
        <time>2020-09-13T10:32:21.000Z</time>
      </trkpt>
      <trkpt lat="45.18354" lon="5.87475">
        <ele>681.75</ele>
        <time>2020-09-13T10:32:26.000Z</time>
      </trkpt>
      <trkpt lat="45.18345" lon="5.87491">
        <ele>681.82</ele>
        <time>2020-09-13T10:32:31.000Z</time>
      </trkpt>
      <trkpt lat="45.18339" lon="5.87512">
        <ele>683.22</ele>
        <time>2020-09-13T10:32:36.000Z</time>
      </trkpt>
      <trkpt lat="45.18334" lon="5.87532">
        <ele>690.11</ele>
        <time>2020-09-13T10:32:41.000Z</time>
      </trkpt>
      <trkpt lat="45.18331" lon="5.87549">
        <ele>689.96</ele>
        <time>2020-09-13T10:32:46.000Z</time>
      </trkpt>
      <trkpt lat="45.18326" lon="5.8757">
        <ele>694.34</ele>
        <time>2020-09-13T10:32:51.000Z</time>
      </trkpt>
      <trkpt lat="45.18319" lon="5.87591">
        <ele>700.65</ele>
        <time>2020-09-13T10:32:56.000Z</time>
      </trkpt>
      <trkpt lat="45.18309" lon="5.87614">
        <ele>702.23</ele>
        <time>2020-09-13T10:33:01.000Z</time>
      </trkpt>
      <trkpt lat="45.18303" lon="5.87637">
        <ele>701.8</ele>
        <time>2020-09-13T10:33:06.000Z</time>
      </trkpt>
      <trkpt lat="45.18299" lon="5.87658">
        <ele>703.53</ele>
        <time>2020-09-13T10:33:11.000Z</time>
      </trkpt>
      <trkpt lat="45.18296" lon="5.8768">
        <ele>706.26</ele>
        <time>2020-09-13T10:33:16.000Z</time>
      </trkpt>
      <trkpt lat="45.18296" lon="5.87699">
        <ele>706.98</ele>
        <time>2020-09-13T10:33:21.000Z</time>
      </trkpt>
      <trkpt lat="45.18294" lon="5.8772">
        <ele>709.14</ele>
        <time>2020-09-13T10:33:26.000Z</time>
      </trkpt>
      <trkpt lat="45.18285" lon="5.87737">
        <ele>706.77</ele>
        <time>2020-09-13T10:33:31.000Z</time>
      </trkpt>
      <trkpt lat="45.1828" lon="5.8776">
        <ele>708.09</ele>
        <time>2020-09-13T10:33:36.000Z</time>
      </trkpt>
      <trkpt lat="45.18278" lon="5.87783">
        <ele>707.49</ele>
        <time>2020-09-13T10:33:41.000Z</time>
      </trkpt>
      <trkpt lat="45.18273" lon="5.87806">
        <ele>710.14</ele>
        <time>2020-09-13T10:33:46.000Z</time>
      </trkpt>
      <trkpt lat="45.18266" lon="5.87827">
        <ele>712.94</ele>
        <time>2020-09-13T10:33:51.000Z</time>
      </trkpt>
      <trkpt lat="45.18264" lon="5.87845">
        <ele>718.25</ele>
        <time>2020-09-13T10:33:56.000Z</time>
      </trkpt>
      <trkpt lat="45.1826" lon="5.87863">
        <ele>723.77</ele>
        <time>2020-09-13T10:34:01.000Z</time>
      </trkpt>
      <trkpt lat="45.18256" lon="5.87885">
        <ele>728.13</ele>
        <time>2020-09-13T10:34:06.000Z</time>
      </trkpt>
      <trkpt lat="45.18254" lon="5.87908">
        <ele>725.98</ele>
        <time>2020-09-13T10:34:11.000Z</time>
      </trkpt>
      <trkpt lat="45.18258" lon="5.87931">
        <ele>729.68</ele>
        <time>2020-09-13T10:34:16.000Z</time>
      </trkpt>
      <trkpt lat="45.18269" lon="5.87954">
        <ele>726.09</ele>
        <time>2020-09-13T10:34:21.000Z</time>
      </trkpt>
      <trkpt lat="45.18266" lon="5.87976">
        <ele>728.07</ele>
        <time>2020-09-13T10:34:26.000Z</time>
      </trkpt>
      <trkpt lat="45.18252" lon="5.87997">
        <ele>727.58</ele>
        <time>2020-09-13T10:34:31.000Z</time>
      </trkpt>
      <trkpt lat="45.18244" lon="5.88012">
        <ele>727.92</ele>
        <time>2020-09-13T10:34:36.000Z</time>
      </trkpt>
      <trkpt lat="45.18241" lon="5.88029">
        <ele>732.97</ele>
        <time>2020-09-13T10:34:41.000Z</time>
      </trkpt>
      <trkpt lat="45.18231" lon="5.88039">
        <ele>733.89</ele>
        <time>2020-09-13T10:34:46.000Z</time>
      </trkpt>
      <trkpt lat="45.18227" lon="5.88056">
        <ele>734.55</ele>
        <time>2020-09-13T10:34:51.000Z</time>
      </trkpt>
      <trkpt lat="45.18208" lon="5.88077">
        <ele>734.85</ele>
        <time>2020-09-13T10:34:56.000Z</time>
      </trkpt>
      <trkpt lat="45.18195" lon="5.88093">
        <ele>735.02</ele>
        <time>2020-09-13T10:35:01.000Z</time>
      </trkpt>
      <trkpt lat="45.18178" lon="5.88119">
        <ele>735.3</ele>
        <time>2020-09-13T10:35:06.000Z</time>
      </trkpt>
      <trkpt lat="45.18161" lon="5.88146">
        <ele>735.6</ele>
        <time>2020-09-13T10:35:11.000Z</time>
      </trkpt>
      <trkpt lat="45.18145" lon="5.88168">
        <ele>737.01</ele>
        <time>2020-09-13T10:35:16.000Z</time>
      </trkpt>
      <trkpt lat="45.18127" lon="5.88197">
        <ele>736.19</ele>
        <time>2020-09-13T10:35:21.000Z</time>
      </trkpt>
      <trkpt lat="45.18107" lon="5.88216">
        <ele>736.82</ele>
        <time>2020-09-13T10:35:26.000Z</time>
      </trkpt>
      <trkpt lat="45.1809" lon="5.88242">
        <ele>739</ele>
        <time>2020-09-13T10:35:31.000Z</time>
      </trkpt>
      <trkpt lat="45.18077" lon="5.88273">
        <ele>738.84</ele>
        <time>2020-09-13T10:35:36.000Z</time>
      </trkpt>
      <trkpt lat="45.18064" lon="5.88306">
        <ele>741.4</ele>
        <time>2020-09-13T10:35:41.000Z</time>
      </trkpt>
      <trkpt lat="45.18057" lon="5.88337">
        <ele>738.82</ele>
        <time>2020-09-13T10:35:46.000Z</time>
      </trkpt>
      <trkpt lat="45.18047" lon="5.88367">
        <ele>737.3</ele>
        <time>2020-09-13T10:35:51.000Z</time>
      </trkpt>
      <trkpt lat="45.18033" lon="5.88395">
        <ele>740.19</ele>
        <time>2020-09-13T10:35:56.000Z</time>
      </trkpt>
      <trkpt lat="45.18015" lon="5.88419">
        <ele>739.32</ele>
        <time>2020-09-13T10:36:01.000Z</time>
      </trkpt>
      <trkpt lat="45.1799" lon="5.88436">
        <ele>742.06</ele>
        <time>2020-09-13T10:36:06.000Z</time>
      </trkpt>
      <trkpt lat="45.17967" lon="5.88457">
        <ele>744.1</ele>
        <time>2020-09-13T10:36:11.000Z</time>
      </trkpt>
      <trkpt lat="45.17946" lon="5.88464">
        <ele>746.12</ele>
        <time>2020-09-13T10:36:16.000Z</time>
      </trkpt>
      <trkpt lat="45.17911" lon="5.88477">
        <ele>747.66</ele>
        <time>2020-09-13T10:36:21.000Z</time>
      </trkpt>
      <trkpt lat="45.17901" lon="5.88501">
        <ele>744.35</ele>
        <time>2020-09-13T10:36:26.000Z</time>
      </trkpt>
      <trkpt lat="45.17873" lon="5.88514">
        <ele>747.02</ele>
        <time>2020-09-13T10:36:31.000Z</time>
      </trkpt>
      <trkpt lat="45.17849" lon="5.88527">
        <ele>751.35</ele>
        <time>2020-09-13T10:36:36.000Z</time>
      </trkpt>
      <trkpt lat="45.17823" lon="5.88534">
        <ele>753.41</ele>
        <time>2020-09-13T10:36:41.000Z</time>
      </trkpt>
      <trkpt lat="45.17795" lon="5.88535">
        <ele>755.89</ele>
        <time>2020-09-13T10:36:46.000Z</time>
      </trkpt>
      <trkpt lat="45.17769" lon="5.88534">
        <ele>757.62</ele>
        <time>2020-09-13T10:36:51.000Z</time>
      </trkpt>
      <trkpt lat="45.17743" lon="5.88523">
        <ele>758.86</ele>
        <time>2020-09-13T10:36:56.000Z</time>
      </trkpt>
      <trkpt lat="45.17713" lon="5.8851">
        <ele>759.31</ele>
        <time>2020-09-13T10:37:01.000Z</time>
      </trkpt>
      <trkpt lat="45.1768" lon="5.88502">
        <ele>761.06</ele>
        <time>2020-09-13T10:37:06.000Z</time>
      </trkpt>
      <trkpt lat="45.1766" lon="5.88486">
        <ele>758.57</ele>
        <time>2020-09-13T10:37:11.000Z</time>
      </trkpt>
      <trkpt lat="45.1764" lon="5.88483">
        <ele>757.75</ele>
        <time>2020-09-13T10:37:16.000Z</time>
      </trkpt>
      <trkpt lat="45.17618" lon="5.88485">
        <ele>759.91</ele>
        <time>2020-09-13T10:37:21.000Z</time>
      </trkpt>
      <trkpt lat="45.17596" lon="5.88493">
        <ele>760.06</ele>
        <time>2020-09-13T10:37:26.000Z</time>
      </trkpt>
      <trkpt lat="45.17575" lon="5.88502">
        <ele>760.52</ele>
        <time>2020-09-13T10:37:31.000Z</time>
      </trkpt>
      <trkpt lat="45.17557" lon="5.88521">
        <ele>761.04</ele>
        <time>2020-09-13T10:37:36.000Z</time>
      </trkpt>
      <trkpt lat="45.17541" lon="5.88545">
        <ele>766.43</ele>
        <time>2020-09-13T10:37:41.000Z</time>
      </trkpt>
      <trkpt lat="45.17523" lon="5.88565">
        <ele>763.71</ele>
        <time>2020-09-13T10:37:46.000Z</time>
      </trkpt>
      <trkpt lat="45.17496" lon="5.88573">
        <ele>763.29</ele>
        <time>2020-09-13T10:37:51.000Z</time>
      </trkpt>
      <trkpt lat="45.17474" lon="5.88576">
        <ele>767.58</ele>
        <time>2020-09-13T10:37:56.000Z</time>
      </trkpt>
      <trkpt lat="45.17452" lon="5.88579">
        <ele>773.19</ele>
        <time>2020-09-13T10:38:01.000Z</time>
      </trkpt>
      <trkpt lat="45.17433" lon="5.88581">
        <ele>773.07</ele>
        <time>2020-09-13T10:38:06.000Z</time>
      </trkpt>
      <trkpt lat="45.17409" lon="5.88579">
        <ele>774.44</ele>
        <time>2020-09-13T10:38:11.000Z</time>
      </trkpt>
      <trkpt lat="45.17382" lon="5.88581">
        <ele>773.6</ele>
        <time>2020-09-13T10:38:16.000Z</time>
      </trkpt>
      <trkpt lat="45.17354" lon="5.88573">
        <ele>770.67</ele>
        <time>2020-09-13T10:38:21.000Z</time>
      </trkpt>
      <trkpt lat="45.17331" lon="5.8857">
        <ele>772.24</ele>
        <time>2020-09-13T10:38:26.000Z</time>
      </trkpt>
      <trkpt lat="45.17305" lon="5.8857">
        <ele>776.98</ele>
        <time>2020-09-13T10:38:31.000Z</time>
      </trkpt>
      <trkpt lat="45.17285" lon="5.88566">
        <ele>777.63</ele>
        <time>2020-09-13T10:38:36.000Z</time>
      </trkpt>
      <trkpt lat="45.17259" lon="5.88572">
        <ele>779.69</ele>
        <time>2020-09-13T10:38:41.000Z</time>
      </trkpt>
      <trkpt lat="45.17236" lon="5.88589">
        <ele>777.92</ele>
        <time>2020-09-13T10:38:46.000Z</time>
      </trkpt>
      <trkpt lat="45.17215" lon="5.88614">
        <ele>776.06</ele>
        <time>2020-09-13T10:38:51.000Z</time>
      </trkpt>
      <trkpt lat="45.17193" lon="5.88649">
        <ele>774.98</ele>
        <time>2020-09-13T10:38:56.000Z</time>
      </trkpt>
      <trkpt lat="45.17164" lon="5.88674">
        <ele>775.56</ele>
        <time>2020-09-13T10:39:01.000Z</time>
      </trkpt>
      <trkpt lat="45.17138" lon="5.88693">
        <ele>782.96</ele>
        <time>2020-09-13T10:39:06.000Z</time>
      </trkpt>
      <trkpt lat="45.17114" lon="5.88715">
        <ele>785.1</ele>
        <time>2020-09-13T10:39:11.000Z</time>
      </trkpt>
      <trkpt lat="45.17089" lon="5.88714">
        <ele>784.85</ele>
        <time>2020-09-13T10:39:16.000Z</time>
      </trkpt>
      <trkpt lat="45.17065" lon="5.8869">
        <ele>783.03</ele>
        <time>2020-09-13T10:39:21.000Z</time>
      </trkpt>
      <trkpt lat="45.17041" lon="5.88671">
        <ele>781.81</ele>
        <time>2020-09-13T10:39:26.000Z</time>
      </trkpt>
      <trkpt lat="45.17015" lon="5.88665">
        <ele>782.34</ele>
        <time>2020-09-13T10:39:31.000Z</time>
      </trkpt>
      <trkpt lat="45.16986" lon="5.88675">
        <ele>785.61</ele>
        <time>2020-09-13T10:39:36.000Z</time>
      </trkpt>
      <trkpt lat="45.16955" lon="5.88684">
        <ele>784.6</ele>
        <time>2020-09-13T10:39:41.000Z</time>
      </trkpt>
      <trkpt lat="45.16926" lon="5.88699">
        <ele>784.31</ele>
        <time>2020-09-13T10:39:46.000Z</time>
      </trkpt>
      <trkpt lat="45.16896" lon="5.88704">
        <ele>786.31</ele>
        <time>2020-09-13T10:39:51.000Z</time>
      </trkpt>
      <trkpt lat="45.16866" lon="5.88703">
        <ele>788.2</ele>
        <time>2020-09-13T10:39:56.000Z</time>
      </trkpt>
      <trkpt lat="45.16835" lon="5.88703">
        <ele>789.5</ele>
        <time>2020-09-13T10:40:01.000Z</time>
      </trkpt>
      <trkpt lat="45.16808" lon="5.88713">
        <ele>792.76</ele>
        <time>2020-09-13T10:40:06.000Z</time>
      </trkpt>
      <trkpt lat="45.1678" lon="5.88719">
        <ele>790.71</ele>
        <time>2020-09-13T10:40:11.000Z</time>
      </trkpt>
      <trkpt lat="45.16753" lon="5.88729">
        <ele>792.27</ele>
        <time>2020-09-13T10:40:16.000Z</time>
      </trkpt>
      <trkpt lat="45.16726" lon="5.88735">
        <ele>794.41</ele>
        <time>2020-09-13T10:40:21.000Z</time>
      </trkpt>
      <trkpt lat="45.16706" lon="5.88736">
        <ele>794.72</ele>
        <time>2020-09-13T10:40:26.000Z</time>
      </trkpt>
      <trkpt lat="45.16679" lon="5.88735">
        <ele>791.48</ele>
        <time>2020-09-13T10:40:31.000Z</time>
      </trkpt>
      <trkpt lat="45.16649" lon="5.88728">
        <ele>793.36</ele>
        <time>2020-09-13T10:40:36.000Z</time>
      </trkpt>
      <trkpt lat="45.16603" lon="5.88721">
        <ele>794.29</ele>
        <time>2020-09-13T10:40:41.000Z</time>
      </trkpt>
      <trkpt lat="45.16561" lon="5.88712">
        <ele>795.83</ele>
        <time>2020-09-13T10:40:46.000Z</time>
      </trkpt>
      <trkpt lat="45.16526" lon="5.88672">
        <ele>792.03</ele>
        <time>2020-09-13T10:40:51.000Z</time>
      </trkpt>
      <trkpt lat="45.16508" lon="5.88622">
        <ele>791.95</ele>
        <time>2020-09-13T10:40:56.000Z</time>
      </trkpt>
      <trkpt lat="45.16506" lon="5.88573">
        <ele>790.08</ele>
        <time>2020-09-13T10:41:01.000Z</time>
      </trkpt>
      <trkpt lat="45.16525" lon="5.88534">
        <ele>790.64</ele>
        <time>2020-09-13T10:41:06.000Z</time>
      </trkpt>
      <trkpt lat="45.16545" lon="5.8852">
        <ele>790.92</ele>
        <time>2020-09-13T10:41:11.000Z</time>
      </trkpt>
      <trkpt lat="45.16565" lon="5.88518">
        <ele>788.63</ele>
        <time>2020-09-13T10:41:16.000Z</time>
      </trkpt>
      <trkpt lat="45.16586" lon="5.88506">
        <ele>786.51</ele>
        <time>2020-09-13T10:41:21.000Z</time>
      </trkpt>
      <trkpt lat="45.16606" lon="5.88493">
        <ele>789.05</ele>
        <time>2020-09-13T10:41:26.000Z</time>
      </trkpt>
      <trkpt lat="45.16629" lon="5.88482">
        <ele>788.59</ele>
        <time>2020-09-13T10:41:31.000Z</time>
      </trkpt>
      <trkpt lat="45.16653" lon="5.88475">
        <ele>791.4</ele>
        <time>2020-09-13T10:41:36.000Z</time>
      </trkpt>
      <trkpt lat="45.1668" lon="5.88469">
        <ele>795.9</ele>
        <time>2020-09-13T10:41:41.000Z</time>
      </trkpt>
      <trkpt lat="45.16704" lon="5.8847">
        <ele>793.77</ele>
        <time>2020-09-13T10:41:46.000Z</time>
      </trkpt>
      <trkpt lat="45.16733" lon="5.88464">
        <ele>790.28</ele>
        <time>2020-09-13T10:41:51.000Z</time>
      </trkpt>
      <trkpt lat="45.16765" lon="5.88452">
        <ele>790.75</ele>
        <time>2020-09-13T10:41:56.000Z</time>
      </trkpt>
      <trkpt lat="45.16784" lon="5.88408">
        <ele>791.63</ele>
        <time>2020-09-13T10:42:01.000Z</time>
      </trkpt>
      <trkpt lat="45.16798" lon="5.88375">
        <ele>798.22</ele>
        <time>2020-09-13T10:42:06.000Z</time>
      </trkpt>
      <trkpt lat="45.16813" lon="5.88355">
        <ele>801.72</ele>
        <time>2020-09-13T10:42:11.000Z</time>
      </trkpt>
      <trkpt lat="45.16823" lon="5.88335">
        <ele>803.25</ele>
        <time>2020-09-13T10:42:16.000Z</time>
      </trkpt>
      <trkpt lat="45.16833" lon="5.88315">
        <ele>803.66</ele>
        <time>2020-09-13T10:42:21.000Z</time>
      </trkpt>
      <trkpt lat="45.16847" lon="5.88299">
        <ele>803.96</ele>
        <time>2020-09-13T10:42:26.000Z</time>
      </trkpt>
      <trkpt lat="45.1686" lon="5.88285">
        <ele>806.83</ele>
        <time>2020-09-13T10:42:31.000Z</time>
      </trkpt>
      <trkpt lat="45.16877" lon="5.88264">
        <ele>807.06</ele>
        <time>2020-09-13T10:42:36.000Z</time>
      </trkpt>
      <trkpt lat="45.16894" lon="5.88253">
        <ele>808.95</ele>
        <time>2020-09-13T10:42:41.000Z</time>
      </trkpt>
      <trkpt lat="45.1691" lon="5.88238">
        <ele>806.42</ele>
        <time>2020-09-13T10:42:46.000Z</time>
      </trkpt>
      <trkpt lat="45.16923" lon="5.88224">
        <ele>804.37</ele>
        <time>2020-09-13T10:42:51.000Z</time>
      </trkpt>
      <trkpt lat="45.16942" lon="5.88211">
        <ele>803.43</ele>
        <time>2020-09-13T10:42:56.000Z</time>
      </trkpt>
      <trkpt lat="45.16963" lon="5.88196">
        <ele>807.12</ele>
        <time>2020-09-13T10:43:01.000Z</time>
      </trkpt>
      <trkpt lat="45.16983" lon="5.88183">
        <ele>806.24</ele>
        <time>2020-09-13T10:43:06.000Z</time>
      </trkpt>
      <trkpt lat="45.16999" lon="5.8817">
        <ele>808.59</ele>
        <time>2020-09-13T10:43:11.000Z</time>
      </trkpt>
      <trkpt lat="45.17016" lon="5.88163">
        <ele>811.49</ele>
        <time>2020-09-13T10:43:16.000Z</time>
      </trkpt>
      <trkpt lat="45.17035" lon="5.88153">
        <ele>812.04</ele>
        <time>2020-09-13T10:43:21.000Z</time>
      </trkpt>
      <trkpt lat="45.17057" lon="5.8814">
        <ele>812.77</ele>
        <time>2020-09-13T10:43:26.000Z</time>
      </trkpt>
      <trkpt lat="45.17074" lon="5.88129">
        <ele>815.12</ele>
        <time>2020-09-13T10:43:31.000Z</time>
      </trkpt>
      <trkpt lat="45.17089" lon="5.8811">
        <ele>816.43</ele>
        <time>2020-09-13T10:43:36.000Z</time>
      </trkpt>
      <trkpt lat="45.17105" lon="5.88094">
        <ele>817.54</ele>
        <time>2020-09-13T10:43:41.000Z</time>
      </trkpt>
      <trkpt lat="45.1712" lon="5.88074">
        <ele>820.99</ele>
        <time>2020-09-13T10:43:46.000Z</time>
      </trkpt>
      <trkpt lat="45.17134" lon="5.88058">
        <ele>826.32</ele>
        <time>2020-09-13T10:43:51.000Z</time>
      </trkpt>
      <trkpt lat="45.17146" lon="5.88036">
        <ele>830.13</ele>
        <time>2020-09-13T10:43:56.000Z</time>
      </trkpt>
      <trkpt lat="45.17157" lon="5.88014">
        <ele>827.51</ele>
        <time>2020-09-13T10:44:01.000Z</time>
      </trkpt>
      <trkpt lat="45.17171" lon="5.87992">
        <ele>830.22</ele>
        <time>2020-09-13T10:44:06.000Z</time>
      </trkpt>
      <trkpt lat="45.17183" lon="5.87972">
        <ele>834.06</ele>
        <time>2020-09-13T10:44:11.000Z</time>
      </trkpt>
      <trkpt lat="45.17196" lon="5.87949">
        <ele>835.48</ele>
        <time>2020-09-13T10:44:16.000Z</time>
      </trkpt>
      <trkpt lat="45.17211" lon="5.87924">
        <ele>835.37</ele>
        <time>2020-09-13T10:44:21.000Z</time>
      </trkpt>
      <trkpt lat="45.17229" lon="5.87904">
        <ele>838.48</ele>
        <time>2020-09-13T10:44:26.000Z</time>
      </trkpt>
      <trkpt lat="45.17243" lon="5.87884">
        <ele>838.56</ele>
        <time>2020-09-13T10:44:31.000Z</time>
      </trkpt>
      <trkpt lat="45.17257" lon="5.87863">
        <ele>834.63</ele>
        <time>2020-09-13T10:44:36.000Z</time>
      </trkpt>
      <trkpt lat="45.17274" lon="5.87838">
        <ele>837.27</ele>
        <time>2020-09-13T10:44:41.000Z</time>
      </trkpt>
      <trkpt lat="45.17293" lon="5.87809">
        <ele>838.56</ele>
        <time>2020-09-13T10:44:46.000Z</time>
      </trkpt>
      <trkpt lat="45.1731" lon="5.87773">
        <ele>840.03</ele>
        <time>2020-09-13T10:44:51.000Z</time>
      </trkpt>
      <trkpt lat="45.17333" lon="5.8774">
        <ele>844.08</ele>
        <time>2020-09-13T10:44:56.000Z</time>
      </trkpt>
      <trkpt lat="45.17353" lon="5.87707">
        <ele>845.44</ele>
        <time>2020-09-13T10:45:01.000Z</time>
      </trkpt>
      <trkpt lat="45.17364" lon="5.87673">
        <ele>847</ele>
        <time>2020-09-13T10:45:06.000Z</time>
      </trkpt>
      <trkpt lat="45.17374" lon="5.87642">
        <ele>848.99</ele>
        <time>2020-09-13T10:45:11.000Z</time>
      </trkpt>
      <trkpt lat="45.17372" lon="5.87609">
        <ele>848.99</ele>
        <time>2020-09-13T10:45:16.000Z</time>
      </trkpt>
      <trkpt lat="45.17364" lon="5.87565">
        <ele>849.99</ele>
        <time>2020-09-13T10:45:21.000Z</time>
      </trkpt>
      <trkpt lat="45.1735" lon="5.87527">
        <ele>849.55</ele>
        <time>2020-09-13T10:45:26.000Z</time>
      </trkpt>
      <trkpt lat="45.17341" lon="5.87493">
        <ele>846.04</ele>
        <time>2020-09-13T10:45:31.000Z</time>
      </trkpt>
      <trkpt lat="45.17313" lon="5.87456">
        <ele>845.81</ele>
        <time>2020-09-13T10:45:36.000Z</time>
      </trkpt>
      <trkpt lat="45.17281" lon="5.87433">
        <ele>842.53</ele>
        <time>2020-09-13T10:45:41.000Z</time>
      </trkpt>
      <trkpt lat="45.1725" lon="5.87397">
        <ele>842.21</ele>
        <time>2020-09-13T10:45:46.000Z</time>
      </trkpt>
      <trkpt lat="45.17219" lon="5.87354">
        <ele>841.19</ele>
        <time>2020-09-13T10:45:51.000Z</time>
      </trkpt>
      <trkpt lat="45.17202" lon="5.87294">
        <ele>842.44</ele>
        <time>2020-09-13T10:45:56.000Z</time>
      </trkpt>
      <trkpt lat="45.17193" lon="5.87236">
        <ele>839.45</ele>
        <time>2020-09-13T10:46:01.000Z</time>
      </trkpt>
      <trkpt lat="45.17177" lon="5.87179">
        <ele>834.67</ele>
        <time>2020-09-13T10:46:06.000Z</time>
      </trkpt>
      <trkpt lat="45.17156" lon="5.87123">
        <ele>831.42</ele>
        <time>2020-09-13T10:46:11.000Z</time>
      </trkpt>
      <trkpt lat="45.17129" lon="5.87063">
        <ele>826.26</ele>
        <time>2020-09-13T10:46:16.000Z</time>
      </trkpt>
      <trkpt lat="45.17101" lon="5.86992">
        <ele>824.11</ele>
        <time>2020-09-13T10:46:21.000Z</time>
      </trkpt>
      <trkpt lat="45.17073" lon="5.86932">
        <ele>829.1</ele>
        <time>2020-09-13T10:46:26.000Z</time>
      </trkpt>
      <trkpt lat="45.17048" lon="5.86871">
        <ele>829.07</ele>
        <time>2020-09-13T10:46:31.000Z</time>
      </trkpt>
      <trkpt lat="45.1702" lon="5.86808">
        <ele>827.83</ele>
        <time>2020-09-13T10:46:36.000Z</time>
      </trkpt>
      <trkpt lat="45.16993" lon="5.8675">
        <ele>828.96</ele>
        <time>2020-09-13T10:46:41.000Z</time>
      </trkpt>
      <trkpt lat="45.16972" lon="5.8669">
        <ele>827.1</ele>
        <time>2020-09-13T10:46:46.000Z</time>
      </trkpt>
      <trkpt lat="45.1695" lon="5.86637">
        <ele>821.48</ele>
        <time>2020-09-13T10:46:51.000Z</time>
      </trkpt>
      <trkpt lat="45.16925" lon="5.86592">
        <ele>820.69</ele>
        <time>2020-09-13T10:46:56.000Z</time>
      </trkpt>
      <trkpt lat="45.16912" lon="5.86545">
        <ele>816.95</ele>
        <time>2020-09-13T10:47:01.000Z</time>
      </trkpt>
      <trkpt lat="45.16895" lon="5.86494">
        <ele>819.37</ele>
        <time>2020-09-13T10:47:06.000Z</time>
      </trkpt>
      <trkpt lat="45.16881" lon="5.86441">
        <ele>822.01</ele>
        <time>2020-09-13T10:47:11.000Z</time>
      </trkpt>
      <trkpt lat="45.16866" lon="5.86392">
        <ele>821.29</ele>
        <time>2020-09-13T10:47:16.000Z</time>
      </trkpt>
      <trkpt lat="45.16844" lon="5.86353">
        <ele>820.05</ele>
        <time>2020-09-13T10:47:21.000Z</time>
      </trkpt>
      <trkpt lat="45.16816" lon="5.8632">
        <ele>821.74</ele>
        <time>2020-09-13T10:47:26.000Z</time>
      </trkpt>
      <trkpt lat="45.16792" lon="5.86287">
        <ele>820.22</ele>
        <time>2020-09-13T10:47:31.000Z</time>
      </trkpt>
      <trkpt lat="45.16767" lon="5.86245">
        <ele>818.51</ele>
        <time>2020-09-13T10:47:36.000Z</time>
      </trkpt>
      <trkpt lat="45.16765" lon="5.86183">
        <ele>819.15</ele>
        <time>2020-09-13T10:47:41.000Z</time>
      </trkpt>
      <trkpt lat="45.16774" lon="5.86128">
        <ele>820.72</ele>
        <time>2020-09-13T10:47:46.000Z</time>
      </trkpt>
      <trkpt lat="45.16785" lon="5.86071">
        <ele>818.08</ele>
        <time>2020-09-13T10:47:51.000Z</time>
      </trkpt>
      <trkpt lat="45.16789" lon="5.86012">
        <ele>810.02</ele>
        <time>2020-09-13T10:47:56.000Z</time>
      </trkpt>
      <trkpt lat="45.16788" lon="5.85954">
        <ele>806.29</ele>
        <time>2020-09-13T10:48:01.000Z</time>
      </trkpt>
      <trkpt lat="45.1677" lon="5.85899">
        <ele>801.76</ele>
        <time>2020-09-13T10:48:06.000Z</time>
      </trkpt>
      <trkpt lat="45.16757" lon="5.85834">
        <ele>802.38</ele>
        <time>2020-09-13T10:48:11.000Z</time>
      </trkpt>
      <trkpt lat="45.16752" lon="5.85764">
        <ele>801.92</ele>
        <time>2020-09-13T10:48:16.000Z</time>
      </trkpt>
      <trkpt lat="45.16762" lon="5.857">
        <ele>801.73</ele>
        <time>2020-09-13T10:48:21.000Z</time>
      </trkpt>
      <trkpt lat="45.16756" lon="5.85634">
        <ele>805.03</ele>
        <time>2020-09-13T10:48:26.000Z</time>
      </trkpt>
      <trkpt lat="45.16741" lon="5.8557">
        <ele>802.64</ele>
        <time>2020-09-13T10:48:31.000Z</time>
      </trkpt>
      <trkpt lat="45.16728" lon="5.85513">
        <ele>800.15</ele>
        <time>2020-09-13T10:48:36.000Z</time>
      </trkpt>
      <trkpt lat="45.16718" lon="5.85451">
        <ele>801.82</ele>
        <time>2020-09-13T10:48:41.000Z</time>
      </trkpt>
      <trkpt lat="45.16709" lon="5.85397">
        <ele>803.15</ele>
        <time>2020-09-13T10:48:46.000Z</time>
      </trkpt>
      <trkpt lat="45.16693" lon="5.85356">
        <ele>804.92</ele>
        <time>2020-09-13T10:48:51.000Z</time>
      </trkpt>
      <trkpt lat="45.16679" lon="5.8533">
        <ele>801.96</ele>
        <time>2020-09-13T10:48:56.000Z</time>
      </trkpt>
      <trkpt lat="45.16668" lon="5.85306">
        <ele>799.04</ele>
        <time>2020-09-13T10:49:01.000Z</time>
      </trkpt>
      <trkpt lat="45.16657" lon="5.85278">
        <ele>801.61</ele>
        <time>2020-09-13T10:49:06.000Z</time>
      </trkpt>
      <trkpt lat="45.16644" lon="5.85252">
        <ele>803.64</ele>
        <time>2020-09-13T10:49:11.000Z</time>
      </trkpt>
      <trkpt lat="45.16629" lon="5.8523">
        <ele>801.64</ele>
        <time>2020-09-13T10:49:16.000Z</time>
      </trkpt>
      <trkpt lat="45.16611" lon="5.85196">
        <ele>800.75</ele>
        <time>2020-09-13T10:49:21.000Z</time>
      </trkpt>
      <trkpt lat="45.16597" lon="5.85171">
        <ele>804.75</ele>
        <time>2020-09-13T10:49:26.000Z</time>
      </trkpt>
      <trkpt lat="45.1658" lon="5.85148">
        <ele>805.25</ele>
        <time>2020-09-13T10:49:31.000Z</time>
      </trkpt>
      <trkpt lat="45.16564" lon="5.85122">
        <ele>806.78</ele>
        <time>2020-09-13T10:49:36.000Z</time>
      </trkpt>
      <trkpt lat="45.16555" lon="5.85096">
        <ele>806.41</ele>
        <time>2020-09-13T10:49:41.000Z</time>
      </trkpt>
      <trkpt lat="45.16549" lon="5.8507">
        <ele>805.95</ele>
        <time>2020-09-13T10:49:46.000Z</time>
      </trkpt>
      <trkpt lat="45.16541" lon="5.85035">
        <ele>806.33</ele>
        <time>2020-09-13T10:49:51.000Z</time>
      </trkpt>
      <trkpt lat="45.16537" lon="5.85005">
        <ele>807.21</ele>
        <time>2020-09-13T10:49:56.000Z</time>
      </trkpt>
      <trkpt lat="45.16537" lon="5.84986">
        <ele>809.89</ele>
        <time>2020-09-13T10:50:01.000Z</time>
      </trkpt>
      <trkpt lat="45.16537" lon="5.84968">
        <ele>810.71</ele>
        <time>2020-09-13T10:50:06.000Z</time>
      </trkpt>
      <trkpt lat="45.16537" lon="5.84948">
        <ele>808.16</ele>
        <time>2020-09-13T10:50:11.000Z</time>
      </trkpt>
      <trkpt lat="45.16533" lon="5.84928">
        <ele>808.08</ele>
        <time>2020-09-13T10:50:16.000Z</time>
      </trkpt>
      <trkpt lat="45.1653" lon="5.84906">
        <ele>808.94</ele>
        <time>2020-09-13T10:50:21.000Z</time>
      </trkpt>
      <trkpt lat="45.16529" lon="5.84885">
        <ele>811.53</ele>
        <time>2020-09-13T10:50:26.000Z</time>
      </trkpt>
      <trkpt lat="45.16528" lon="5.84868">
        <ele>809.79</ele>
        <time>2020-09-13T10:50:31.000Z</time>
      </trkpt>
      <trkpt lat="45.16517" lon="5.84851">
        <ele>807.31</ele>
        <time>2020-09-13T10:50:36.000Z</time>
      </trkpt>
      <trkpt lat="45.16502" lon="5.84841">
        <ele>806.14</ele>
        <time>2020-09-13T10:50:41.000Z</time>
      </trkpt>
      <trkpt lat="45.1648" lon="5.8484">
        <ele>807.34</ele>
        <time>2020-09-13T10:50:46.000Z</time>
      </trkpt>
      <trkpt lat="45.16458" lon="5.84881">
        <ele>805.79</ele>
        <time>2020-09-13T10:50:51.000Z</time>
      </trkpt>
      <trkpt lat="45.16417" lon="5.84936">
        <ele>806.09</ele>
        <time>2020-09-13T10:50:56.000Z</time>
      </trkpt>
      <trkpt lat="45.16373" lon="5.84991">
        <ele>807.06</ele>
        <time>2020-09-13T10:51:01.000Z</time>
      </trkpt>
      <trkpt lat="45.16321" lon="5.85046">
        <ele>807.29</ele>
        <time>2020-09-13T10:51:06.000Z</time>
      </trkpt>
      <trkpt lat="45.16294" lon="5.85125">
        <ele>803.56</ele>
        <time>2020-09-13T10:51:11.000Z</time>
      </trkpt>
      <trkpt lat="45.16288" lon="5.85199">
        <ele>795.28</ele>
        <time>2020-09-13T10:51:16.000Z</time>
      </trkpt>
      <trkpt lat="45.16235" lon="5.85156">
        <ele>792.37</ele>
        <time>2020-09-13T10:51:21.000Z</time>
      </trkpt>
      <trkpt lat="45.16177" lon="5.85119">
        <ele>791.03</ele>
        <time>2020-09-13T10:51:26.000Z</time>
      </trkpt>
      <trkpt lat="45.16127" lon="5.85062">
        <ele>791.07</ele>
        <time>2020-09-13T10:51:31.000Z</time>
      </trkpt>
      <trkpt lat="45.16089" lon="5.84991">
        <ele>786.67</ele>
        <time>2020-09-13T10:51:36.000Z</time>
      </trkpt>
      <trkpt lat="45.16054" lon="5.84942">
        <ele>779.66</ele>
        <time>2020-09-13T10:51:41.000Z</time>
      </trkpt>
      <trkpt lat="45.15996" lon="5.84931">
        <ele>773.47</ele>
        <time>2020-09-13T10:51:46.000Z</time>
      </trkpt>
      <trkpt lat="45.15934" lon="5.84921">
        <ele>767.57</ele>
        <time>2020-09-13T10:51:51.000Z</time>
      </trkpt>
      <trkpt lat="45.15886" lon="5.849">
        <ele>762.12</ele>
        <time>2020-09-13T10:51:56.000Z</time>
      </trkpt>
      <trkpt lat="45.15873" lon="5.84871">
        <ele>756.96</ele>
        <time>2020-09-13T10:52:01.000Z</time>
      </trkpt>
      <trkpt lat="45.15872" lon="5.84843">
        <ele>753.33</ele>
        <time>2020-09-13T10:52:06.000Z</time>
      </trkpt>
      <trkpt lat="45.15886" lon="5.84809">
        <ele>749.51</ele>
        <time>2020-09-13T10:52:11.000Z</time>
      </trkpt>
      <trkpt lat="45.15912" lon="5.84773">
        <ele>745.77</ele>
        <time>2020-09-13T10:52:16.000Z</time>
      </trkpt>
      <trkpt lat="45.15944" lon="5.84741">
        <ele>744.43</ele>
        <time>2020-09-13T10:52:21.000Z</time>
      </trkpt>
      <trkpt lat="45.15974" lon="5.84699">
        <ele>739.81</ele>
        <time>2020-09-13T10:52:26.000Z</time>
      </trkpt>
      <trkpt lat="45.16011" lon="5.84649">
        <ele>734.64</ele>
        <time>2020-09-13T10:52:31.000Z</time>
      </trkpt>
      <trkpt lat="45.16049" lon="5.84582">
        <ele>730.23</ele>
        <time>2020-09-13T10:52:36.000Z</time>
      </trkpt>
      <trkpt lat="45.16061" lon="5.84496">
        <ele>727.44</ele>
        <time>2020-09-13T10:52:41.000Z</time>
      </trkpt>
      <trkpt lat="45.1609" lon="5.84421">
        <ele>723.57</ele>
        <time>2020-09-13T10:52:46.000Z</time>
      </trkpt>
      <trkpt lat="45.16127" lon="5.84344">
        <ele>719.67</ele>
        <time>2020-09-13T10:52:51.000Z</time>
      </trkpt>
      <trkpt lat="45.16175" lon="5.84272">
        <ele>721.87</ele>
        <time>2020-09-13T10:52:56.000Z</time>
      </trkpt>
      <trkpt lat="45.16221" lon="5.84193">
        <ele>719.85</ele>
        <time>2020-09-13T10:53:01.000Z</time>
      </trkpt>
      <trkpt lat="45.16252" lon="5.8411">
        <ele>717.98</ele>
        <time>2020-09-13T10:53:06.000Z</time>
      </trkpt>
      <trkpt lat="45.1627" lon="5.84018">
        <ele>710.22</ele>
        <time>2020-09-13T10:53:11.000Z</time>
      </trkpt>
      <trkpt lat="45.16306" lon="5.83938">
        <ele>706.36</ele>
        <time>2020-09-13T10:53:16.000Z</time>
      </trkpt>
      <trkpt lat="45.16338" lon="5.83861">
        <ele>699.07</ele>
        <time>2020-09-13T10:53:21.000Z</time>
      </trkpt>
      <trkpt lat="45.16339" lon="5.83775">
        <ele>693.78</ele>
        <time>2020-09-13T10:53:26.000Z</time>
      </trkpt>
      <trkpt lat="45.16363" lon="5.83699">
        <ele>691.36</ele>
        <time>2020-09-13T10:53:31.000Z</time>
      </trkpt>
      <trkpt lat="45.16403" lon="5.83635">
        <ele>686.81</ele>
        <time>2020-09-13T10:53:36.000Z</time>
      </trkpt>
      <trkpt lat="45.16426" lon="5.83567">
        <ele>685.86</ele>
        <time>2020-09-13T10:53:41.000Z</time>
      </trkpt>
      <trkpt lat="45.16432" lon="5.83523">
        <ele>684.22</ele>
        <time>2020-09-13T10:53:46.000Z</time>
      </trkpt>
      <trkpt lat="45.16427" lon="5.83504">
        <ele>683.23</ele>
        <time>2020-09-13T10:53:51.000Z</time>
      </trkpt>
      <trkpt lat="45.16419" lon="5.83495">
        <ele>680.86</ele>
        <time>2020-09-13T10:53:56.000Z</time>
      </trkpt>
      <trkpt lat="45.16411" lon="5.83485">
        <ele>675.11</ele>
        <time>2020-09-13T10:54:05.000Z</time>
      </trkpt>
      <trkpt lat="45.16403" lon="5.83491">
        <ele>672.74</ele>
        <time>2020-09-13T10:54:10.000Z</time>
      </trkpt>
      <trkpt lat="45.16387" lon="5.83508">
        <ele>671.53</ele>
        <time>2020-09-13T10:54:15.000Z</time>
      </trkpt>
      <trkpt lat="45.16371" lon="5.83526">
        <ele>670.69</ele>
        <time>2020-09-13T10:54:20.000Z</time>
      </trkpt>
      <trkpt lat="45.16343" lon="5.83535">
        <ele>668.54</ele>
        <time>2020-09-13T10:54:25.000Z</time>
      </trkpt>
      <trkpt lat="45.16321" lon="5.83548">
        <ele>665.67</ele>
        <time>2020-09-13T10:54:30.000Z</time>
      </trkpt>
      <trkpt lat="45.16301" lon="5.83566">
        <ele>663.98</ele>
        <time>2020-09-13T10:54:35.000Z</time>
      </trkpt>
      <trkpt lat="45.16281" lon="5.83592">
        <ele>661.78</ele>
        <time>2020-09-13T10:54:40.000Z</time>
      </trkpt>
      <trkpt lat="45.16257" lon="5.83627">
        <ele>658.87</ele>
        <time>2020-09-13T10:54:45.000Z</time>
      </trkpt>
      <trkpt lat="45.16223" lon="5.8367">
        <ele>655.25</ele>
        <time>2020-09-13T10:54:50.000Z</time>
      </trkpt>
      <trkpt lat="45.16187" lon="5.83704">
        <ele>652.98</ele>
        <time>2020-09-13T10:54:55.000Z</time>
      </trkpt>
      <trkpt lat="45.16153" lon="5.83732">
        <ele>652.67</ele>
        <time>2020-09-13T10:55:00.000Z</time>
      </trkpt>
      <trkpt lat="45.16119" lon="5.83765">
        <ele>648.59</ele>
        <time>2020-09-13T10:55:05.000Z</time>
      </trkpt>
      <trkpt lat="45.16091" lon="5.83797">
        <ele>650.95</ele>
        <time>2020-09-13T10:55:10.000Z</time>
      </trkpt>
      <trkpt lat="45.16067" lon="5.8383">
        <ele>646.45</ele>
        <time>2020-09-13T10:55:15.000Z</time>
      </trkpt>
      <trkpt lat="45.16046" lon="5.83866">
        <ele>647.99</ele>
        <time>2020-09-13T10:55:20.000Z</time>
      </trkpt>
      <trkpt lat="45.16019" lon="5.83882">
        <ele>645.96</ele>
        <time>2020-09-13T10:55:25.000Z</time>
      </trkpt>
      <trkpt lat="45.16001" lon="5.83899">
        <ele>640.79</ele>
        <time>2020-09-13T10:55:30.000Z</time>
      </trkpt>
      <trkpt lat="45.15984" lon="5.83915">
        <ele>640.98</ele>
        <time>2020-09-13T10:55:35.000Z</time>
      </trkpt>
      <trkpt lat="45.1597" lon="5.83936">
        <ele>642.07</ele>
        <time>2020-09-13T10:55:40.000Z</time>
      </trkpt>
      <trkpt lat="45.15951" lon="5.83954">
        <ele>637.83</ele>
        <time>2020-09-13T10:55:45.000Z</time>
      </trkpt>
      <trkpt lat="45.15921" lon="5.83968">
        <ele>635.32</ele>
        <time>2020-09-13T10:55:50.000Z</time>
      </trkpt>
      <trkpt lat="45.15891" lon="5.83984">
        <ele>636.69</ele>
        <time>2020-09-13T10:55:55.000Z</time>
      </trkpt>
      <trkpt lat="45.15855" lon="5.83995">
        <ele>637.29</ele>
        <time>2020-09-13T10:56:00.000Z</time>
      </trkpt>
      <trkpt lat="45.15816" lon="5.84017">
        <ele>638.17</ele>
        <time>2020-09-13T10:56:05.000Z</time>
      </trkpt>
      <trkpt lat="45.15778" lon="5.84048">
        <ele>635.74</ele>
        <time>2020-09-13T10:56:10.000Z</time>
      </trkpt>
      <trkpt lat="45.15729" lon="5.8407">
        <ele>633.51</ele>
        <time>2020-09-13T10:56:15.000Z</time>
      </trkpt>
      <trkpt lat="45.15682" lon="5.84058">
        <ele>629.87</ele>
        <time>2020-09-13T10:56:20.000Z</time>
      </trkpt>
      <trkpt lat="45.1565" lon="5.84104">
        <ele>628.36</ele>
        <time>2020-09-13T10:56:25.000Z</time>
      </trkpt>
      <trkpt lat="45.15618" lon="5.84157">
        <ele>622.25</ele>
        <time>2020-09-13T10:56:30.000Z</time>
      </trkpt>
      <trkpt lat="45.15567" lon="5.8418">
        <ele>621.93</ele>
        <time>2020-09-13T10:56:35.000Z</time>
      </trkpt>
      <trkpt lat="45.15522" lon="5.84238">
        <ele>621.05</ele>
        <time>2020-09-13T10:56:40.000Z</time>
      </trkpt>
      <trkpt lat="45.15514" lon="5.84195">
        <ele>618.61</ele>
        <time>2020-09-13T10:56:45.000Z</time>
      </trkpt>
      <trkpt lat="45.15516" lon="5.84155">
        <ele>615.61</ele>
        <time>2020-09-13T10:56:50.000Z</time>
      </trkpt>
      <trkpt lat="45.15532" lon="5.84119">
        <ele>617.18</ele>
        <time>2020-09-13T10:56:55.000Z</time>
      </trkpt>
      <trkpt lat="45.15534" lon="5.841">
        <ele>615.86</ele>
        <time>2020-09-13T10:57:00.000Z</time>
      </trkpt>
      <trkpt lat="45.15532" lon="5.84081">
        <ele>616.95</ele>
        <time>2020-09-13T10:57:07.000Z</time>
      </trkpt>
      <trkpt lat="45.15541" lon="5.84089">
        <ele>614.6</ele>
        <time>2020-09-13T10:57:16.000Z</time>
      </trkpt>
      <trkpt lat="45.1554" lon="5.84075">
        <ele>616.45</ele>
        <time>2020-09-13T10:57:55.000Z</time>
      </trkpt>
      <trkpt lat="45.15528" lon="5.84053">
        <ele>616.84</ele>
        <time>2020-09-13T10:58:00.000Z</time>
      </trkpt>
      <trkpt lat="45.15506" lon="5.84019">
        <ele>616.75</ele>
        <time>2020-09-13T10:58:05.000Z</time>
      </trkpt>
      <trkpt lat="45.15478" lon="5.83991">
        <ele>617.37</ele>
        <time>2020-09-13T10:58:10.000Z</time>
      </trkpt>
      <trkpt lat="45.15448" lon="5.83957">
        <ele>621.27</ele>
        <time>2020-09-13T10:58:15.000Z</time>
      </trkpt>
      <trkpt lat="45.15412" lon="5.83934">
        <ele>619.54</ele>
        <time>2020-09-13T10:58:20.000Z</time>
      </trkpt>
      <trkpt lat="45.15371" lon="5.83909">
        <ele>617.26</ele>
        <time>2020-09-13T10:58:25.000Z</time>
      </trkpt>
      <trkpt lat="45.15336" lon="5.83863">
        <ele>615.53</ele>
        <time>2020-09-13T10:58:30.000Z</time>
      </trkpt>
      <trkpt lat="45.15301" lon="5.83846">
        <ele>614.91</ele>
        <time>2020-09-13T10:58:35.000Z</time>
      </trkpt>
      <trkpt lat="45.15267" lon="5.83842">
        <ele>610.41</ele>
        <time>2020-09-13T10:58:40.000Z</time>
      </trkpt>
      <trkpt lat="45.15229" lon="5.83813">
        <ele>608.62</ele>
        <time>2020-09-13T10:58:45.000Z</time>
      </trkpt>
      <trkpt lat="45.15203" lon="5.83794">
        <ele>603.7</ele>
        <time>2020-09-13T10:58:50.000Z</time>
      </trkpt>
      <trkpt lat="45.15176" lon="5.83772">
        <ele>600.11</ele>
        <time>2020-09-13T10:58:55.000Z</time>
      </trkpt>
      <trkpt lat="45.1515" lon="5.83753">
        <ele>598.22</ele>
        <time>2020-09-13T10:59:00.000Z</time>
      </trkpt>
      <trkpt lat="45.15122" lon="5.83735">
        <ele>599.01</ele>
        <time>2020-09-13T10:59:05.000Z</time>
      </trkpt>
      <trkpt lat="45.15097" lon="5.83706">
        <ele>598.9</ele>
        <time>2020-09-13T10:59:10.000Z</time>
      </trkpt>
      <trkpt lat="45.1508" lon="5.83725">
        <ele>598.56</ele>
        <time>2020-09-13T10:59:15.000Z</time>
      </trkpt>
      <trkpt lat="45.1507" lon="5.83743">
        <ele>598.28</ele>
        <time>2020-09-13T10:59:20.000Z</time>
      </trkpt>
      <trkpt lat="45.15056" lon="5.83763">
        <ele>597.14</ele>
        <time>2020-09-13T10:59:25.000Z</time>
      </trkpt>
      <trkpt lat="45.15046" lon="5.83786">
        <ele>596.21</ele>
        <time>2020-09-13T10:59:30.000Z</time>
      </trkpt>
      <trkpt lat="45.15031" lon="5.83794">
        <ele>591.42</ele>
        <time>2020-09-13T10:59:35.000Z</time>
      </trkpt>
      <trkpt lat="45.1501" lon="5.83807">
        <ele>590.65</ele>
        <time>2020-09-13T10:59:40.000Z</time>
      </trkpt>
      <trkpt lat="45.14991" lon="5.83816">
        <ele>590.08</ele>
        <time>2020-09-13T10:59:45.000Z</time>
      </trkpt>
      <trkpt lat="45.14969" lon="5.83823">
        <ele>590.49</ele>
        <time>2020-09-13T10:59:50.000Z</time>
      </trkpt>
      <trkpt lat="45.1495" lon="5.83828">
        <ele>590.09</ele>
        <time>2020-09-13T10:59:55.000Z</time>
      </trkpt>
      <trkpt lat="45.1493" lon="5.83834">
        <ele>587.77</ele>
        <time>2020-09-13T11:00:00.000Z</time>
      </trkpt>
      <trkpt lat="45.14908" lon="5.83843">
        <ele>589.39</ele>
        <time>2020-09-13T11:00:05.000Z</time>
      </trkpt>
      <trkpt lat="45.14884" lon="5.83853">
        <ele>587.78</ele>
        <time>2020-09-13T11:00:10.000Z</time>
      </trkpt>
      <trkpt lat="45.14858" lon="5.83862">
        <ele>591.05</ele>
        <time>2020-09-13T11:00:15.000Z</time>
      </trkpt>
      <trkpt lat="45.14832" lon="5.83866">
        <ele>589.12</ele>
        <time>2020-09-13T11:00:20.000Z</time>
      </trkpt>
      <trkpt lat="45.14801" lon="5.83873">
        <ele>585.12</ele>
        <time>2020-09-13T11:00:25.000Z</time>
      </trkpt>
      <trkpt lat="45.14777" lon="5.83883">
        <ele>583.24</ele>
        <time>2020-09-13T11:00:30.000Z</time>
      </trkpt>
      <trkpt lat="45.14747" lon="5.83892">
        <ele>582.93</ele>
        <time>2020-09-13T11:00:35.000Z</time>
      </trkpt>
      <trkpt lat="45.1472" lon="5.83895">
        <ele>582.97</ele>
        <time>2020-09-13T11:00:40.000Z</time>
      </trkpt>
      <trkpt lat="45.14693" lon="5.83897">
        <ele>581.29</ele>
        <time>2020-09-13T11:00:45.000Z</time>
      </trkpt>
      <trkpt lat="45.14663" lon="5.83892">
        <ele>581.48</ele>
        <time>2020-09-13T11:00:50.000Z</time>
      </trkpt>
      <trkpt lat="45.14629" lon="5.83896">
        <ele>587.34</ele>
        <time>2020-09-13T11:00:55.000Z</time>
      </trkpt>
      <trkpt lat="45.146" lon="5.83891">
        <ele>591.84</ele>
        <time>2020-09-13T11:01:00.000Z</time>
      </trkpt>
      <trkpt lat="45.14569" lon="5.839">
        <ele>595.21</ele>
        <time>2020-09-13T11:01:05.000Z</time>
      </trkpt>
      <trkpt lat="45.14538" lon="5.83914">
        <ele>594.45</ele>
        <time>2020-09-13T11:01:10.000Z</time>
      </trkpt>
      <trkpt lat="45.14508" lon="5.83925">
        <ele>592.76</ele>
        <time>2020-09-13T11:01:15.000Z</time>
      </trkpt>
      <trkpt lat="45.14486" lon="5.83937">
        <ele>589.81</ele>
        <time>2020-09-13T11:01:20.000Z</time>
      </trkpt>
      <trkpt lat="45.14456" lon="5.83942">
        <ele>587.73</ele>
        <time>2020-09-13T11:01:25.000Z</time>
      </trkpt>
      <trkpt lat="45.14422" lon="5.83948">
        <ele>586.04</ele>
        <time>2020-09-13T11:01:30.000Z</time>
      </trkpt>
      <trkpt lat="45.14401" lon="5.83976">
        <ele>586.07</ele>
        <time>2020-09-13T11:01:35.000Z</time>
      </trkpt>
      <trkpt lat="45.14386" lon="5.84014">
        <ele>588.83</ele>
        <time>2020-09-13T11:01:40.000Z</time>
      </trkpt>
      <trkpt lat="45.14372" lon="5.84042">
        <ele>586.46</ele>
        <time>2020-09-13T11:01:45.000Z</time>
      </trkpt>
      <trkpt lat="45.1435" lon="5.84072">
        <ele>583.31</ele>
        <time>2020-09-13T11:01:50.000Z</time>
      </trkpt>
      <trkpt lat="45.14321" lon="5.841">
        <ele>580.04</ele>
        <time>2020-09-13T11:01:55.000Z</time>
      </trkpt>
      <trkpt lat="45.14292" lon="5.84132">
        <ele>581.57</ele>
        <time>2020-09-13T11:02:00.000Z</time>
      </trkpt>
      <trkpt lat="45.1426" lon="5.84123">
        <ele>581.32</ele>
        <time>2020-09-13T11:02:05.000Z</time>
      </trkpt>
      <trkpt lat="45.14248" lon="5.84077">
        <ele>586.87</ele>
        <time>2020-09-13T11:02:10.000Z</time>
      </trkpt>
      <trkpt lat="45.14223" lon="5.84044">
        <ele>591.77</ele>
        <time>2020-09-13T11:02:15.000Z</time>
      </trkpt>
      <trkpt lat="45.14187" lon="5.84032">
        <ele>587.47</ele>
        <time>2020-09-13T11:02:20.000Z</time>
      </trkpt>
      <trkpt lat="45.14152" lon="5.84034">
        <ele>587.12</ele>
        <time>2020-09-13T11:02:25.000Z</time>
      </trkpt>
      <trkpt lat="45.14114" lon="5.84052">
        <ele>584.78</ele>
        <time>2020-09-13T11:02:30.000Z</time>
      </trkpt>
      <trkpt lat="45.14083" lon="5.84071">
        <ele>585.73</ele>
        <time>2020-09-13T11:02:35.000Z</time>
      </trkpt>
      <trkpt lat="45.14053" lon="5.84067">
        <ele>582.36</ele>
        <time>2020-09-13T11:02:40.000Z</time>
      </trkpt>
      <trkpt lat="45.14021" lon="5.84062">
        <ele>583.37</ele>
        <time>2020-09-13T11:02:45.000Z</time>
      </trkpt>
      <trkpt lat="45.13989" lon="5.84052">
        <ele>583.92</ele>
        <time>2020-09-13T11:02:50.000Z</time>
      </trkpt>
      <trkpt lat="45.13949" lon="5.84041">
        <ele>585.6</ele>
        <time>2020-09-13T11:02:55.000Z</time>
      </trkpt>
      <trkpt lat="45.13912" lon="5.84014">
        <ele>585.15</ele>
        <time>2020-09-13T11:03:00.000Z</time>
      </trkpt>
      <trkpt lat="45.13866" lon="5.84">
        <ele>580.41</ele>
        <time>2020-09-13T11:03:05.000Z</time>
      </trkpt>
      <trkpt lat="45.13823" lon="5.83986">
        <ele>576.08</ele>
        <time>2020-09-13T11:03:10.000Z</time>
      </trkpt>
      <trkpt lat="45.13789" lon="5.83961">
        <ele>573.78</ele>
        <time>2020-09-13T11:03:15.000Z</time>
      </trkpt>
      <trkpt lat="45.13758" lon="5.8394">
        <ele>575.28</ele>
        <time>2020-09-13T11:03:20.000Z</time>
      </trkpt>
      <trkpt lat="45.13731" lon="5.83943">
        <ele>574.14</ele>
        <time>2020-09-13T11:03:25.000Z</time>
      </trkpt>
      <trkpt lat="45.137" lon="5.83928">
        <ele>574.2</ele>
        <time>2020-09-13T11:03:30.000Z</time>
      </trkpt>
      <trkpt lat="45.13672" lon="5.83921">
        <ele>574.27</ele>
        <time>2020-09-13T11:03:35.000Z</time>
      </trkpt>
      <trkpt lat="45.13645" lon="5.83906">
        <ele>571.13</ele>
        <time>2020-09-13T11:03:40.000Z</time>
      </trkpt>
      <trkpt lat="45.13619" lon="5.83901">
        <ele>568.42</ele>
        <time>2020-09-13T11:03:45.000Z</time>
      </trkpt>
      <trkpt lat="45.13594" lon="5.83896">
        <ele>563.88</ele>
        <time>2020-09-13T11:03:50.000Z</time>
      </trkpt>
      <trkpt lat="45.13568" lon="5.83881">
        <ele>563.88</ele>
        <time>2020-09-13T11:03:55.000Z</time>
      </trkpt>
      <trkpt lat="45.13543" lon="5.83872">
        <ele>562.7</ele>
        <time>2020-09-13T11:04:00.000Z</time>
      </trkpt>
      <trkpt lat="45.1352" lon="5.83857">
        <ele>562.29</ele>
        <time>2020-09-13T11:04:05.000Z</time>
      </trkpt>
      <trkpt lat="45.13496" lon="5.8384">
        <ele>557.2</ele>
        <time>2020-09-13T11:04:10.000Z</time>
      </trkpt>
      <trkpt lat="45.13473" lon="5.83831">
        <ele>559.13</ele>
        <time>2020-09-13T11:04:15.000Z</time>
      </trkpt>
      <trkpt lat="45.13446" lon="5.83817">
        <ele>559.58</ele>
        <time>2020-09-13T11:04:20.000Z</time>
      </trkpt>
      <trkpt lat="45.13415" lon="5.8381">
        <ele>561.96</ele>
        <time>2020-09-13T11:04:25.000Z</time>
      </trkpt>
      <trkpt lat="45.13383" lon="5.83805">
        <ele>565.36</ele>
        <time>2020-09-13T11:04:30.000Z</time>
      </trkpt>
      <trkpt lat="45.13352" lon="5.83795">
        <ele>568.53</ele>
        <time>2020-09-13T11:04:35.000Z</time>
      </trkpt>
      <trkpt lat="45.13326" lon="5.83782">
        <ele>567.01</ele>
        <time>2020-09-13T11:04:40.000Z</time>
      </trkpt>
      <trkpt lat="45.13296" lon="5.83774">
        <ele>571.88</ele>
        <time>2020-09-13T11:04:45.000Z</time>
      </trkpt>
      <trkpt lat="45.13269" lon="5.83755">
        <ele>573.79</ele>
        <time>2020-09-13T11:04:50.000Z</time>
      </trkpt>
      <trkpt lat="45.13242" lon="5.83742">
        <ele>573.9</ele>
        <time>2020-09-13T11:04:55.000Z</time>
      </trkpt>
      <trkpt lat="45.1322" lon="5.83737">
        <ele>572.76</ele>
        <time>2020-09-13T11:05:00.000Z</time>
      </trkpt>
      <trkpt lat="45.13205" lon="5.83738">
        <ele>573.45</ele>
        <time>2020-09-13T11:05:05.000Z</time>
      </trkpt>
      <trkpt lat="45.13194" lon="5.83738">
        <ele>576.99</ele>
        <time>2020-09-13T11:07:23.000Z</time>
      </trkpt>
      <trkpt lat="45.13177" lon="5.83749">
        <ele>576.48</ele>
        <time>2020-09-13T11:07:28.000Z</time>
      </trkpt>
      <trkpt lat="45.13157" lon="5.83763">
        <ele>574.17</ele>
        <time>2020-09-13T11:07:33.000Z</time>
      </trkpt>
      <trkpt lat="45.13137" lon="5.83777">
        <ele>576.45</ele>
        <time>2020-09-13T11:07:38.000Z</time>
      </trkpt>
      <trkpt lat="45.1311" lon="5.83775">
        <ele>573.06</ele>
        <time>2020-09-13T11:07:43.000Z</time>
      </trkpt>
      <trkpt lat="45.13085" lon="5.83757">
        <ele>569.7</ele>
        <time>2020-09-13T11:07:48.000Z</time>
      </trkpt>
      <trkpt lat="45.13069" lon="5.83733">
        <ele>569.47</ele>
        <time>2020-09-13T11:07:53.000Z</time>
      </trkpt>
      <trkpt lat="45.13056" lon="5.8371">
        <ele>569.28</ele>
        <time>2020-09-13T11:07:58.000Z</time>
      </trkpt>
      <trkpt lat="45.13039" lon="5.8367">
        <ele>572.55</ele>
        <time>2020-09-13T11:08:03.000Z</time>
      </trkpt>
      <trkpt lat="45.13026" lon="5.83628">
        <ele>572</ele>
        <time>2020-09-13T11:08:08.000Z</time>
      </trkpt>
      <trkpt lat="45.13004" lon="5.83598">
        <ele>571.81</ele>
        <time>2020-09-13T11:08:13.000Z</time>
      </trkpt>
      <trkpt lat="45.12972" lon="5.83597">
        <ele>571.45</ele>
        <time>2020-09-13T11:08:18.000Z</time>
      </trkpt>
      <trkpt lat="45.12938" lon="5.83588">
        <ele>564.47</ele>
        <time>2020-09-13T11:08:23.000Z</time>
      </trkpt>
      <trkpt lat="45.12917" lon="5.83557">
        <ele>564.48</ele>
        <time>2020-09-13T11:08:28.000Z</time>
      </trkpt>
      <trkpt lat="45.12887" lon="5.8353">
        <ele>568.19</ele>
        <time>2020-09-13T11:08:33.000Z</time>
      </trkpt>
      <trkpt lat="45.12851" lon="5.83519">
        <ele>564.32</ele>
        <time>2020-09-13T11:08:38.000Z</time>
      </trkpt>
      <trkpt lat="45.12817" lon="5.83517">
        <ele>563.69</ele>
        <time>2020-09-13T11:08:43.000Z</time>
      </trkpt>
      <trkpt lat="45.12788" lon="5.83505">
        <ele>561.98</ele>
        <time>2020-09-13T11:08:48.000Z</time>
      </trkpt>
      <trkpt lat="45.12759" lon="5.83504">
        <ele>559.56</ele>
        <time>2020-09-13T11:08:53.000Z</time>
      </trkpt>
      <trkpt lat="45.12733" lon="5.83477">
        <ele>554.8</ele>
        <time>2020-09-13T11:08:58.000Z</time>
      </trkpt>
      <trkpt lat="45.12716" lon="5.83445">
        <ele>551.88</ele>
        <time>2020-09-13T11:09:03.000Z</time>
      </trkpt>
      <trkpt lat="45.12706" lon="5.83405">
        <ele>553.05</ele>
        <time>2020-09-13T11:09:08.000Z</time>
      </trkpt>
      <trkpt lat="45.12692" lon="5.83368">
        <ele>550.73</ele>
        <time>2020-09-13T11:09:13.000Z</time>
      </trkpt>
      <trkpt lat="45.12669" lon="5.83327">
        <ele>548.37</ele>
        <time>2020-09-13T11:09:18.000Z</time>
      </trkpt>
      <trkpt lat="45.1264" lon="5.83299">
        <ele>546.14</ele>
        <time>2020-09-13T11:09:23.000Z</time>
      </trkpt>
      <trkpt lat="45.12609" lon="5.83263">
        <ele>545.84</ele>
        <time>2020-09-13T11:09:28.000Z</time>
      </trkpt>
      <trkpt lat="45.1258" lon="5.83237">
        <ele>543.71</ele>
        <time>2020-09-13T11:09:33.000Z</time>
      </trkpt>
      <trkpt lat="45.12554" lon="5.83211">
        <ele>542.38</ele>
        <time>2020-09-13T11:09:38.000Z</time>
      </trkpt>
      <trkpt lat="45.12528" lon="5.83185">
        <ele>543.69</ele>
        <time>2020-09-13T11:09:43.000Z</time>
      </trkpt>
      <trkpt lat="45.12501" lon="5.83157">
        <ele>540.83</ele>
        <time>2020-09-13T11:09:48.000Z</time>
      </trkpt>
      <trkpt lat="45.12476" lon="5.83136">
        <ele>541.48</ele>
        <time>2020-09-13T11:09:53.000Z</time>
      </trkpt>
      <trkpt lat="45.1245" lon="5.83122">
        <ele>541.43</ele>
        <time>2020-09-13T11:09:58.000Z</time>
      </trkpt>
      <trkpt lat="45.12422" lon="5.831">
        <ele>544.38</ele>
        <time>2020-09-13T11:10:03.000Z</time>
      </trkpt>
      <trkpt lat="45.12397" lon="5.83077">
        <ele>545.74</ele>
        <time>2020-09-13T11:10:08.000Z</time>
      </trkpt>
      <trkpt lat="45.12374" lon="5.83051">
        <ele>542.53</ele>
        <time>2020-09-13T11:10:13.000Z</time>
      </trkpt>
      <trkpt lat="45.12343" lon="5.83033">
        <ele>539.34</ele>
        <time>2020-09-13T11:10:18.000Z</time>
      </trkpt>
      <trkpt lat="45.12309" lon="5.83014">
        <ele>541.38</ele>
        <time>2020-09-13T11:10:23.000Z</time>
      </trkpt>
      <trkpt lat="45.1228" lon="5.82998">
        <ele>542.85</ele>
        <time>2020-09-13T11:10:28.000Z</time>
      </trkpt>
      <trkpt lat="45.12257" lon="5.82983">
        <ele>539.58</ele>
        <time>2020-09-13T11:10:33.000Z</time>
      </trkpt>
      <trkpt lat="45.12245" lon="5.82975">
        <ele>537.16</ele>
        <time>2020-09-13T11:10:38.000Z</time>
      </trkpt>
      <trkpt lat="45.12236" lon="5.82974">
        <ele>540.01</ele>
        <time>2020-09-13T11:10:45.000Z</time>
      </trkpt>
      <trkpt lat="45.12242" lon="5.82984">
        <ele>543.57</ele>
        <time>2020-09-13T11:11:26.000Z</time>
      </trkpt>
      <trkpt lat="45.12236" lon="5.82972">
        <ele>540.28</ele>
        <time>2020-09-13T11:11:36.000Z</time>
      </trkpt>
      <trkpt lat="45.12223" lon="5.82962">
        <ele>538.3</ele>
        <time>2020-09-13T11:11:41.000Z</time>
      </trkpt>
      <trkpt lat="45.12204" lon="5.82948">
        <ele>541.44</ele>
        <time>2020-09-13T11:11:46.000Z</time>
      </trkpt>
      <trkpt lat="45.12186" lon="5.82939">
        <ele>543.07</ele>
        <time>2020-09-13T11:11:51.000Z</time>
      </trkpt>
      <trkpt lat="45.12164" lon="5.82932">
        <ele>543.12</ele>
        <time>2020-09-13T11:11:56.000Z</time>
      </trkpt>
      <trkpt lat="45.12146" lon="5.82925">
        <ele>541.97</ele>
        <time>2020-09-13T11:12:01.000Z</time>
      </trkpt>
      <trkpt lat="45.12121" lon="5.82913">
        <ele>543.59</ele>
        <time>2020-09-13T11:12:06.000Z</time>
      </trkpt>
      <trkpt lat="45.12097" lon="5.82897">
        <ele>544.8</ele>
        <time>2020-09-13T11:12:11.000Z</time>
      </trkpt>
      <trkpt lat="45.12069" lon="5.82874">
        <ele>542.49</ele>
        <time>2020-09-13T11:12:16.000Z</time>
      </trkpt>
      <trkpt lat="45.12047" lon="5.82863">
        <ele>541.92</ele>
        <time>2020-09-13T11:12:21.000Z</time>
      </trkpt>
      <trkpt lat="45.12019" lon="5.82856">
        <ele>542.43</ele>
        <time>2020-09-13T11:12:26.000Z</time>
      </trkpt>
      <trkpt lat="45.11993" lon="5.82848">
        <ele>541.72</ele>
        <time>2020-09-13T11:12:31.000Z</time>
      </trkpt>
      <trkpt lat="45.11975" lon="5.82844">
        <ele>544.1</ele>
        <time>2020-09-13T11:12:36.000Z</time>
      </trkpt>
      <trkpt lat="45.11964" lon="5.82835">
        <ele>545.57</ele>
        <time>2020-09-13T11:12:41.000Z</time>
      </trkpt>
      <trkpt lat="45.11957" lon="5.8282">
        <ele>545.2</ele>
        <time>2020-09-13T11:12:46.000Z</time>
      </trkpt>
      <trkpt lat="45.1194" lon="5.82799">
        <ele>541.59</ele>
        <time>2020-09-13T11:12:51.000Z</time>
      </trkpt>
      <trkpt lat="45.11924" lon="5.82791">
        <ele>543.98</ele>
        <time>2020-09-13T11:12:56.000Z</time>
      </trkpt>
      <trkpt lat="45.1191" lon="5.82782">
        <ele>545.29</ele>
        <time>2020-09-13T11:13:01.000Z</time>
      </trkpt>
      <trkpt lat="45.11903" lon="5.8277">
        <ele>548.66</ele>
        <time>2020-09-13T11:13:06.000Z</time>
      </trkpt>
      <trkpt lat="45.11892" lon="5.82753">
        <ele>548.33</ele>
        <time>2020-09-13T11:13:11.000Z</time>
      </trkpt>
      <trkpt lat="45.11872" lon="5.82726">
        <ele>551.47</ele>
        <time>2020-09-13T11:13:16.000Z</time>
      </trkpt>
      <trkpt lat="45.11867" lon="5.82712">
        <ele>551.73</ele>
        <time>2020-09-13T11:13:22.000Z</time>
      </trkpt>
      <trkpt lat="45.11853" lon="5.82693">
        <ele>550</ele>
        <time>2020-09-13T11:13:27.000Z</time>
      </trkpt>
      <trkpt lat="45.11846" lon="5.82678">
        <ele>547.38</ele>
        <time>2020-09-13T11:13:32.000Z</time>
      </trkpt>
      <trkpt lat="45.11832" lon="5.82654">
        <ele>547.06</ele>
        <time>2020-09-13T11:13:37.000Z</time>
      </trkpt>
      <trkpt lat="45.11815" lon="5.82622">
        <ele>544.19</ele>
        <time>2020-09-13T11:13:42.000Z</time>
      </trkpt>
      <trkpt lat="45.11793" lon="5.82577">
        <ele>543.25</ele>
        <time>2020-09-13T11:13:47.000Z</time>
      </trkpt>
      <trkpt lat="45.11769" lon="5.82525">
        <ele>540.4</ele>
        <time>2020-09-13T11:13:52.000Z</time>
      </trkpt>
      <trkpt lat="45.11737" lon="5.82475">
        <ele>535.05</ele>
        <time>2020-09-13T11:13:57.000Z</time>
      </trkpt>
      <trkpt lat="45.11696" lon="5.82427">
        <ele>534.88</ele>
        <time>2020-09-13T11:14:02.000Z</time>
      </trkpt>
      <trkpt lat="45.11652" lon="5.82388">
        <ele>532.37</ele>
        <time>2020-09-13T11:14:07.000Z</time>
      </trkpt>
      <trkpt lat="45.11598" lon="5.82353">
        <ele>528.12</ele>
        <time>2020-09-13T11:14:12.000Z</time>
      </trkpt>
      <trkpt lat="45.11551" lon="5.82326">
        <ele>525.84</ele>
        <time>2020-09-13T11:14:17.000Z</time>
      </trkpt>
      <trkpt lat="45.11508" lon="5.823">
        <ele>522.97</ele>
        <time>2020-09-13T11:14:22.000Z</time>
      </trkpt>
      <trkpt lat="45.1147" lon="5.82275">
        <ele>525.8</ele>
        <time>2020-09-13T11:14:27.000Z</time>
      </trkpt>
      <trkpt lat="45.11433" lon="5.82251">
        <ele>524.96</ele>
        <time>2020-09-13T11:14:32.000Z</time>
      </trkpt>
      <trkpt lat="45.11398" lon="5.82233">
        <ele>524.6</ele>
        <time>2020-09-13T11:14:37.000Z</time>
      </trkpt>
      <trkpt lat="45.11366" lon="5.82212">
        <ele>522.44</ele>
        <time>2020-09-13T11:14:42.000Z</time>
      </trkpt>
      <trkpt lat="45.11353" lon="5.82194">
        <ele>523.31</ele>
        <time>2020-09-13T11:14:47.000Z</time>
      </trkpt>
      <trkpt lat="45.1135" lon="5.8216">
        <ele>523.24</ele>
        <time>2020-09-13T11:14:52.000Z</time>
      </trkpt>
      <trkpt lat="45.11354" lon="5.82108">
        <ele>522.2</ele>
        <time>2020-09-13T11:14:57.000Z</time>
      </trkpt>
      <trkpt lat="45.11349" lon="5.82052">
        <ele>517.16</ele>
        <time>2020-09-13T11:15:02.000Z</time>
      </trkpt>
      <trkpt lat="45.11306" lon="5.8203">
        <ele>510.92</ele>
        <time>2020-09-13T11:15:07.000Z</time>
      </trkpt>
      <trkpt lat="45.1126" lon="5.82037">
        <ele>506.41</ele>
        <time>2020-09-13T11:15:12.000Z</time>
      </trkpt>
      <trkpt lat="45.11214" lon="5.82061">
        <ele>501.06</ele>
        <time>2020-09-13T11:15:17.000Z</time>
      </trkpt>
      <trkpt lat="45.11177" lon="5.82088">
        <ele>495.42</ele>
        <time>2020-09-13T11:15:22.000Z</time>
      </trkpt>
      <trkpt lat="45.11146" lon="5.82114">
        <ele>491.35</ele>
        <time>2020-09-13T11:15:27.000Z</time>
      </trkpt>
      <trkpt lat="45.11125" lon="5.82168">
        <ele>490.18</ele>
        <time>2020-09-13T11:15:32.000Z</time>
      </trkpt>
      <trkpt lat="45.1111" lon="5.82232">
        <ele>488.54</ele>
        <time>2020-09-13T11:15:37.000Z</time>
      </trkpt>
      <trkpt lat="45.11091" lon="5.82259">
        <ele>487.42</ele>
        <time>2020-09-13T11:15:42.000Z</time>
      </trkpt>
      <trkpt lat="45.11056" lon="5.82246">
        <ele>480.05</ele>
        <time>2020-09-13T11:15:47.000Z</time>
      </trkpt>
      <trkpt lat="45.11022" lon="5.82226">
        <ele>479.75</ele>
        <time>2020-09-13T11:15:52.000Z</time>
      </trkpt>
      <trkpt lat="45.10994" lon="5.82212">
        <ele>477.38</ele>
        <time>2020-09-13T11:15:57.000Z</time>
      </trkpt>
      <trkpt lat="45.10997" lon="5.82184">
        <ele>471.77</ele>
        <time>2020-09-13T11:16:02.000Z</time>
      </trkpt>
      <trkpt lat="45.11001" lon="5.82137">
        <ele>464.6</ele>
        <time>2020-09-13T11:16:07.000Z</time>
      </trkpt>
      <trkpt lat="45.1101" lon="5.82074">
        <ele>456.62</ele>
        <time>2020-09-13T11:16:12.000Z</time>
      </trkpt>
      <trkpt lat="45.11012" lon="5.82006">
        <ele>454.07</ele>
        <time>2020-09-13T11:16:17.000Z</time>
      </trkpt>
      <trkpt lat="45.11011" lon="5.81943">
        <ele>448.62</ele>
        <time>2020-09-13T11:16:22.000Z</time>
      </trkpt>
      <trkpt lat="45.11023" lon="5.81887">
        <ele>445.4</ele>
        <time>2020-09-13T11:16:27.000Z</time>
      </trkpt>
      <trkpt lat="45.11042" lon="5.81862">
        <ele>440.58</ele>
        <time>2020-09-13T11:16:32.000Z</time>
      </trkpt>
      <trkpt lat="45.11075" lon="5.81871">
        <ele>440.06</ele>
        <time>2020-09-13T11:16:37.000Z</time>
      </trkpt>
      <trkpt lat="45.11104" lon="5.81892">
        <ele>437.94</ele>
        <time>2020-09-13T11:16:42.000Z</time>
      </trkpt>
      <trkpt lat="45.11138" lon="5.81902">
        <ele>433.14</ele>
        <time>2020-09-13T11:16:47.000Z</time>
      </trkpt>
      <trkpt lat="45.11174" lon="5.8187">
        <ele>431.7</ele>
        <time>2020-09-13T11:16:52.000Z</time>
      </trkpt>
      <trkpt lat="45.11215" lon="5.81821">
        <ele>426</ele>
        <time>2020-09-13T11:16:57.000Z</time>
      </trkpt>
      <trkpt lat="45.11255" lon="5.81764">
        <ele>421.74</ele>
        <time>2020-09-13T11:17:02.000Z</time>
      </trkpt>
      <trkpt lat="45.11288" lon="5.81693">
        <ele>418.77</ele>
        <time>2020-09-13T11:17:07.000Z</time>
      </trkpt>
      <trkpt lat="45.113" lon="5.81658">
        <ele>411.96</ele>
        <time>2020-09-13T11:17:12.000Z</time>
      </trkpt>
      <trkpt lat="45.11288" lon="5.81643">
        <ele>403.09</ele>
        <time>2020-09-13T11:18:28.000Z</time>
      </trkpt>
      <trkpt lat="45.11279" lon="5.81613">
        <ele>401.33</ele>
        <time>2020-09-13T11:18:33.000Z</time>
      </trkpt>
      <trkpt lat="45.11281" lon="5.81576">
        <ele>398.33</ele>
        <time>2020-09-13T11:18:38.000Z</time>
      </trkpt>
      <trkpt lat="45.11269" lon="5.81547">
        <ele>395.15</ele>
        <time>2020-09-13T11:18:43.000Z</time>
      </trkpt>
      <trkpt lat="45.1125" lon="5.81537">
        <ele>391.99</ele>
        <time>2020-09-13T11:18:48.000Z</time>
      </trkpt>
      <trkpt lat="45.1124" lon="5.81533">
        <ele>387.02</ele>
        <time>2020-09-13T11:18:54.000Z</time>
      </trkpt>
      <trkpt lat="45.11241" lon="5.81517">
        <ele>384.72</ele>
        <time>2020-09-13T11:18:59.000Z</time>
      </trkpt>
      <trkpt lat="45.1124" lon="5.81476">
        <ele>384.18</ele>
        <time>2020-09-13T11:19:04.000Z</time>
      </trkpt>
      <trkpt lat="45.11229" lon="5.81408">
        <ele>382.48</ele>
        <time>2020-09-13T11:19:09.000Z</time>
      </trkpt>
      <trkpt lat="45.11204" lon="5.81347">
        <ele>377.25</ele>
        <time>2020-09-13T11:19:14.000Z</time>
      </trkpt>
      <trkpt lat="45.11205" lon="5.81285">
        <ele>378.33</ele>
        <time>2020-09-13T11:19:19.000Z</time>
      </trkpt>
      <trkpt lat="45.11198" lon="5.81238">
        <ele>379.08</ele>
        <time>2020-09-13T11:19:24.000Z</time>
      </trkpt>
      <trkpt lat="45.11178" lon="5.81182">
        <ele>379.69</ele>
        <time>2020-09-13T11:19:29.000Z</time>
      </trkpt>
      <trkpt lat="45.11156" lon="5.8113">
        <ele>374.29</ele>
        <time>2020-09-13T11:19:34.000Z</time>
      </trkpt>
      <trkpt lat="45.11135" lon="5.81084">
        <ele>368.99</ele>
        <time>2020-09-13T11:19:39.000Z</time>
      </trkpt>
      <trkpt lat="45.11113" lon="5.8105">
        <ele>362.3</ele>
        <time>2020-09-13T11:19:44.000Z</time>
      </trkpt>
      <trkpt lat="45.11087" lon="5.81015">
        <ele>362.19</ele>
        <time>2020-09-13T11:19:49.000Z</time>
      </trkpt>
      <trkpt lat="45.11062" lon="5.80975">
        <ele>361.15</ele>
        <time>2020-09-13T11:19:54.000Z</time>
      </trkpt>
      <trkpt lat="45.11031" lon="5.8094">
        <ele>359.86</ele>
        <time>2020-09-13T11:19:59.000Z</time>
      </trkpt>
      <trkpt lat="45.11005" lon="5.80907">
        <ele>357.61</ele>
        <time>2020-09-13T11:20:04.000Z</time>
      </trkpt>
      <trkpt lat="45.11015" lon="5.80872">
        <ele>353.77</ele>
        <time>2020-09-13T11:20:09.000Z</time>
      </trkpt>
      <trkpt lat="45.11033" lon="5.80832">
        <ele>351.42</ele>
        <time>2020-09-13T11:20:14.000Z</time>
      </trkpt>
      <trkpt lat="45.11047" lon="5.8079">
        <ele>353.56</ele>
        <time>2020-09-13T11:20:19.000Z</time>
      </trkpt>
      <trkpt lat="45.1107" lon="5.80755">
        <ele>346.71</ele>
        <time>2020-09-13T11:20:24.000Z</time>
      </trkpt>
      <trkpt lat="45.11077" lon="5.80714">
        <ele>347.16</ele>
        <time>2020-09-13T11:20:29.000Z</time>
      </trkpt>
      <trkpt lat="45.11067" lon="5.80699">
        <ele>346.45</ele>
        <time>2020-09-13T11:20:34.000Z</time>
      </trkpt>
      <trkpt lat="45.11046" lon="5.80698">
        <ele>343.47</ele>
        <time>2020-09-13T11:20:39.000Z</time>
      </trkpt>
      <trkpt lat="45.1102" lon="5.807">
        <ele>340.54</ele>
        <time>2020-09-13T11:20:44.000Z</time>
      </trkpt>
      <trkpt lat="45.1099" lon="5.80695">
        <ele>338.95</ele>
        <time>2020-09-13T11:20:49.000Z</time>
      </trkpt>
      <trkpt lat="45.10962" lon="5.80686">
        <ele>333.57</ele>
        <time>2020-09-13T11:20:54.000Z</time>
      </trkpt>
      <trkpt lat="45.10931" lon="5.80682">
        <ele>331.8</ele>
        <time>2020-09-13T11:20:59.000Z</time>
      </trkpt>
      <trkpt lat="45.10902" lon="5.80701">
        <ele>331.92</ele>
        <time>2020-09-13T11:21:04.000Z</time>
      </trkpt>
      <trkpt lat="45.10875" lon="5.80722">
        <ele>331.61</ele>
        <time>2020-09-13T11:21:09.000Z</time>
      </trkpt>
      <trkpt lat="45.10839" lon="5.80734">
        <ele>330.22</ele>
        <time>2020-09-13T11:21:14.000Z</time>
      </trkpt>
      <trkpt lat="45.10806" lon="5.80729">
        <ele>327.6</ele>
        <time>2020-09-13T11:21:19.000Z</time>
      </trkpt>
      <trkpt lat="45.10783" lon="5.80711">
        <ele>327.68</ele>
        <time>2020-09-13T11:21:24.000Z</time>
      </trkpt>
      <trkpt lat="45.10757" lon="5.80708">
        <ele>326.66</ele>
        <time>2020-09-13T11:21:29.000Z</time>
      </trkpt>
      <trkpt lat="45.10734" lon="5.80696">
        <ele>328.53</ele>
        <time>2020-09-13T11:21:34.000Z</time>
      </trkpt>
      <trkpt lat="45.10715" lon="5.80684">
        <ele>331.86</ele>
        <time>2020-09-13T11:21:39.000Z</time>
      </trkpt>
      <trkpt lat="45.10695" lon="5.80671">
        <ele>330.75</ele>
        <time>2020-09-13T11:21:44.000Z</time>
      </trkpt>
      <trkpt lat="45.10672" lon="5.80653">
        <ele>329.54</ele>
        <time>2020-09-13T11:21:49.000Z</time>
      </trkpt>
      <trkpt lat="45.10648" lon="5.80635">
        <ele>327.84</ele>
        <time>2020-09-13T11:21:54.000Z</time>
      </trkpt>
      <trkpt lat="45.10628" lon="5.80614">
        <ele>325.48</ele>
        <time>2020-09-13T11:21:59.000Z</time>
      </trkpt>
      <trkpt lat="45.106" lon="5.80588">
        <ele>324.92</ele>
        <time>2020-09-13T11:22:04.000Z</time>
      </trkpt>
      <trkpt lat="45.10577" lon="5.80575">
        <ele>325.56</ele>
        <time>2020-09-13T11:22:09.000Z</time>
      </trkpt>
      <trkpt lat="45.10559" lon="5.80573">
        <ele>329.52</ele>
        <time>2020-09-13T11:22:14.000Z</time>
      </trkpt>
      <trkpt lat="45.10536" lon="5.80563">
        <ele>330.61</ele>
        <time>2020-09-13T11:22:19.000Z</time>
      </trkpt>
      <trkpt lat="45.10511" lon="5.80547">
        <ele>331.2</ele>
        <time>2020-09-13T11:22:24.000Z</time>
      </trkpt>
      <trkpt lat="45.10481" lon="5.80531">
        <ele>331.38</ele>
        <time>2020-09-13T11:22:29.000Z</time>
      </trkpt>
      <trkpt lat="45.1046" lon="5.80502">
        <ele>334.76</ele>
        <time>2020-09-13T11:22:34.000Z</time>
      </trkpt>
      <trkpt lat="45.10437" lon="5.80474">
        <ele>336.97</ele>
        <time>2020-09-13T11:22:39.000Z</time>
      </trkpt>
      <trkpt lat="45.10418" lon="5.8045">
        <ele>335.18</ele>
        <time>2020-09-13T11:22:44.000Z</time>
      </trkpt>
      <trkpt lat="45.10393" lon="5.80421">
        <ele>332.73</ele>
        <time>2020-09-13T11:22:49.000Z</time>
      </trkpt>
      <trkpt lat="45.10372" lon="5.804">
        <ele>330.98</ele>
        <time>2020-09-13T11:22:54.000Z</time>
      </trkpt>
      <trkpt lat="45.10354" lon="5.80383">
        <ele>327.9</ele>
        <time>2020-09-13T11:22:59.000Z</time>
      </trkpt>
      <trkpt lat="45.10332" lon="5.80382">
        <ele>325.19</ele>
        <time>2020-09-13T11:23:04.000Z</time>
      </trkpt>
      <trkpt lat="45.10311" lon="5.80373">
        <ele>324.21</ele>
        <time>2020-09-13T11:23:09.000Z</time>
      </trkpt>
      <trkpt lat="45.1029" lon="5.80366">
        <ele>323.85</ele>
        <time>2020-09-13T11:23:14.000Z</time>
      </trkpt>
      <trkpt lat="45.10274" lon="5.80349">
        <ele>324.32</ele>
        <time>2020-09-13T11:23:19.000Z</time>
      </trkpt>
      <trkpt lat="45.10254" lon="5.80329">
        <ele>327.09</ele>
        <time>2020-09-13T11:23:24.000Z</time>
      </trkpt>
      <trkpt lat="45.10233" lon="5.80301">
        <ele>324.6</ele>
        <time>2020-09-13T11:23:29.000Z</time>
      </trkpt>
      <trkpt lat="45.10203" lon="5.80275">
        <ele>327.36</ele>
        <time>2020-09-13T11:23:34.000Z</time>
      </trkpt>
      <trkpt lat="45.1018" lon="5.80272">
        <ele>325.99</ele>
        <time>2020-09-13T11:23:39.000Z</time>
      </trkpt>
      <trkpt lat="45.1016" lon="5.80284">
        <ele>323.61</ele>
        <time>2020-09-13T11:23:44.000Z</time>
      </trkpt>
      <trkpt lat="45.10154" lon="5.80271">
        <ele>322.82</ele>
        <time>2020-09-13T11:23:50.000Z</time>
      </trkpt>
      <trkpt lat="45.10145" lon="5.80276">
        <ele>320.03</ele>
        <time>2020-09-13T11:23:55.000Z</time>
      </trkpt>
      <trkpt lat="45.10128" lon="5.80275">
        <ele>319.11</ele>
        <time>2020-09-13T11:24:00.000Z</time>
      </trkpt>
      <trkpt lat="45.10105" lon="5.80276">
        <ele>312.6</ele>
        <time>2020-09-13T11:24:05.000Z</time>
      </trkpt>
      <trkpt lat="45.10075" lon="5.80283">
        <ele>314.98</ele>
        <time>2020-09-13T11:24:10.000Z</time>
      </trkpt>
      <trkpt lat="45.10052" lon="5.8029">
        <ele>312.53</ele>
        <time>2020-09-13T11:24:15.000Z</time>
      </trkpt>
      <trkpt lat="45.1003" lon="5.80309">
        <ele>311.51</ele>
        <time>2020-09-13T11:24:20.000Z</time>
      </trkpt>
      <trkpt lat="45.10012" lon="5.80314">
        <ele>311.6</ele>
        <time>2020-09-13T11:24:25.000Z</time>
      </trkpt>
      <trkpt lat="45.0999" lon="5.8032">
        <ele>313.04</ele>
        <time>2020-09-13T11:24:30.000Z</time>
      </trkpt>
      <trkpt lat="45.09956" lon="5.80344">
        <ele>313.37</ele>
        <time>2020-09-13T11:24:35.000Z</time>
      </trkpt>
      <trkpt lat="45.09922" lon="5.80349">
        <ele>307.02</ele>
        <time>2020-09-13T11:24:40.000Z</time>
      </trkpt>
      <trkpt lat="45.0988" lon="5.80344">
        <ele>309.06</ele>
        <time>2020-09-13T11:24:45.000Z</time>
      </trkpt>
      <trkpt lat="45.09842" lon="5.80318">
        <ele>307.35</ele>
        <time>2020-09-13T11:24:50.000Z</time>
      </trkpt>
      <trkpt lat="45.09802" lon="5.80289">
        <ele>307.66</ele>
        <time>2020-09-13T11:24:55.000Z</time>
      </trkpt>
      <trkpt lat="45.09754" lon="5.8025">
        <ele>306.56</ele>
        <time>2020-09-13T11:25:00.000Z</time>
      </trkpt>
      <trkpt lat="45.0972" lon="5.80201">
        <ele>305.01</ele>
        <time>2020-09-13T11:25:05.000Z</time>
      </trkpt>
      <trkpt lat="45.09692" lon="5.80158">
        <ele>307.64</ele>
        <time>2020-09-13T11:25:10.000Z</time>
      </trkpt>
      <trkpt lat="45.09674" lon="5.80106">
        <ele>304.73</ele>
        <time>2020-09-13T11:25:15.000Z</time>
      </trkpt>
      <trkpt lat="45.09658" lon="5.80058">
        <ele>306.42</ele>
        <time>2020-09-13T11:25:20.000Z</time>
      </trkpt>
      <trkpt lat="45.09637" lon="5.80015">
        <ele>306.17</ele>
        <time>2020-09-13T11:25:25.000Z</time>
      </trkpt>
      <trkpt lat="45.09619" lon="5.79985">
        <ele>304.81</ele>
        <time>2020-09-13T11:25:30.000Z</time>
      </trkpt>
      <trkpt lat="45.096" lon="5.79952">
        <ele>307.08</ele>
        <time>2020-09-13T11:25:35.000Z</time>
      </trkpt>
      <trkpt lat="45.09581" lon="5.79919">
        <ele>307.5</ele>
        <time>2020-09-13T11:25:40.000Z</time>
      </trkpt>
      <trkpt lat="45.09565" lon="5.7989">
        <ele>308.94</ele>
        <time>2020-09-13T11:25:45.000Z</time>
      </trkpt>
      <trkpt lat="45.09541" lon="5.79851">
        <ele>309.83</ele>
        <time>2020-09-13T11:25:50.000Z</time>
      </trkpt>
      <trkpt lat="45.09519" lon="5.79823">
        <ele>310.19</ele>
        <time>2020-09-13T11:25:55.000Z</time>
      </trkpt>
      <trkpt lat="45.095" lon="5.79791">
        <ele>307.89</ele>
        <time>2020-09-13T11:26:00.000Z</time>
      </trkpt>
      <trkpt lat="45.09476" lon="5.7976">
        <ele>305.65</ele>
        <time>2020-09-13T11:26:05.000Z</time>
      </trkpt>
      <trkpt lat="45.09452" lon="5.79727">
        <ele>306.42</ele>
        <time>2020-09-13T11:26:10.000Z</time>
      </trkpt>
      <trkpt lat="45.09429" lon="5.797">
        <ele>309.36</ele>
        <time>2020-09-13T11:26:15.000Z</time>
      </trkpt>
      <trkpt lat="45.09411" lon="5.79677">
        <ele>308.88</ele>
        <time>2020-09-13T11:26:20.000Z</time>
      </trkpt>
      <trkpt lat="45.09385" lon="5.79651">
        <ele>307.48</ele>
        <time>2020-09-13T11:26:25.000Z</time>
      </trkpt>
      <trkpt lat="45.09354" lon="5.79614">
        <ele>312.92</ele>
        <time>2020-09-13T11:26:30.000Z</time>
      </trkpt>
      <trkpt lat="45.09337" lon="5.79586">
        <ele>314.36</ele>
        <time>2020-09-13T11:26:35.000Z</time>
      </trkpt>
      <trkpt lat="45.09319" lon="5.79566">
        <ele>311.84</ele>
        <time>2020-09-13T11:26:40.000Z</time>
      </trkpt>
      <trkpt lat="45.09296" lon="5.79533">
        <ele>318.34</ele>
        <time>2020-09-13T11:26:45.000Z</time>
      </trkpt>
      <trkpt lat="45.0928" lon="5.79512">
        <ele>318.21</ele>
        <time>2020-09-13T11:26:50.000Z</time>
      </trkpt>
      <trkpt lat="45.09265" lon="5.79486">
        <ele>312.87</ele>
        <time>2020-09-13T11:26:55.000Z</time>
      </trkpt>
      <trkpt lat="45.0925" lon="5.79466">
        <ele>308.78</ele>
        <time>2020-09-13T11:27:00.000Z</time>
      </trkpt>
      <trkpt lat="45.09225" lon="5.79442">
        <ele>310.58</ele>
        <time>2020-09-13T11:27:05.000Z</time>
      </trkpt>
      <trkpt lat="45.09206" lon="5.79423">
        <ele>311.33</ele>
        <time>2020-09-13T11:27:10.000Z</time>
      </trkpt>
      <trkpt lat="45.09185" lon="5.79404">
        <ele>313.85</ele>
        <time>2020-09-13T11:27:15.000Z</time>
      </trkpt>
      <trkpt lat="45.0916" lon="5.79391">
        <ele>314.22</ele>
        <time>2020-09-13T11:27:20.000Z</time>
      </trkpt>
      <trkpt lat="45.09138" lon="5.79383">
        <ele>312.83</ele>
        <time>2020-09-13T11:27:25.000Z</time>
      </trkpt>
      <trkpt lat="45.09111" lon="5.79365">
        <ele>314.15</ele>
        <time>2020-09-13T11:27:30.000Z</time>
      </trkpt>
      <trkpt lat="45.09083" lon="5.79352">
        <ele>315.47</ele>
        <time>2020-09-13T11:27:35.000Z</time>
      </trkpt>
      <trkpt lat="45.09067" lon="5.7934">
        <ele>315.69</ele>
        <time>2020-09-13T11:27:40.000Z</time>
      </trkpt>
      <trkpt lat="45.09048" lon="5.79334">
        <ele>315.05</ele>
        <time>2020-09-13T11:27:45.000Z</time>
      </trkpt>
      <trkpt lat="45.09027" lon="5.79316">
        <ele>313.76</ele>
        <time>2020-09-13T11:27:50.000Z</time>
      </trkpt>
      <trkpt lat="45.09007" lon="5.79302">
        <ele>310.03</ele>
        <time>2020-09-13T11:27:55.000Z</time>
      </trkpt>
      <trkpt lat="45.08984" lon="5.7928">
        <ele>307.82</ele>
        <time>2020-09-13T11:28:00.000Z</time>
      </trkpt>
      <trkpt lat="45.08961" lon="5.79262">
        <ele>304.67</ele>
        <time>2020-09-13T11:28:05.000Z</time>
      </trkpt>
      <trkpt lat="45.08936" lon="5.79245">
        <ele>305.05</ele>
        <time>2020-09-13T11:28:10.000Z</time>
      </trkpt>
      <trkpt lat="45.08909" lon="5.7922">
        <ele>304.85</ele>
        <time>2020-09-13T11:28:15.000Z</time>
      </trkpt>
      <trkpt lat="45.08881" lon="5.79199">
        <ele>299.45</ele>
        <time>2020-09-13T11:28:20.000Z</time>
      </trkpt>
      <trkpt lat="45.08856" lon="5.79181">
        <ele>297.62</ele>
        <time>2020-09-13T11:28:25.000Z</time>
      </trkpt>
      <trkpt lat="45.08834" lon="5.79146">
        <ele>293.55</ele>
        <time>2020-09-13T11:28:30.000Z</time>
      </trkpt>
      <trkpt lat="45.08814" lon="5.7911">
        <ele>296.29</ele>
        <time>2020-09-13T11:28:35.000Z</time>
      </trkpt>
      <trkpt lat="45.08801" lon="5.79085">
        <ele>295.4</ele>
        <time>2020-09-13T11:28:40.000Z</time>
      </trkpt>
      <trkpt lat="45.08779" lon="5.79062">
        <ele>295.69</ele>
        <time>2020-09-13T11:28:45.000Z</time>
      </trkpt>
      <trkpt lat="45.08761" lon="5.79027">
        <ele>297.28</ele>
        <time>2020-09-13T11:28:50.000Z</time>
      </trkpt>
      <trkpt lat="45.08743" lon="5.79002">
        <ele>297.34</ele>
        <time>2020-09-13T11:28:55.000Z</time>
      </trkpt>
      <trkpt lat="45.08724" lon="5.78976">
        <ele>299.79</ele>
        <time>2020-09-13T11:29:00.000Z</time>
      </trkpt>
      <trkpt lat="45.08707" lon="5.7895">
        <ele>300.67</ele>
        <time>2020-09-13T11:29:05.000Z</time>
      </trkpt>
      <trkpt lat="45.08688" lon="5.78928">
        <ele>301</ele>
        <time>2020-09-13T11:29:10.000Z</time>
      </trkpt>
      <trkpt lat="45.08678" lon="5.78905">
        <ele>299.86</ele>
        <time>2020-09-13T11:29:15.000Z</time>
      </trkpt>
      <trkpt lat="45.08684" lon="5.7889">
        <ele>292.21</ele>
        <time>2020-09-13T11:29:20.000Z</time>
      </trkpt>
      <trkpt lat="45.08671" lon="5.78878">
        <ele>290.68</ele>
        <time>2020-09-13T11:29:25.000Z</time>
      </trkpt>
      <trkpt lat="45.08656" lon="5.78861">
        <ele>290.93</ele>
        <time>2020-09-13T11:29:30.000Z</time>
      </trkpt>
      <trkpt lat="45.08633" lon="5.78858">
        <ele>290.47</ele>
        <time>2020-09-13T11:29:35.000Z</time>
      </trkpt>
      <trkpt lat="45.08607" lon="5.78845">
        <ele>293.16</ele>
        <time>2020-09-13T11:29:40.000Z</time>
      </trkpt>
      <trkpt lat="45.08588" lon="5.78822">
        <ele>293.82</ele>
        <time>2020-09-13T11:29:45.000Z</time>
      </trkpt>
      <trkpt lat="45.08569" lon="5.788">
        <ele>296.43</ele>
        <time>2020-09-13T11:29:50.000Z</time>
      </trkpt>
      <trkpt lat="45.08547" lon="5.78767">
        <ele>300.65</ele>
        <time>2020-09-13T11:29:55.000Z</time>
      </trkpt>
      <trkpt lat="45.08528" lon="5.78747">
        <ele>298.73</ele>
        <time>2020-09-13T11:30:00.000Z</time>
      </trkpt>
      <trkpt lat="45.08498" lon="5.78726">
        <ele>297.28</ele>
        <time>2020-09-13T11:30:05.000Z</time>
      </trkpt>
      <trkpt lat="45.08469" lon="5.78703">
        <ele>300.14</ele>
        <time>2020-09-13T11:30:10.000Z</time>
      </trkpt>
      <trkpt lat="45.08444" lon="5.78686">
        <ele>301.01</ele>
        <time>2020-09-13T11:30:15.000Z</time>
      </trkpt>
      <trkpt lat="45.08418" lon="5.78672">
        <ele>302.1</ele>
        <time>2020-09-13T11:30:20.000Z</time>
      </trkpt>
      <trkpt lat="45.08407" lon="5.78651">
        <ele>300.71</ele>
        <time>2020-09-13T11:30:25.000Z</time>
      </trkpt>
      <trkpt lat="45.084" lon="5.78618">
        <ele>296.45</ele>
        <time>2020-09-13T11:30:30.000Z</time>
      </trkpt>
      <trkpt lat="45.08385" lon="5.78584">
        <ele>298.67</ele>
        <time>2020-09-13T11:30:35.000Z</time>
      </trkpt>
      <trkpt lat="45.08363" lon="5.78558">
        <ele>299.43</ele>
        <time>2020-09-13T11:30:40.000Z</time>
      </trkpt>
      <trkpt lat="45.08337" lon="5.78537">
        <ele>301.73</ele>
        <time>2020-09-13T11:30:45.000Z</time>
      </trkpt>
      <trkpt lat="45.08315" lon="5.78523">
        <ele>298.95</ele>
        <time>2020-09-13T11:30:50.000Z</time>
      </trkpt>
      <trkpt lat="45.08294" lon="5.785">
        <ele>301.73</ele>
        <time>2020-09-13T11:30:55.000Z</time>
      </trkpt>
      <trkpt lat="45.08276" lon="5.78473">
        <ele>298.33</ele>
        <time>2020-09-13T11:31:00.000Z</time>
      </trkpt>
      <trkpt lat="45.08256" lon="5.78451">
        <ele>292.62</ele>
        <time>2020-09-13T11:31:05.000Z</time>
      </trkpt>
      <trkpt lat="45.0824" lon="5.78427">
        <ele>292.65</ele>
        <time>2020-09-13T11:31:10.000Z</time>
      </trkpt>
      <trkpt lat="45.08222" lon="5.78405">
        <ele>288.73</ele>
        <time>2020-09-13T11:31:15.000Z</time>
      </trkpt>
      <trkpt lat="45.08202" lon="5.78367">
        <ele>291.55</ele>
        <time>2020-09-13T11:31:20.000Z</time>
      </trkpt>
      <trkpt lat="45.08183" lon="5.78339">
        <ele>291.79</ele>
        <time>2020-09-13T11:31:25.000Z</time>
      </trkpt>
      <trkpt lat="45.0816" lon="5.78309">
        <ele>291.26</ele>
        <time>2020-09-13T11:31:30.000Z</time>
      </trkpt>
      <trkpt lat="45.08137" lon="5.7829">
        <ele>289.89</ele>
        <time>2020-09-13T11:31:35.000Z</time>
      </trkpt>
      <trkpt lat="45.08112" lon="5.78272">
        <ele>286.57</ele>
        <time>2020-09-13T11:31:40.000Z</time>
      </trkpt>
      <trkpt lat="45.08087" lon="5.78248">
        <ele>286.17</ele>
        <time>2020-09-13T11:31:45.000Z</time>
      </trkpt>
      <trkpt lat="45.08061" lon="5.78232">
        <ele>287.82</ele>
        <time>2020-09-13T11:31:50.000Z</time>
      </trkpt>
      <trkpt lat="45.08036" lon="5.78218">
        <ele>287.18</ele>
        <time>2020-09-13T11:31:55.000Z</time>
      </trkpt>
      <trkpt lat="45.08012" lon="5.782">
        <ele>288.52</ele>
        <time>2020-09-13T11:32:00.000Z</time>
      </trkpt>
      <trkpt lat="45.07989" lon="5.78187">
        <ele>289.27</ele>
        <time>2020-09-13T11:32:05.000Z</time>
      </trkpt>
      <trkpt lat="45.07979" lon="5.78154">
        <ele>288.03</ele>
        <time>2020-09-13T11:32:10.000Z</time>
      </trkpt>
      <trkpt lat="45.07969" lon="5.78129">
        <ele>287.76</ele>
        <time>2020-09-13T11:32:15.000Z</time>
      </trkpt>
      <trkpt lat="45.07964" lon="5.78099">
        <ele>289.38</ele>
        <time>2020-09-13T11:32:20.000Z</time>
      </trkpt>
      <trkpt lat="45.07954" lon="5.78074">
        <ele>289.5</ele>
        <time>2020-09-13T11:32:25.000Z</time>
      </trkpt>
      <trkpt lat="45.07945" lon="5.78051">
        <ele>291</ele>
        <time>2020-09-13T11:32:30.000Z</time>
      </trkpt>
      <trkpt lat="45.07926" lon="5.78024">
        <ele>292.13</ele>
        <time>2020-09-13T11:32:35.000Z</time>
      </trkpt>
      <trkpt lat="45.07909" lon="5.78008">
        <ele>290.68</ele>
        <time>2020-09-13T11:32:40.000Z</time>
      </trkpt>
      <trkpt lat="45.07893" lon="5.77992">
        <ele>287.72</ele>
        <time>2020-09-13T11:32:45.000Z</time>
      </trkpt>
      <trkpt lat="45.0787" lon="5.77976">
        <ele>289.43</ele>
        <time>2020-09-13T11:32:50.000Z</time>
      </trkpt>
      <trkpt lat="45.07848" lon="5.77956">
        <ele>291.97</ele>
        <time>2020-09-13T11:32:55.000Z</time>
      </trkpt>
      <trkpt lat="45.07826" lon="5.77941">
        <ele>291.38</ele>
        <time>2020-09-13T11:33:00.000Z</time>
      </trkpt>
      <trkpt lat="45.07805" lon="5.77928">
        <ele>288.77</ele>
        <time>2020-09-13T11:33:05.000Z</time>
      </trkpt>
      <trkpt lat="45.0778" lon="5.77915">
        <ele>290.49</ele>
        <time>2020-09-13T11:33:10.000Z</time>
      </trkpt>
      <trkpt lat="45.07754" lon="5.77921">
        <ele>288.8</ele>
        <time>2020-09-13T11:33:15.000Z</time>
      </trkpt>
      <trkpt lat="45.07727" lon="5.77924">
        <ele>286.72</ele>
        <time>2020-09-13T11:33:20.000Z</time>
      </trkpt>
      <trkpt lat="45.07701" lon="5.77928">
        <ele>287.22</ele>
        <time>2020-09-13T11:33:25.000Z</time>
      </trkpt>
      <trkpt lat="45.0768" lon="5.77924">
        <ele>285.36</ele>
        <time>2020-09-13T11:33:30.000Z</time>
      </trkpt>
      <trkpt lat="45.07657" lon="5.77905">
        <ele>287.76</ele>
        <time>2020-09-13T11:33:35.000Z</time>
      </trkpt>
      <trkpt lat="45.07635" lon="5.77898">
        <ele>288.87</ele>
        <time>2020-09-13T11:33:40.000Z</time>
      </trkpt>
      <trkpt lat="45.0761" lon="5.77882">
        <ele>292.22</ele>
        <time>2020-09-13T11:33:45.000Z</time>
      </trkpt>
      <trkpt lat="45.07586" lon="5.77873">
        <ele>291.89</ele>
        <time>2020-09-13T11:33:50.000Z</time>
      </trkpt>
      <trkpt lat="45.07567" lon="5.77864">
        <ele>291.77</ele>
        <time>2020-09-13T11:33:55.000Z</time>
      </trkpt>
      <trkpt lat="45.07553" lon="5.77856">
        <ele>287.4</ele>
        <time>2020-09-13T11:34:00.000Z</time>
      </trkpt>
      <trkpt lat="45.07547" lon="5.77846">
        <ele>284.59</ele>
        <time>2020-09-13T11:34:05.000Z</time>
      </trkpt>
      <trkpt lat="45.07546" lon="5.77833">
        <ele>287.1</ele>
        <time>2020-09-13T11:34:21.000Z</time>
      </trkpt>
      <trkpt lat="45.07547" lon="5.77808">
        <ele>289.38</ele>
        <time>2020-09-13T11:34:26.000Z</time>
      </trkpt>
      <trkpt lat="45.0755" lon="5.77774">
        <ele>290.44</ele>
        <time>2020-09-13T11:34:31.000Z</time>
      </trkpt>
      <trkpt lat="45.07559" lon="5.77749">
        <ele>286.14</ele>
        <time>2020-09-13T11:34:36.000Z</time>
      </trkpt>
      <trkpt lat="45.07569" lon="5.77717">
        <ele>283.95</ele>
        <time>2020-09-13T11:34:41.000Z</time>
      </trkpt>
      <trkpt lat="45.07569" lon="5.77675">
        <ele>287.36</ele>
        <time>2020-09-13T11:34:46.000Z</time>
      </trkpt>
      <trkpt lat="45.07578" lon="5.77636">
        <ele>289.04</ele>
        <time>2020-09-13T11:34:51.000Z</time>
      </trkpt>
      <trkpt lat="45.07579" lon="5.776">
        <ele>285.63</ele>
        <time>2020-09-13T11:34:56.000Z</time>
      </trkpt>
      <trkpt lat="45.07581" lon="5.77561">
        <ele>285.02</ele>
        <time>2020-09-13T11:35:01.000Z</time>
      </trkpt>
      <trkpt lat="45.07584" lon="5.77511">
        <ele>286.03</ele>
        <time>2020-09-13T11:35:06.000Z</time>
      </trkpt>
      <trkpt lat="45.07591" lon="5.77474">
        <ele>281.8</ele>
        <time>2020-09-13T11:35:11.000Z</time>
      </trkpt>
      <trkpt lat="45.07597" lon="5.77435">
        <ele>281.73</ele>
        <time>2020-09-13T11:35:16.000Z</time>
      </trkpt>
      <trkpt lat="45.07608" lon="5.77403">
        <ele>279.86</ele>
        <time>2020-09-13T11:35:21.000Z</time>
      </trkpt>
      <trkpt lat="45.07617" lon="5.77371">
        <ele>278.49</ele>
        <time>2020-09-13T11:35:26.000Z</time>
      </trkpt>
      <trkpt lat="45.07632" lon="5.77339">
        <ele>278.3</ele>
        <time>2020-09-13T11:35:31.000Z</time>
      </trkpt>
      <trkpt lat="45.07633" lon="5.77271">
        <ele>278.06</ele>
        <time>2020-09-13T11:35:44.000Z</time>
      </trkpt>
      <trkpt lat="45.07603" lon="5.77276">
        <ele>278.12</ele>
        <time>2020-09-13T11:35:49.000Z</time>
      </trkpt>
      <trkpt lat="45.0758" lon="5.77253">
        <ele>280.62</ele>
        <time>2020-09-13T11:35:54.000Z</time>
      </trkpt>
      <trkpt lat="45.07562" lon="5.77237">
        <ele>279.82</ele>
        <time>2020-09-13T11:35:59.000Z</time>
      </trkpt>
      <trkpt lat="45.07551" lon="5.77211">
        <ele>278.31</ele>
        <time>2020-09-13T11:36:04.000Z</time>
      </trkpt>
      <trkpt lat="45.0753" lon="5.77193">
        <ele>281.99</ele>
        <time>2020-09-13T11:36:09.000Z</time>
      </trkpt>
      <trkpt lat="45.07506" lon="5.77205">
        <ele>279.57</ele>
        <time>2020-09-13T11:36:14.000Z</time>
      </trkpt>
      <trkpt lat="45.07485" lon="5.77196">
        <ele>279.99</ele>
        <time>2020-09-13T11:36:19.000Z</time>
      </trkpt>
      <trkpt lat="45.07483" lon="5.77158">
        <ele>278.42</ele>
        <time>2020-09-13T11:36:24.000Z</time>
      </trkpt>
      <trkpt lat="45.07464" lon="5.77154">
        <ele>277.73</ele>
        <time>2020-09-13T11:36:29.000Z</time>
      </trkpt>
      <trkpt lat="45.07437" lon="5.77164">
        <ele>281.48</ele>
        <time>2020-09-13T11:36:34.000Z</time>
      </trkpt>
      <trkpt lat="45.07411" lon="5.77181">
        <ele>281.85</ele>
        <time>2020-09-13T11:36:39.000Z</time>
      </trkpt>
      <trkpt lat="45.07385" lon="5.77188">
        <ele>280.28</ele>
        <time>2020-09-13T11:36:44.000Z</time>
      </trkpt>
      <trkpt lat="45.07359" lon="5.77201">
        <ele>279.14</ele>
        <time>2020-09-13T11:36:49.000Z</time>
      </trkpt>
      <trkpt lat="45.0734" lon="5.77192">
        <ele>279.44</ele>
        <time>2020-09-13T11:36:54.000Z</time>
      </trkpt>
      <trkpt lat="45.0733" lon="5.77163">
        <ele>278.24</ele>
        <time>2020-09-13T11:36:59.000Z</time>
      </trkpt>
      <trkpt lat="45.07314" lon="5.77135">
        <ele>276.5</ele>
        <time>2020-09-13T11:37:04.000Z</time>
      </trkpt>
      <trkpt lat="45.07289" lon="5.77135">
        <ele>277.39</ele>
        <time>2020-09-13T11:37:09.000Z</time>
      </trkpt>
      <trkpt lat="45.07265" lon="5.77146">
        <ele>278.34</ele>
        <time>2020-09-13T11:37:14.000Z</time>
      </trkpt>
      <trkpt lat="45.07241" lon="5.77148">
        <ele>276.47</ele>
        <time>2020-09-13T11:37:19.000Z</time>
      </trkpt>
      <trkpt lat="45.07214" lon="5.77157">
        <ele>278.38</ele>
        <time>2020-09-13T11:37:24.000Z</time>
      </trkpt>
      <trkpt lat="45.07186" lon="5.77175">
        <ele>281.53</ele>
        <time>2020-09-13T11:37:29.000Z</time>
      </trkpt>
      <trkpt lat="45.07161" lon="5.7718">
        <ele>282.51</ele>
        <time>2020-09-13T11:37:34.000Z</time>
      </trkpt>
      <trkpt lat="45.07133" lon="5.77186">
        <ele>281.21</ele>
        <time>2020-09-13T11:37:39.000Z</time>
      </trkpt>
      <trkpt lat="45.07111" lon="5.77189">
        <ele>279.86</ele>
        <time>2020-09-13T11:37:44.000Z</time>
      </trkpt>
      <trkpt lat="45.07081" lon="5.77168">
        <ele>276.65</ele>
        <time>2020-09-13T11:37:49.000Z</time>
      </trkpt>
      <trkpt lat="45.07053" lon="5.77156">
        <ele>276.21</ele>
        <time>2020-09-13T11:37:54.000Z</time>
      </trkpt>
      <trkpt lat="45.0703" lon="5.7714">
        <ele>277.3</ele>
        <time>2020-09-13T11:37:59.000Z</time>
      </trkpt>
      <trkpt lat="45.07011" lon="5.7712">
        <ele>277.17</ele>
        <time>2020-09-13T11:38:04.000Z</time>
      </trkpt>
      <trkpt lat="45.06987" lon="5.77085">
        <ele>280.59</ele>
        <time>2020-09-13T11:38:09.000Z</time>
      </trkpt>
      <trkpt lat="45.06966" lon="5.7708">
        <ele>280.71</ele>
        <time>2020-09-13T11:38:14.000Z</time>
      </trkpt>
      <trkpt lat="45.06939" lon="5.77078">
        <ele>281.35</ele>
        <time>2020-09-13T11:38:19.000Z</time>
      </trkpt>
      <trkpt lat="45.06907" lon="5.7707">
        <ele>285.59</ele>
        <time>2020-09-13T11:38:24.000Z</time>
      </trkpt>
      <trkpt lat="45.06878" lon="5.77061">
        <ele>285.68</ele>
        <time>2020-09-13T11:38:29.000Z</time>
      </trkpt>
      <trkpt lat="45.0685" lon="5.7706">
        <ele>286.73</ele>
        <time>2020-09-13T11:38:34.000Z</time>
      </trkpt>
      <trkpt lat="45.06828" lon="5.77025">
        <ele>288.61</ele>
        <time>2020-09-13T11:38:39.000Z</time>
      </trkpt>
      <trkpt lat="45.06798" lon="5.77012">
        <ele>290.09</ele>
        <time>2020-09-13T11:38:44.000Z</time>
      </trkpt>
      <trkpt lat="45.06773" lon="5.7699">
        <ele>292.33</ele>
        <time>2020-09-13T11:38:49.000Z</time>
      </trkpt>
      <trkpt lat="45.06748" lon="5.76962">
        <ele>292.65</ele>
        <time>2020-09-13T11:38:54.000Z</time>
      </trkpt>
      <trkpt lat="45.06725" lon="5.76952">
        <ele>296.18</ele>
        <time>2020-09-13T11:38:59.000Z</time>
      </trkpt>
      <trkpt lat="45.06701" lon="5.76937">
        <ele>296.41</ele>
        <time>2020-09-13T11:39:04.000Z</time>
      </trkpt>
      <trkpt lat="45.06671" lon="5.7692">
        <ele>297.12</ele>
        <time>2020-09-13T11:39:09.000Z</time>
      </trkpt>
      <trkpt lat="45.06643" lon="5.76899">
        <ele>296.93</ele>
        <time>2020-09-13T11:39:14.000Z</time>
      </trkpt>
      <trkpt lat="45.06605" lon="5.76877">
        <ele>296.28</ele>
        <time>2020-09-13T11:39:19.000Z</time>
      </trkpt>
      <trkpt lat="45.06583" lon="5.76866">
        <ele>296.13</ele>
        <time>2020-09-13T11:39:24.000Z</time>
      </trkpt>
      <trkpt lat="45.06552" lon="5.76857">
        <ele>297.76</ele>
        <time>2020-09-13T11:39:29.000Z</time>
      </trkpt>
      <trkpt lat="45.06529" lon="5.76835">
        <ele>296.14</ele>
        <time>2020-09-13T11:39:34.000Z</time>
      </trkpt>
      <trkpt lat="45.06505" lon="5.76811">
        <ele>295.69</ele>
        <time>2020-09-13T11:39:39.000Z</time>
      </trkpt>
      <trkpt lat="45.06476" lon="5.76788">
        <ele>295.07</ele>
        <time>2020-09-13T11:39:46.000Z</time>
      </trkpt>
      <trkpt lat="45.06434" lon="5.76744">
        <ele>296.49</ele>
        <time>2020-09-13T11:39:51.000Z</time>
      </trkpt>
      <trkpt lat="45.06403" lon="5.76744">
        <ele>295.99</ele>
        <time>2020-09-13T11:39:56.000Z</time>
      </trkpt>
      <trkpt lat="45.06375" lon="5.76726">
        <ele>297.23</ele>
        <time>2020-09-13T11:40:01.000Z</time>
      </trkpt>
      <trkpt lat="45.06353" lon="5.76726">
        <ele>298.5</ele>
        <time>2020-09-13T11:40:06.000Z</time>
      </trkpt>
      <trkpt lat="45.06316" lon="5.76725">
        <ele>301.83</ele>
        <time>2020-09-13T11:40:11.000Z</time>
      </trkpt>
      <trkpt lat="45.06283" lon="5.76713">
        <ele>301.72</ele>
        <time>2020-09-13T11:40:16.000Z</time>
      </trkpt>
      <trkpt lat="45.06245" lon="5.76711">
        <ele>300.88</ele>
        <time>2020-09-13T11:40:21.000Z</time>
      </trkpt>
      <trkpt lat="45.06222" lon="5.76728">
        <ele>296.87</ele>
        <time>2020-09-13T11:40:26.000Z</time>
      </trkpt>
      <trkpt lat="45.06191" lon="5.76738">
        <ele>297.48</ele>
        <time>2020-09-13T11:40:31.000Z</time>
      </trkpt>
      <trkpt lat="45.06159" lon="5.76736">
        <ele>296.32</ele>
        <time>2020-09-13T11:40:36.000Z</time>
      </trkpt>
      <trkpt lat="45.06124" lon="5.76766">
        <ele>295.86</ele>
        <time>2020-09-13T11:40:41.000Z</time>
      </trkpt>
      <trkpt lat="45.06096" lon="5.76759">
        <ele>286.78</ele>
        <time>2020-09-13T11:40:46.000Z</time>
      </trkpt>
      <trkpt lat="45.06064" lon="5.76775">
        <ele>289.61</ele>
        <time>2020-09-13T11:40:51.000Z</time>
      </trkpt>
      <trkpt lat="45.06032" lon="5.76757">
        <ele>295.91</ele>
        <time>2020-09-13T11:40:56.000Z</time>
      </trkpt>
      <trkpt lat="45.05995" lon="5.76772">
        <ele>295.96</ele>
        <time>2020-09-13T11:41:01.000Z</time>
      </trkpt>
      <trkpt lat="45.05971" lon="5.7675">
        <ele>295.42</ele>
        <time>2020-09-13T11:41:06.000Z</time>
      </trkpt>
      <trkpt lat="45.05944" lon="5.7677">
        <ele>297.82</ele>
        <time>2020-09-13T11:41:11.000Z</time>
      </trkpt>
      <trkpt lat="45.05936" lon="5.76793">
        <ele>295.47</ele>
        <time>2020-09-13T11:41:16.000Z</time>
      </trkpt>
      <trkpt lat="45.05921" lon="5.76782">
        <ele>293.22</ele>
        <time>2020-09-13T11:41:21.000Z</time>
      </trkpt>
      <trkpt lat="45.05918" lon="5.76794">
        <ele>292.92</ele>
        <time>2020-09-13T11:41:34.000Z</time>
      </trkpt>
      <trkpt lat="45.05915" lon="5.76807">
        <ele>296.33</ele>
        <time>2020-09-13T11:42:09.000Z</time>
      </trkpt>
      <trkpt lat="45.05901" lon="5.76829">
        <ele>295.67</ele>
        <time>2020-09-13T11:42:14.000Z</time>
      </trkpt>
      <trkpt lat="45.0588" lon="5.76864">
        <ele>289.99</ele>
        <time>2020-09-13T11:42:19.000Z</time>
      </trkpt>
      <trkpt lat="45.05863" lon="5.76894">
        <ele>292.32</ele>
        <time>2020-09-13T11:42:24.000Z</time>
      </trkpt>
      <trkpt lat="45.05844" lon="5.76928">
        <ele>295.6</ele>
        <time>2020-09-13T11:42:29.000Z</time>
      </trkpt>
      <trkpt lat="45.05826" lon="5.76955">
        <ele>294</ele>
        <time>2020-09-13T11:42:34.000Z</time>
      </trkpt>
      <trkpt lat="45.05809" lon="5.76981">
        <ele>291.37</ele>
        <time>2020-09-13T11:42:39.000Z</time>
      </trkpt>
      <trkpt lat="45.05793" lon="5.77012">
        <ele>292.89</ele>
        <time>2020-09-13T11:42:44.000Z</time>
      </trkpt>
      <trkpt lat="45.05772" lon="5.77042">
        <ele>293.29</ele>
        <time>2020-09-13T11:42:49.000Z</time>
      </trkpt>
      <trkpt lat="45.05751" lon="5.77067">
        <ele>293.4</ele>
        <time>2020-09-13T11:42:54.000Z</time>
      </trkpt>
      <trkpt lat="45.05733" lon="5.77094">
        <ele>290.86</ele>
        <time>2020-09-13T11:42:59.000Z</time>
      </trkpt>
      <trkpt lat="45.05713" lon="5.77131">
        <ele>291.75</ele>
        <time>2020-09-13T11:43:04.000Z</time>
      </trkpt>
      <trkpt lat="45.05692" lon="5.77158">
        <ele>291.51</ele>
        <time>2020-09-13T11:43:09.000Z</time>
      </trkpt>
      <trkpt lat="45.05677" lon="5.77181">
        <ele>292.99</ele>
        <time>2020-09-13T11:43:14.000Z</time>
      </trkpt>
      <trkpt lat="45.05663" lon="5.77203">
        <ele>294.02</ele>
        <time>2020-09-13T11:43:19.000Z</time>
      </trkpt>
      <trkpt lat="45.05645" lon="5.77233">
        <ele>295.33</ele>
        <time>2020-09-13T11:43:24.000Z</time>
      </trkpt>
      <trkpt lat="45.05633" lon="5.77262">
        <ele>297.72</ele>
        <time>2020-09-13T11:43:29.000Z</time>
      </trkpt>
      <trkpt lat="45.05617" lon="5.77292">
        <ele>298.35</ele>
        <time>2020-09-13T11:43:34.000Z</time>
      </trkpt>
      <trkpt lat="45.05602" lon="5.77314">
        <ele>299.18</ele>
        <time>2020-09-13T11:43:39.000Z</time>
      </trkpt>
      <trkpt lat="45.05584" lon="5.77343">
        <ele>298.64</ele>
        <time>2020-09-13T11:43:44.000Z</time>
      </trkpt>
      <trkpt lat="45.05562" lon="5.77371">
        <ele>298.99</ele>
        <time>2020-09-13T11:43:49.000Z</time>
      </trkpt>
      <trkpt lat="45.05542" lon="5.7741">
        <ele>300.65</ele>
        <time>2020-09-13T11:43:54.000Z</time>
      </trkpt>
      <trkpt lat="45.05521" lon="5.77425">
        <ele>299.27</ele>
        <time>2020-09-13T11:43:59.000Z</time>
      </trkpt>
      <trkpt lat="45.05504" lon="5.77455">
        <ele>296.61</ele>
        <time>2020-09-13T11:44:04.000Z</time>
      </trkpt>
      <trkpt lat="45.05484" lon="5.7748">
        <ele>296.5</ele>
        <time>2020-09-13T11:44:09.000Z</time>
      </trkpt>
      <trkpt lat="45.05472" lon="5.77524">
        <ele>294.64</ele>
        <time>2020-09-13T11:44:14.000Z</time>
      </trkpt>
      <trkpt lat="45.05451" lon="5.77553">
        <ele>296.31</ele>
        <time>2020-09-13T11:44:19.000Z</time>
      </trkpt>
      <trkpt lat="45.05433" lon="5.77588">
        <ele>301.66</ele>
        <time>2020-09-13T11:44:24.000Z</time>
      </trkpt>
      <trkpt lat="45.05413" lon="5.77625">
        <ele>304.18</ele>
        <time>2020-09-13T11:44:29.000Z</time>
      </trkpt>
      <trkpt lat="45.05396" lon="5.77661">
        <ele>305.18</ele>
        <time>2020-09-13T11:44:34.000Z</time>
      </trkpt>
      <trkpt lat="45.05377" lon="5.77692">
        <ele>304.96</ele>
        <time>2020-09-13T11:44:39.000Z</time>
      </trkpt>
      <trkpt lat="45.05351" lon="5.77718">
        <ele>300.51</ele>
        <time>2020-09-13T11:44:44.000Z</time>
      </trkpt>
      <trkpt lat="45.05325" lon="5.77738">
        <ele>300.97</ele>
        <time>2020-09-13T11:44:49.000Z</time>
      </trkpt>
      <trkpt lat="45.05311" lon="5.7777">
        <ele>299.98</ele>
        <time>2020-09-13T11:44:54.000Z</time>
      </trkpt>
      <trkpt lat="45.05293" lon="5.77805">
        <ele>298.05</ele>
        <time>2020-09-13T11:44:59.000Z</time>
      </trkpt>
      <trkpt lat="45.05277" lon="5.77845">
        <ele>298.24</ele>
        <time>2020-09-13T11:45:04.000Z</time>
      </trkpt>
      <trkpt lat="45.05254" lon="5.77881">
        <ele>299.19</ele>
        <time>2020-09-13T11:45:09.000Z</time>
      </trkpt>
      <trkpt lat="45.05239" lon="5.77919">
        <ele>298.07</ele>
        <time>2020-09-13T11:45:14.000Z</time>
      </trkpt>
      <trkpt lat="45.05218" lon="5.77949">
        <ele>295.57</ele>
        <time>2020-09-13T11:45:19.000Z</time>
      </trkpt>
      <trkpt lat="45.05203" lon="5.77985">
        <ele>294.92</ele>
        <time>2020-09-13T11:45:24.000Z</time>
      </trkpt>
      <trkpt lat="45.05171" lon="5.7801">
        <ele>297.72</ele>
        <time>2020-09-13T11:45:29.000Z</time>
      </trkpt>
      <trkpt lat="45.05161" lon="5.78047">
        <ele>298.71</ele>
        <time>2020-09-13T11:45:34.000Z</time>
      </trkpt>
      <trkpt lat="45.05136" lon="5.78076">
        <ele>299.74</ele>
        <time>2020-09-13T11:45:39.000Z</time>
      </trkpt>
      <trkpt lat="45.05121" lon="5.78112">
        <ele>301.84</ele>
        <time>2020-09-13T11:45:44.000Z</time>
      </trkpt>
      <trkpt lat="45.05106" lon="5.78148">
        <ele>302.96</ele>
        <time>2020-09-13T11:45:49.000Z</time>
      </trkpt>
      <trkpt lat="45.05099" lon="5.78187">
        <ele>303.27</ele>
        <time>2020-09-13T11:45:54.000Z</time>
      </trkpt>
      <trkpt lat="45.05072" lon="5.78208">
        <ele>301.82</ele>
        <time>2020-09-13T11:45:59.000Z</time>
      </trkpt>
      <trkpt lat="45.0505" lon="5.78237">
        <ele>301.81</ele>
        <time>2020-09-13T11:46:04.000Z</time>
      </trkpt>
      <trkpt lat="45.05032" lon="5.78267">
        <ele>300.47</ele>
        <time>2020-09-13T11:46:09.000Z</time>
      </trkpt>
      <trkpt lat="45.05014" lon="5.78299">
        <ele>300.67</ele>
        <time>2020-09-13T11:46:14.000Z</time>
      </trkpt>
      <trkpt lat="45.05" lon="5.78339">
        <ele>300.65</ele>
        <time>2020-09-13T11:46:19.000Z</time>
      </trkpt>
      <trkpt lat="45.04997" lon="5.7838">
        <ele>301.38</ele>
        <time>2020-09-13T11:46:24.000Z</time>
      </trkpt>
      <trkpt lat="45.04985" lon="5.78418">
        <ele>301.99</ele>
        <time>2020-09-13T11:46:29.000Z</time>
      </trkpt>
      <trkpt lat="45.0498" lon="5.78461">
        <ele>302.46</ele>
        <time>2020-09-13T11:46:34.000Z</time>
      </trkpt>
      <trkpt lat="45.04977" lon="5.78504">
        <ele>303.9</ele>
        <time>2020-09-13T11:46:39.000Z</time>
      </trkpt>
      <trkpt lat="45.04976" lon="5.78548">
        <ele>306.06</ele>
        <time>2020-09-13T11:46:44.000Z</time>
      </trkpt>
      <trkpt lat="45.04973" lon="5.78588">
        <ele>308.07</ele>
        <time>2020-09-13T11:46:49.000Z</time>
      </trkpt>
      <trkpt lat="45.04971" lon="5.78625">
        <ele>308.5</ele>
        <time>2020-09-13T11:46:54.000Z</time>
      </trkpt>
      <trkpt lat="45.04974" lon="5.78665">
        <ele>307.97</ele>
        <time>2020-09-13T11:46:59.000Z</time>
      </trkpt>
      <trkpt lat="45.04982" lon="5.7871">
        <ele>313.05</ele>
        <time>2020-09-13T11:47:04.000Z</time>
      </trkpt>
      <trkpt lat="45.04978" lon="5.78752">
        <ele>312.3</ele>
        <time>2020-09-13T11:47:09.000Z</time>
      </trkpt>
      <trkpt lat="45.04983" lon="5.7879">
        <ele>314.1</ele>
        <time>2020-09-13T11:47:14.000Z</time>
      </trkpt>
      <trkpt lat="45.0499" lon="5.78828">
        <ele>315.44</ele>
        <time>2020-09-13T11:47:19.000Z</time>
      </trkpt>
      <trkpt lat="45.04996" lon="5.78866">
        <ele>316.83</ele>
        <time>2020-09-13T11:47:24.000Z</time>
      </trkpt>
      <trkpt lat="45.04999" lon="5.78903">
        <ele>319</ele>
        <time>2020-09-13T11:47:29.000Z</time>
      </trkpt>
      <trkpt lat="45.0501" lon="5.78936">
        <ele>319.7</ele>
        <time>2020-09-13T11:47:34.000Z</time>
      </trkpt>
      <trkpt lat="45.05027" lon="5.78966">
        <ele>319.07</ele>
        <time>2020-09-13T11:47:39.000Z</time>
      </trkpt>
      <trkpt lat="45.05053" lon="5.7898">
        <ele>321.77</ele>
        <time>2020-09-13T11:47:44.000Z</time>
      </trkpt>
      <trkpt lat="45.05067" lon="5.79019">
        <ele>323.3</ele>
        <time>2020-09-13T11:47:49.000Z</time>
      </trkpt>
      <trkpt lat="45.05086" lon="5.79054">
        <ele>322.86</ele>
        <time>2020-09-13T11:47:54.000Z</time>
      </trkpt>
      <trkpt lat="45.05086" lon="5.79068">
        <ele>320.24</ele>
        <time>2020-09-13T11:47:59.000Z</time>
      </trkpt>
      <trkpt lat="45.05105" lon="5.79095">
        <ele>314.98</ele>
        <time>2020-09-13T11:48:04.000Z</time>
      </trkpt>
      <trkpt lat="45.05129" lon="5.79124">
        <ele>314.41</ele>
        <time>2020-09-13T11:48:09.000Z</time>
      </trkpt>
      <trkpt lat="45.05125" lon="5.79171">
        <ele>313.13</ele>
        <time>2020-09-13T11:48:14.000Z</time>
      </trkpt>
      <trkpt lat="45.05137" lon="5.79196">
        <ele>307.82</ele>
        <time>2020-09-13T11:48:19.000Z</time>
      </trkpt>
      <trkpt lat="45.05153" lon="5.7923">
        <ele>308.12</ele>
        <time>2020-09-13T11:48:24.000Z</time>
      </trkpt>
      <trkpt lat="45.0517" lon="5.7925">
        <ele>305.41</ele>
        <time>2020-09-13T11:48:29.000Z</time>
      </trkpt>
      <trkpt lat="45.05189" lon="5.79278">
        <ele>307.46</ele>
        <time>2020-09-13T11:48:34.000Z</time>
      </trkpt>
      <trkpt lat="45.05212" lon="5.793">
        <ele>306.71</ele>
        <time>2020-09-13T11:48:39.000Z</time>
      </trkpt>
      <trkpt lat="45.05224" lon="5.79331">
        <ele>306.14</ele>
        <time>2020-09-13T11:48:44.000Z</time>
      </trkpt>
      <trkpt lat="45.05242" lon="5.7936">
        <ele>308.64</ele>
        <time>2020-09-13T11:48:49.000Z</time>
      </trkpt>
      <trkpt lat="45.05251" lon="5.79393">
        <ele>308.55</ele>
        <time>2020-09-13T11:48:54.000Z</time>
      </trkpt>
      <trkpt lat="45.05267" lon="5.79413">
        <ele>307.31</ele>
        <time>2020-09-13T11:48:59.000Z</time>
      </trkpt>
      <trkpt lat="45.05274" lon="5.79431">
        <ele>303.95</ele>
        <time>2020-09-13T11:49:04.000Z</time>
      </trkpt>
      <trkpt lat="45.05287" lon="5.79469">
        <ele>303.43</ele>
        <time>2020-09-13T11:49:09.000Z</time>
      </trkpt>
      <trkpt lat="45.05308" lon="5.79492">
        <ele>302.66</ele>
        <time>2020-09-13T11:49:14.000Z</time>
      </trkpt>
      <trkpt lat="45.05321" lon="5.79523">
        <ele>303.5</ele>
        <time>2020-09-13T11:49:19.000Z</time>
      </trkpt>
      <trkpt lat="45.05335" lon="5.79566">
        <ele>305.61</ele>
        <time>2020-09-13T11:49:24.000Z</time>
      </trkpt>
      <trkpt lat="45.05349" lon="5.79589">
        <ele>305.42</ele>
        <time>2020-09-13T11:49:29.000Z</time>
      </trkpt>
      <trkpt lat="45.05372" lon="5.79631">
        <ele>307.79</ele>
        <time>2020-09-13T11:49:34.000Z</time>
      </trkpt>
      <trkpt lat="45.0539" lon="5.79669">
        <ele>314.96</ele>
        <time>2020-09-13T11:49:39.000Z</time>
      </trkpt>
      <trkpt lat="45.05402" lon="5.79705">
        <ele>313.33</ele>
        <time>2020-09-13T11:49:44.000Z</time>
      </trkpt>
      <trkpt lat="45.05418" lon="5.7973">
        <ele>310.24</ele>
        <time>2020-09-13T11:49:49.000Z</time>
      </trkpt>
      <trkpt lat="45.0543" lon="5.79765">
        <ele>310.26</ele>
        <time>2020-09-13T11:49:54.000Z</time>
      </trkpt>
      <trkpt lat="45.05447" lon="5.79801">
        <ele>305.87</ele>
        <time>2020-09-13T11:49:59.000Z</time>
      </trkpt>
      <trkpt lat="45.05446" lon="5.79844">
        <ele>309.95</ele>
        <time>2020-09-13T11:50:04.000Z</time>
      </trkpt>
      <trkpt lat="45.05444" lon="5.79872">
        <ele>311.57</ele>
        <time>2020-09-13T11:50:09.000Z</time>
      </trkpt>
      <trkpt lat="45.0542" lon="5.79909">
        <ele>312.88</ele>
        <time>2020-09-13T11:50:14.000Z</time>
      </trkpt>
      <trkpt lat="45.05412" lon="5.79956">
        <ele>314.53</ele>
        <time>2020-09-13T11:50:19.000Z</time>
      </trkpt>
      <trkpt lat="45.05407" lon="5.80007">
        <ele>315.43</ele>
        <time>2020-09-13T11:50:24.000Z</time>
      </trkpt>
      <trkpt lat="45.05395" lon="5.80048">
        <ele>315.32</ele>
        <time>2020-09-13T11:50:29.000Z</time>
      </trkpt>
      <trkpt lat="45.05382" lon="5.80094">
        <ele>314.13</ele>
        <time>2020-09-13T11:50:34.000Z</time>
      </trkpt>
      <trkpt lat="45.05376" lon="5.80132">
        <ele>315.78</ele>
        <time>2020-09-13T11:50:39.000Z</time>
      </trkpt>
      <trkpt lat="45.05371" lon="5.80172">
        <ele>312.78</ele>
        <time>2020-09-13T11:50:44.000Z</time>
      </trkpt>
      <trkpt lat="45.05362" lon="5.80209">
        <ele>314.14</ele>
        <time>2020-09-13T11:50:49.000Z</time>
      </trkpt>
      <trkpt lat="45.0535" lon="5.80251">
        <ele>318.17</ele>
        <time>2020-09-13T11:50:54.000Z</time>
      </trkpt>
      <trkpt lat="45.05337" lon="5.8029">
        <ele>320.48</ele>
        <time>2020-09-13T11:50:59.000Z</time>
      </trkpt>
      <trkpt lat="45.05334" lon="5.80333">
        <ele>322.37</ele>
        <time>2020-09-13T11:51:04.000Z</time>
      </trkpt>
      <trkpt lat="45.0533" lon="5.80373">
        <ele>323.92</ele>
        <time>2020-09-13T11:51:09.000Z</time>
      </trkpt>
      <trkpt lat="45.05328" lon="5.80409">
        <ele>326.2</ele>
        <time>2020-09-13T11:51:14.000Z</time>
      </trkpt>
      <trkpt lat="45.05327" lon="5.80451">
        <ele>326.01</ele>
        <time>2020-09-13T11:51:19.000Z</time>
      </trkpt>
      <trkpt lat="45.05334" lon="5.80483">
        <ele>323.91</ele>
        <time>2020-09-13T11:51:24.000Z</time>
      </trkpt>
      <trkpt lat="45.05338" lon="5.80513">
        <ele>324.09</ele>
        <time>2020-09-13T11:51:29.000Z</time>
      </trkpt>
      <trkpt lat="45.0535" lon="5.80555">
        <ele>325.11</ele>
        <time>2020-09-13T11:51:34.000Z</time>
      </trkpt>
      <trkpt lat="45.05362" lon="5.80593">
        <ele>323.74</ele>
        <time>2020-09-13T11:51:39.000Z</time>
      </trkpt>
      <trkpt lat="45.05372" lon="5.80627">
        <ele>326.9</ele>
        <time>2020-09-13T11:51:44.000Z</time>
      </trkpt>
      <trkpt lat="45.05383" lon="5.80665">
        <ele>328.07</ele>
        <time>2020-09-13T11:51:49.000Z</time>
      </trkpt>
      <trkpt lat="45.05389" lon="5.80696">
        <ele>331.65</ele>
        <time>2020-09-13T11:51:54.000Z</time>
      </trkpt>
      <trkpt lat="45.05398" lon="5.80731">
        <ele>332.96</ele>
        <time>2020-09-13T11:51:59.000Z</time>
      </trkpt>
      <trkpt lat="45.05402" lon="5.80766">
        <ele>336.03</ele>
        <time>2020-09-13T11:52:04.000Z</time>
      </trkpt>
      <trkpt lat="45.0542" lon="5.80803">
        <ele>337.77</ele>
        <time>2020-09-13T11:52:09.000Z</time>
      </trkpt>
      <trkpt lat="45.05437" lon="5.80837">
        <ele>335.8</ele>
        <time>2020-09-13T11:52:14.000Z</time>
      </trkpt>
      <trkpt lat="45.05442" lon="5.80871">
        <ele>338.27</ele>
        <time>2020-09-13T11:52:19.000Z</time>
      </trkpt>
      <trkpt lat="45.05445" lon="5.80905">
        <ele>338.27</ele>
        <time>2020-09-13T11:52:24.000Z</time>
      </trkpt>
      <trkpt lat="45.05473" lon="5.8094">
        <ele>337.73</ele>
        <time>2020-09-13T11:52:29.000Z</time>
      </trkpt>
      <trkpt lat="45.05479" lon="5.80987">
        <ele>332.68</ele>
        <time>2020-09-13T11:52:34.000Z</time>
      </trkpt>
      <trkpt lat="45.05479" lon="5.81015">
        <ele>346.71</ele>
        <time>2020-09-13T11:52:39.000Z</time>
      </trkpt>
      <trkpt lat="45.05481" lon="5.81057">
        <ele>347.96</ele>
        <time>2020-09-13T11:52:44.000Z</time>
      </trkpt>
      <trkpt lat="45.05481" lon="5.8111">
        <ele>350.99</ele>
        <time>2020-09-13T11:52:49.000Z</time>
      </trkpt>
      <trkpt lat="45.05445" lon="5.81153">
        <ele>350.21</ele>
        <time>2020-09-13T11:52:54.000Z</time>
      </trkpt>
      <trkpt lat="45.05431" lon="5.81213">
        <ele>351.47</ele>
        <time>2020-09-13T11:52:59.000Z</time>
      </trkpt>
      <trkpt lat="45.05422" lon="5.81269">
        <ele>349.62</ele>
        <time>2020-09-13T11:53:04.000Z</time>
      </trkpt>
      <trkpt lat="45.05402" lon="5.81318">
        <ele>347.04</ele>
        <time>2020-09-13T11:53:09.000Z</time>
      </trkpt>
      <trkpt lat="45.0541" lon="5.81389">
        <ele>346.42</ele>
        <time>2020-09-13T11:53:14.000Z</time>
      </trkpt>
      <trkpt lat="45.05407" lon="5.81457">
        <ele>346.16</ele>
        <time>2020-09-13T11:53:19.000Z</time>
      </trkpt>
      <trkpt lat="45.05412" lon="5.81529">
        <ele>346.98</ele>
        <time>2020-09-13T11:53:24.000Z</time>
      </trkpt>
      <trkpt lat="45.05393" lon="5.81584">
        <ele>342.25</ele>
        <time>2020-09-13T11:53:29.000Z</time>
      </trkpt>
      <trkpt lat="45.05397" lon="5.81637">
        <ele>340.87</ele>
        <time>2020-09-13T11:53:34.000Z</time>
      </trkpt>
      <trkpt lat="45.05393" lon="5.81689">
        <ele>337.73</ele>
        <time>2020-09-13T11:53:39.000Z</time>
      </trkpt>
      <trkpt lat="45.0539" lon="5.8173">
        <ele>336.55</ele>
        <time>2020-09-13T11:53:44.000Z</time>
      </trkpt>
      <trkpt lat="45.05396" lon="5.8178">
        <ele>336.56</ele>
        <time>2020-09-13T11:53:49.000Z</time>
      </trkpt>
      <trkpt lat="45.05393" lon="5.81818">
        <ele>336.61</ele>
        <time>2020-09-13T11:53:54.000Z</time>
      </trkpt>
      <trkpt lat="45.05389" lon="5.8186">
        <ele>337.43</ele>
        <time>2020-09-13T11:53:59.000Z</time>
      </trkpt>
      <trkpt lat="45.05385" lon="5.81905">
        <ele>337.89</ele>
        <time>2020-09-13T11:54:04.000Z</time>
      </trkpt>
      <trkpt lat="45.0537" lon="5.81939">
        <ele>335.26</ele>
        <time>2020-09-13T11:54:09.000Z</time>
      </trkpt>
      <trkpt lat="45.05366" lon="5.81973">
        <ele>335.67</ele>
        <time>2020-09-13T11:54:14.000Z</time>
      </trkpt>
      <trkpt lat="45.05351" lon="5.82003">
        <ele>335.97</ele>
        <time>2020-09-13T11:54:19.000Z</time>
      </trkpt>
      <trkpt lat="45.05335" lon="5.82035">
        <ele>335.08</ele>
        <time>2020-09-13T11:54:24.000Z</time>
      </trkpt>
      <trkpt lat="45.05315" lon="5.82061">
        <ele>332.25</ele>
        <time>2020-09-13T11:54:29.000Z</time>
      </trkpt>
      <trkpt lat="45.05303" lon="5.82087">
        <ele>334.22</ele>
        <time>2020-09-13T11:54:34.000Z</time>
      </trkpt>
      <trkpt lat="45.053" lon="5.82132">
        <ele>334.66</ele>
        <time>2020-09-13T11:54:39.000Z</time>
      </trkpt>
      <trkpt lat="45.05316" lon="5.82175">
        <ele>329.99</ele>
        <time>2020-09-13T11:54:44.000Z</time>
      </trkpt>
      <trkpt lat="45.05335" lon="5.82195">
        <ele>328.74</ele>
        <time>2020-09-13T11:54:49.000Z</time>
      </trkpt>
      <trkpt lat="45.05348" lon="5.82219">
        <ele>328.16</ele>
        <time>2020-09-13T11:54:54.000Z</time>
      </trkpt>
      <trkpt lat="45.05353" lon="5.8225">
        <ele>328.91</ele>
        <time>2020-09-13T11:54:59.000Z</time>
      </trkpt>
      <trkpt lat="45.05353" lon="5.82293">
        <ele>331.8</ele>
        <time>2020-09-13T11:55:04.000Z</time>
      </trkpt>
      <trkpt lat="45.05342" lon="5.82327">
        <ele>331.44</ele>
        <time>2020-09-13T11:55:09.000Z</time>
      </trkpt>
      <trkpt lat="45.05332" lon="5.82365">
        <ele>330.62</ele>
        <time>2020-09-13T11:55:14.000Z</time>
      </trkpt>
      <trkpt lat="45.05329" lon="5.82391">
        <ele>332.58</ele>
        <time>2020-09-13T11:55:19.000Z</time>
      </trkpt>
      <trkpt lat="45.05328" lon="5.82438">
        <ele>336.04</ele>
        <time>2020-09-13T11:55:24.000Z</time>
      </trkpt>
      <trkpt lat="45.05322" lon="5.8248">
        <ele>338.21</ele>
        <time>2020-09-13T11:55:29.000Z</time>
      </trkpt>
      <trkpt lat="45.05322" lon="5.82515">
        <ele>335.94</ele>
        <time>2020-09-13T11:55:34.000Z</time>
      </trkpt>
      <trkpt lat="45.0532" lon="5.82551">
        <ele>337.24</ele>
        <time>2020-09-13T11:55:39.000Z</time>
      </trkpt>
      <trkpt lat="45.05318" lon="5.82586">
        <ele>339.26</ele>
        <time>2020-09-13T11:55:44.000Z</time>
      </trkpt>
      <trkpt lat="45.05324" lon="5.8263">
        <ele>340.78</ele>
        <time>2020-09-13T11:55:49.000Z</time>
      </trkpt>
      <trkpt lat="45.05326" lon="5.8267">
        <ele>341.96</ele>
        <time>2020-09-13T11:55:54.000Z</time>
      </trkpt>
      <trkpt lat="45.05336" lon="5.82712">
        <ele>342.89</ele>
        <time>2020-09-13T11:55:59.000Z</time>
      </trkpt>
      <trkpt lat="45.05337" lon="5.82748">
        <ele>344.05</ele>
        <time>2020-09-13T11:56:04.000Z</time>
      </trkpt>
      <trkpt lat="45.05339" lon="5.82786">
        <ele>345.63</ele>
        <time>2020-09-13T11:56:09.000Z</time>
      </trkpt>
      <trkpt lat="45.05339" lon="5.82822">
        <ele>343.77</ele>
        <time>2020-09-13T11:56:14.000Z</time>
      </trkpt>
      <trkpt lat="45.05342" lon="5.82859">
        <ele>345.63</ele>
        <time>2020-09-13T11:56:19.000Z</time>
      </trkpt>
      <trkpt lat="45.05339" lon="5.8289">
        <ele>347.73</ele>
        <time>2020-09-13T11:56:24.000Z</time>
      </trkpt>
      <trkpt lat="45.05345" lon="5.82928">
        <ele>346.44</ele>
        <time>2020-09-13T11:56:29.000Z</time>
      </trkpt>
      <trkpt lat="45.05345" lon="5.82968">
        <ele>347.91</ele>
        <time>2020-09-13T11:56:34.000Z</time>
      </trkpt>
      <trkpt lat="45.05347" lon="5.83014">
        <ele>348.16</ele>
        <time>2020-09-13T11:56:39.000Z</time>
      </trkpt>
      <trkpt lat="45.05346" lon="5.83052">
        <ele>348.34</ele>
        <time>2020-09-13T11:56:44.000Z</time>
      </trkpt>
      <trkpt lat="45.05349" lon="5.83096">
        <ele>349.73</ele>
        <time>2020-09-13T11:56:49.000Z</time>
      </trkpt>
      <trkpt lat="45.05353" lon="5.83141">
        <ele>350.94</ele>
        <time>2020-09-13T11:56:54.000Z</time>
      </trkpt>
      <trkpt lat="45.05356" lon="5.83184">
        <ele>353.48</ele>
        <time>2020-09-13T11:56:59.000Z</time>
      </trkpt>
      <trkpt lat="45.05356" lon="5.83227">
        <ele>353.87</ele>
        <time>2020-09-13T11:57:04.000Z</time>
      </trkpt>
      <trkpt lat="45.05361" lon="5.83272">
        <ele>354.58</ele>
        <time>2020-09-13T11:57:09.000Z</time>
      </trkpt>
      <trkpt lat="45.05352" lon="5.83305">
        <ele>353.62</ele>
        <time>2020-09-13T11:57:14.000Z</time>
      </trkpt>
      <trkpt lat="45.05345" lon="5.83335">
        <ele>353.46</ele>
        <time>2020-09-13T11:57:19.000Z</time>
      </trkpt>
      <trkpt lat="45.05357" lon="5.83385">
        <ele>354.49</ele>
        <time>2020-09-13T11:57:24.000Z</time>
      </trkpt>
      <trkpt lat="45.0536" lon="5.8343">
        <ele>355</ele>
        <time>2020-09-13T11:57:29.000Z</time>
      </trkpt>
      <trkpt lat="45.05351" lon="5.83467">
        <ele>353.95</ele>
        <time>2020-09-13T11:57:34.000Z</time>
      </trkpt>
      <trkpt lat="45.05352" lon="5.83494">
        <ele>353.88</ele>
        <time>2020-09-13T11:57:39.000Z</time>
      </trkpt>
      <trkpt lat="45.05361" lon="5.83509">
        <ele>358.52</ele>
        <time>2020-09-13T11:57:44.000Z</time>
      </trkpt>
      <trkpt lat="45.0537" lon="5.8351">
        <ele>359.45</ele>
        <time>2020-09-13T11:57:55.000Z</time>
      </trkpt>
      <trkpt lat="45.05377" lon="5.835">
        <ele>357.4</ele>
        <time>2020-09-13T11:58:00.000Z</time>
      </trkpt>
      <trkpt lat="45.05389" lon="5.83497">
        <ele>357.5</ele>
        <time>2020-09-13T12:01:26.000Z</time>
      </trkpt>
      <trkpt lat="45.05424" lon="5.83473">
        <ele>363.41</ele>
        <time>2020-09-13T12:01:31.000Z</time>
      </trkpt>
      <trkpt lat="45.05455" lon="5.83447">
        <ele>364.94</ele>
        <time>2020-09-13T12:01:36.000Z</time>
      </trkpt>
      <trkpt lat="45.05482" lon="5.83439">
        <ele>369.16</ele>
        <time>2020-09-13T12:01:41.000Z</time>
      </trkpt>
      <trkpt lat="45.05504" lon="5.83433">
        <ele>371.89</ele>
        <time>2020-09-13T12:01:46.000Z</time>
      </trkpt>
      <trkpt lat="45.05527" lon="5.83412">
        <ele>368.02</ele>
        <time>2020-09-13T12:01:51.000Z</time>
      </trkpt>
      <trkpt lat="45.05552" lon="5.83402">
        <ele>371.12</ele>
        <time>2020-09-13T12:01:56.000Z</time>
      </trkpt>
      <trkpt lat="45.0557" lon="5.83389">
        <ele>374.78</ele>
        <time>2020-09-13T12:02:01.000Z</time>
      </trkpt>
      <trkpt lat="45.05596" lon="5.83376">
        <ele>375.59</ele>
        <time>2020-09-13T12:02:06.000Z</time>
      </trkpt>
      <trkpt lat="45.05619" lon="5.83373">
        <ele>378.09</ele>
        <time>2020-09-13T12:02:11.000Z</time>
      </trkpt>
      <trkpt lat="45.05641" lon="5.83376">
        <ele>378.49</ele>
        <time>2020-09-13T12:02:16.000Z</time>
      </trkpt>
      <trkpt lat="45.05652" lon="5.83367">
        <ele>386.22</ele>
        <time>2020-09-13T12:02:21.000Z</time>
      </trkpt>
      <trkpt lat="45.05669" lon="5.83379">
        <ele>387.84</ele>
        <time>2020-09-13T12:02:26.000Z</time>
      </trkpt>
      <trkpt lat="45.05679" lon="5.83387">
        <ele>387.67</ele>
        <time>2020-09-13T12:02:31.000Z</time>
      </trkpt>
      <trkpt lat="45.0569" lon="5.83399">
        <ele>387.04</ele>
        <time>2020-09-13T12:02:36.000Z</time>
      </trkpt>
      <trkpt lat="45.05703" lon="5.83413">
        <ele>385.55</ele>
        <time>2020-09-13T12:02:41.000Z</time>
      </trkpt>
      <trkpt lat="45.0572" lon="5.83427">
        <ele>385.36</ele>
        <time>2020-09-13T12:02:46.000Z</time>
      </trkpt>
      <trkpt lat="45.05741" lon="5.83445">
        <ele>387.55</ele>
        <time>2020-09-13T12:02:51.000Z</time>
      </trkpt>
      <trkpt lat="45.05763" lon="5.83445">
        <ele>388.19</ele>
        <time>2020-09-13T12:02:56.000Z</time>
      </trkpt>
      <trkpt lat="45.0578" lon="5.83431">
        <ele>388.38</ele>
        <time>2020-09-13T12:03:01.000Z</time>
      </trkpt>
      <trkpt lat="45.05797" lon="5.83425">
        <ele>388.09</ele>
        <time>2020-09-13T12:03:06.000Z</time>
      </trkpt>
      <trkpt lat="45.05813" lon="5.83426">
        <ele>384.92</ele>
        <time>2020-09-13T12:03:11.000Z</time>
      </trkpt>
      <trkpt lat="45.05827" lon="5.83435">
        <ele>390.67</ele>
        <time>2020-09-13T12:03:16.000Z</time>
      </trkpt>
      <trkpt lat="45.05844" lon="5.83429">
        <ele>389.93</ele>
        <time>2020-09-13T12:03:21.000Z</time>
      </trkpt>
      <trkpt lat="45.05856" lon="5.83419">
        <ele>393.29</ele>
        <time>2020-09-13T12:03:26.000Z</time>
      </trkpt>
      <trkpt lat="45.05863" lon="5.83398">
        <ele>394.01</ele>
        <time>2020-09-13T12:03:31.000Z</time>
      </trkpt>
      <trkpt lat="45.0586" lon="5.83373">
        <ele>393.97</ele>
        <time>2020-09-13T12:03:36.000Z</time>
      </trkpt>
      <trkpt lat="45.05853" lon="5.8335">
        <ele>395.14</ele>
        <time>2020-09-13T12:03:41.000Z</time>
      </trkpt>
      <trkpt lat="45.05843" lon="5.83336">
        <ele>397.37</ele>
        <time>2020-09-13T12:03:46.000Z</time>
      </trkpt>
      <trkpt lat="45.05842" lon="5.83316">
        <ele>403.34</ele>
        <time>2020-09-13T12:03:51.000Z</time>
      </trkpt>
      <trkpt lat="45.05853" lon="5.83297">
        <ele>402.85</ele>
        <time>2020-09-13T12:03:56.000Z</time>
      </trkpt>
      <trkpt lat="45.0587" lon="5.83292">
        <ele>403.77</ele>
        <time>2020-09-13T12:04:01.000Z</time>
      </trkpt>
      <trkpt lat="45.05882" lon="5.83284">
        <ele>407.45</ele>
        <time>2020-09-13T12:04:06.000Z</time>
      </trkpt>
      <trkpt lat="45.05895" lon="5.83277">
        <ele>413.16</ele>
        <time>2020-09-13T12:04:11.000Z</time>
      </trkpt>
      <trkpt lat="45.05908" lon="5.83271">
        <ele>416.37</ele>
        <time>2020-09-13T12:04:16.000Z</time>
      </trkpt>
      <trkpt lat="45.0592" lon="5.83261">
        <ele>416.71</ele>
        <time>2020-09-13T12:04:21.000Z</time>
      </trkpt>
      <trkpt lat="45.05933" lon="5.83249">
        <ele>415.83</ele>
        <time>2020-09-13T12:04:26.000Z</time>
      </trkpt>
      <trkpt lat="45.05934" lon="5.83229">
        <ele>412.61</ele>
        <time>2020-09-13T12:04:31.000Z</time>
      </trkpt>
      <trkpt lat="45.05931" lon="5.83209">
        <ele>415.19</ele>
        <time>2020-09-13T12:04:36.000Z</time>
      </trkpt>
      <trkpt lat="45.05925" lon="5.8319">
        <ele>416.3</ele>
        <time>2020-09-13T12:04:41.000Z</time>
      </trkpt>
      <trkpt lat="45.05916" lon="5.83169">
        <ele>419.59</ele>
        <time>2020-09-13T12:04:46.000Z</time>
      </trkpt>
      <trkpt lat="45.05907" lon="5.83151">
        <ele>424.05</ele>
        <time>2020-09-13T12:04:51.000Z</time>
      </trkpt>
      <trkpt lat="45.05902" lon="5.83132">
        <ele>425.99</ele>
        <time>2020-09-13T12:04:56.000Z</time>
      </trkpt>
      <trkpt lat="45.05898" lon="5.83113">
        <ele>421.59</ele>
        <time>2020-09-13T12:05:01.000Z</time>
      </trkpt>
      <trkpt lat="45.05899" lon="5.83088">
        <ele>422.12</ele>
        <time>2020-09-13T12:05:06.000Z</time>
      </trkpt>
      <trkpt lat="45.05893" lon="5.83066">
        <ele>426.19</ele>
        <time>2020-09-13T12:05:11.000Z</time>
      </trkpt>
      <trkpt lat="45.05893" lon="5.83044">
        <ele>429.32</ele>
        <time>2020-09-13T12:05:16.000Z</time>
      </trkpt>
      <trkpt lat="45.05896" lon="5.83024">
        <ele>430.79</ele>
        <time>2020-09-13T12:05:21.000Z</time>
      </trkpt>
      <trkpt lat="45.05904" lon="5.83012">
        <ele>429.64</ele>
        <time>2020-09-13T12:05:26.000Z</time>
      </trkpt>
      <trkpt lat="45.05919" lon="5.83013">
        <ele>430.13</ele>
        <time>2020-09-13T12:05:31.000Z</time>
      </trkpt>
      <trkpt lat="45.05929" lon="5.83017">
        <ele>433.46</ele>
        <time>2020-09-13T12:05:36.000Z</time>
      </trkpt>
      <trkpt lat="45.05939" lon="5.83032">
        <ele>436.87</ele>
        <time>2020-09-13T12:05:41.000Z</time>
      </trkpt>
      <trkpt lat="45.05948" lon="5.83048">
        <ele>435.8</ele>
        <time>2020-09-13T12:05:46.000Z</time>
      </trkpt>
      <trkpt lat="45.05958" lon="5.83048">
        <ele>438.85</ele>
        <time>2020-09-13T12:05:55.000Z</time>
      </trkpt>
      <trkpt lat="45.05973" lon="5.83032">
        <ele>443.59</ele>
        <time>2020-09-13T12:06:00.000Z</time>
      </trkpt>
      <trkpt lat="45.05989" lon="5.83023">
        <ele>442.33</ele>
        <time>2020-09-13T12:06:05.000Z</time>
      </trkpt>
      <trkpt lat="45.06005" lon="5.83024">
        <ele>440</ele>
        <time>2020-09-13T12:06:10.000Z</time>
      </trkpt>
      <trkpt lat="45.06017" lon="5.83023">
        <ele>438.24</ele>
        <time>2020-09-13T12:06:15.000Z</time>
      </trkpt>
      <trkpt lat="45.06027" lon="5.83031">
        <ele>439.2</ele>
        <time>2020-09-13T12:06:20.000Z</time>
      </trkpt>
      <trkpt lat="45.06046" lon="5.8304">
        <ele>443.7</ele>
        <time>2020-09-13T12:06:25.000Z</time>
      </trkpt>
      <trkpt lat="45.06072" lon="5.83041">
        <ele>452.62</ele>
        <time>2020-09-13T12:06:30.000Z</time>
      </trkpt>
      <trkpt lat="45.06093" lon="5.83034">
        <ele>455.19</ele>
        <time>2020-09-13T12:06:35.000Z</time>
      </trkpt>
      <trkpt lat="45.06109" lon="5.8303">
        <ele>457.46</ele>
        <time>2020-09-13T12:06:40.000Z</time>
      </trkpt>
      <trkpt lat="45.06126" lon="5.83022">
        <ele>457.85</ele>
        <time>2020-09-13T12:06:45.000Z</time>
      </trkpt>
      <trkpt lat="45.06142" lon="5.83025">
        <ele>457.75</ele>
        <time>2020-09-13T12:06:50.000Z</time>
      </trkpt>
      <trkpt lat="45.06153" lon="5.8303">
        <ele>460.66</ele>
        <time>2020-09-13T12:06:55.000Z</time>
      </trkpt>
      <trkpt lat="45.06163" lon="5.83029">
        <ele>457.51</ele>
        <time>2020-09-13T12:07:00.000Z</time>
      </trkpt>
      <trkpt lat="45.06174" lon="5.83025">
        <ele>457.61</ele>
        <time>2020-09-13T12:07:05.000Z</time>
      </trkpt>
      <trkpt lat="45.06194" lon="5.83039">
        <ele>460.27</ele>
        <time>2020-09-13T12:07:10.000Z</time>
      </trkpt>
      <trkpt lat="45.06206" lon="5.83045">
        <ele>462.3</ele>
        <time>2020-09-13T12:07:15.000Z</time>
      </trkpt>
      <trkpt lat="45.06218" lon="5.83054">
        <ele>465.11</ele>
        <time>2020-09-13T12:07:20.000Z</time>
      </trkpt>
      <trkpt lat="45.06229" lon="5.83069">
        <ele>467.54</ele>
        <time>2020-09-13T12:07:25.000Z</time>
      </trkpt>
      <trkpt lat="45.06243" lon="5.83086">
        <ele>467.13</ele>
        <time>2020-09-13T12:07:30.000Z</time>
      </trkpt>
      <trkpt lat="45.06248" lon="5.83105">
        <ele>473.97</ele>
        <time>2020-09-13T12:07:35.000Z</time>
      </trkpt>
      <trkpt lat="45.06251" lon="5.83126">
        <ele>473.02</ele>
        <time>2020-09-13T12:07:40.000Z</time>
      </trkpt>
      <trkpt lat="45.06261" lon="5.83151">
        <ele>473.08</ele>
        <time>2020-09-13T12:07:45.000Z</time>
      </trkpt>
      <trkpt lat="45.06273" lon="5.83175">
        <ele>476.99</ele>
        <time>2020-09-13T12:07:50.000Z</time>
      </trkpt>
      <trkpt lat="45.06284" lon="5.83186">
        <ele>479.68</ele>
        <time>2020-09-13T12:07:55.000Z</time>
      </trkpt>
      <trkpt lat="45.06301" lon="5.83183">
        <ele>478.7</ele>
        <time>2020-09-13T12:08:00.000Z</time>
      </trkpt>
      <trkpt lat="45.06318" lon="5.83177">
        <ele>481.8</ele>
        <time>2020-09-13T12:08:05.000Z</time>
      </trkpt>
      <trkpt lat="45.06322" lon="5.83156">
        <ele>481.02</ele>
        <time>2020-09-13T12:08:10.000Z</time>
      </trkpt>
      <trkpt lat="45.06321" lon="5.8313">
        <ele>480.47</ele>
        <time>2020-09-13T12:08:15.000Z</time>
      </trkpt>
      <trkpt lat="45.06317" lon="5.83105">
        <ele>483.6</ele>
        <time>2020-09-13T12:08:20.000Z</time>
      </trkpt>
      <trkpt lat="45.06315" lon="5.83085">
        <ele>481.41</ele>
        <time>2020-09-13T12:08:25.000Z</time>
      </trkpt>
      <trkpt lat="45.06316" lon="5.83066">
        <ele>485.36</ele>
        <time>2020-09-13T12:08:30.000Z</time>
      </trkpt>
      <trkpt lat="45.06311" lon="5.83046">
        <ele>488.26</ele>
        <time>2020-09-13T12:08:35.000Z</time>
      </trkpt>
      <trkpt lat="45.06301" lon="5.83022">
        <ele>490.21</ele>
        <time>2020-09-13T12:08:40.000Z</time>
      </trkpt>
      <trkpt lat="45.06297" lon="5.83005">
        <ele>491.14</ele>
        <time>2020-09-13T12:08:45.000Z</time>
      </trkpt>
      <trkpt lat="45.06293" lon="5.82988">
        <ele>491.56</ele>
        <time>2020-09-13T12:08:50.000Z</time>
      </trkpt>
      <trkpt lat="45.06284" lon="5.82994">
        <ele>493.48</ele>
        <time>2020-09-13T12:09:06.000Z</time>
      </trkpt>
      <trkpt lat="45.06284" lon="5.8298">
        <ele>493.34</ele>
        <time>2020-09-13T12:09:15.000Z</time>
      </trkpt>
      <trkpt lat="45.06286" lon="5.82951">
        <ele>493.42</ele>
        <time>2020-09-13T12:09:20.000Z</time>
      </trkpt>
      <trkpt lat="45.06294" lon="5.82981">
        <ele>492.7</ele>
        <time>2020-09-13T12:09:30.000Z</time>
      </trkpt>
      <trkpt lat="45.06301" lon="5.82991">
        <ele>494.61</ele>
        <time>2020-09-13T12:09:37.000Z</time>
      </trkpt>
      <trkpt lat="45.063" lon="5.82976">
        <ele>497.63</ele>
        <time>2020-09-13T12:09:49.000Z</time>
      </trkpt>
      <trkpt lat="45.0629" lon="5.82962">
        <ele>499.41</ele>
        <time>2020-09-13T12:09:54.000Z</time>
      </trkpt>
      <trkpt lat="45.06276" lon="5.82941">
        <ele>499.84</ele>
        <time>2020-09-13T12:09:59.000Z</time>
      </trkpt>
      <trkpt lat="45.06279" lon="5.82912">
        <ele>502.13</ele>
        <time>2020-09-13T12:10:04.000Z</time>
      </trkpt>
      <trkpt lat="45.06275" lon="5.82895">
        <ele>501.75</ele>
        <time>2020-09-13T12:10:09.000Z</time>
      </trkpt>
      <trkpt lat="45.06266" lon="5.82888">
        <ele>502.2</ele>
        <time>2020-09-13T12:10:14.000Z</time>
      </trkpt>
      <trkpt lat="45.06258" lon="5.82863">
        <ele>502.93</ele>
        <time>2020-09-13T12:10:19.000Z</time>
      </trkpt>
      <trkpt lat="45.06247" lon="5.82852">
        <ele>502.38</ele>
        <time>2020-09-13T12:10:24.000Z</time>
      </trkpt>
      <trkpt lat="45.06238" lon="5.82839">
        <ele>504.09</ele>
        <time>2020-09-13T12:10:29.000Z</time>
      </trkpt>
      <trkpt lat="45.06222" lon="5.8283">
        <ele>509.19</ele>
        <time>2020-09-13T12:10:34.000Z</time>
      </trkpt>
      <trkpt lat="45.06206" lon="5.82818">
        <ele>511.14</ele>
        <time>2020-09-13T12:10:39.000Z</time>
      </trkpt>
      <trkpt lat="45.06192" lon="5.82808">
        <ele>513.01</ele>
        <time>2020-09-13T12:10:44.000Z</time>
      </trkpt>
      <trkpt lat="45.06183" lon="5.82795">
        <ele>513.53</ele>
        <time>2020-09-13T12:10:49.000Z</time>
      </trkpt>
      <trkpt lat="45.06176" lon="5.82778">
        <ele>512.86</ele>
        <time>2020-09-13T12:10:54.000Z</time>
      </trkpt>
      <trkpt lat="45.06166" lon="5.82754">
        <ele>511.28</ele>
        <time>2020-09-13T12:10:59.000Z</time>
      </trkpt>
      <trkpt lat="45.06156" lon="5.82736">
        <ele>511.3</ele>
        <time>2020-09-13T12:11:04.000Z</time>
      </trkpt>
      <trkpt lat="45.06148" lon="5.82729">
        <ele>511.72</ele>
        <time>2020-09-13T12:11:11.000Z</time>
      </trkpt>
      <trkpt lat="45.06136" lon="5.82715">
        <ele>511.27</ele>
        <time>2020-09-13T12:11:16.000Z</time>
      </trkpt>
      <trkpt lat="45.06121" lon="5.82706">
        <ele>515.08</ele>
        <time>2020-09-13T12:11:21.000Z</time>
      </trkpt>
      <trkpt lat="45.06106" lon="5.82705">
        <ele>515.71</ele>
        <time>2020-09-13T12:11:26.000Z</time>
      </trkpt>
      <trkpt lat="45.06095" lon="5.82702">
        <ele>514.87</ele>
        <time>2020-09-13T12:11:31.000Z</time>
      </trkpt>
      <trkpt lat="45.06082" lon="5.82688">
        <ele>517.96</ele>
        <time>2020-09-13T12:11:36.000Z</time>
      </trkpt>
      <trkpt lat="45.06069" lon="5.82671">
        <ele>517.81</ele>
        <time>2020-09-13T12:11:41.000Z</time>
      </trkpt>
      <trkpt lat="45.06061" lon="5.82651">
        <ele>517.74</ele>
        <time>2020-09-13T12:11:46.000Z</time>
      </trkpt>
      <trkpt lat="45.06058" lon="5.82639">
        <ele>521.39</ele>
        <time>2020-09-13T12:11:51.000Z</time>
      </trkpt>
      <trkpt lat="45.06057" lon="5.82652">
        <ele>519.19</ele>
        <time>2020-09-13T12:12:02.000Z</time>
      </trkpt>
      <trkpt lat="45.06063" lon="5.82664">
        <ele>518.39</ele>
        <time>2020-09-13T12:12:09.000Z</time>
      </trkpt>
      <trkpt lat="45.0607" lon="5.82677">
        <ele>517.37</ele>
        <time>2020-09-13T12:12:14.000Z</time>
      </trkpt>
      <trkpt lat="45.0608" lon="5.82678">
        <ele>516.08</ele>
        <time>2020-09-13T12:12:28.000Z</time>
      </trkpt>
      <trkpt lat="45.06069" lon="5.82656">
        <ele>519.25</ele>
        <time>2020-09-13T12:12:36.000Z</time>
      </trkpt>
      <trkpt lat="45.06061" lon="5.8266">
        <ele>518.66</ele>
        <time>2020-09-13T12:12:44.000Z</time>
      </trkpt>
      <trkpt lat="45.06052" lon="5.8265">
        <ele>517.97</ele>
        <time>2020-09-13T12:12:49.000Z</time>
      </trkpt>
      <trkpt lat="45.06056" lon="5.82634">
        <ele>517.04</ele>
        <time>2020-09-13T12:12:54.000Z</time>
      </trkpt>
      <trkpt lat="45.06053" lon="5.82647">
        <ele>518.34</ele>
        <time>2020-09-13T12:13:02.000Z</time>
      </trkpt>
      <trkpt lat="45.06061" lon="5.82678">
        <ele>521.63</ele>
        <time>2020-09-13T12:13:07.000Z</time>
      </trkpt>
      <trkpt lat="45.06057" lon="5.82691">
        <ele>526.71</ele>
        <time>2020-09-13T12:13:27.000Z</time>
      </trkpt>
      <trkpt lat="45.06068" lon="5.82629">
        <ele>518.78</ele>
        <time>2020-09-13T12:13:32.000Z</time>
      </trkpt>
      <trkpt lat="45.06066" lon="5.82642">
        <ele>515.58</ele>
        <time>2020-09-13T12:13:43.000Z</time>
      </trkpt>
      <trkpt lat="45.06061" lon="5.82653">
        <ele>518.62</ele>
        <time>2020-09-13T12:13:50.000Z</time>
      </trkpt>
      <trkpt lat="45.06055" lon="5.82643">
        <ele>529.9</ele>
        <time>2020-09-13T12:18:13.000Z</time>
      </trkpt>
      <trkpt lat="45.06043" lon="5.82623">
        <ele>535.29</ele>
        <time>2020-09-13T12:18:18.000Z</time>
      </trkpt>
      <trkpt lat="45.06036" lon="5.82601">
        <ele>533.02</ele>
        <time>2020-09-13T12:18:23.000Z</time>
      </trkpt>
      <trkpt lat="45.06023" lon="5.82583">
        <ele>539.81</ele>
        <time>2020-09-13T12:18:28.000Z</time>
      </trkpt>
      <trkpt lat="45.06012" lon="5.82565">
        <ele>541.15</ele>
        <time>2020-09-13T12:18:33.000Z</time>
      </trkpt>
      <trkpt lat="45.06001" lon="5.82545">
        <ele>544.19</ele>
        <time>2020-09-13T12:18:38.000Z</time>
      </trkpt>
      <trkpt lat="45.05988" lon="5.82533">
        <ele>539.74</ele>
        <time>2020-09-13T12:18:43.000Z</time>
      </trkpt>
      <trkpt lat="45.05978" lon="5.82531">
        <ele>533.36</ele>
        <time>2020-09-13T12:18:48.000Z</time>
      </trkpt>
      <trkpt lat="45.05967" lon="5.82528">
        <ele>532.66</ele>
        <time>2020-09-13T12:18:53.000Z</time>
      </trkpt>
      <trkpt lat="45.05955" lon="5.8252">
        <ele>533.32</ele>
        <time>2020-09-13T12:18:58.000Z</time>
      </trkpt>
      <trkpt lat="45.05945" lon="5.82507">
        <ele>534.7</ele>
        <time>2020-09-13T12:19:03.000Z</time>
      </trkpt>
      <trkpt lat="45.05934" lon="5.825">
        <ele>537.78</ele>
        <time>2020-09-13T12:19:08.000Z</time>
      </trkpt>
      <trkpt lat="45.05925" lon="5.82492">
        <ele>541.36</ele>
        <time>2020-09-13T12:19:13.000Z</time>
      </trkpt>
      <trkpt lat="45.05924" lon="5.82472">
        <ele>540.21</ele>
        <time>2020-09-13T12:19:18.000Z</time>
      </trkpt>
      <trkpt lat="45.05928" lon="5.8245">
        <ele>542.49</ele>
        <time>2020-09-13T12:19:23.000Z</time>
      </trkpt>
      <trkpt lat="45.05933" lon="5.82432">
        <ele>542.01</ele>
        <time>2020-09-13T12:19:28.000Z</time>
      </trkpt>
      <trkpt lat="45.05944" lon="5.82422">
        <ele>542.91</ele>
        <time>2020-09-13T12:19:33.000Z</time>
      </trkpt>
      <trkpt lat="45.05958" lon="5.82421">
        <ele>547.63</ele>
        <time>2020-09-13T12:19:38.000Z</time>
      </trkpt>
      <trkpt lat="45.05974" lon="5.82421">
        <ele>553.12</ele>
        <time>2020-09-13T12:19:43.000Z</time>
      </trkpt>
      <trkpt lat="45.05987" lon="5.82421">
        <ele>556.36</ele>
        <time>2020-09-13T12:19:48.000Z</time>
      </trkpt>
      <trkpt lat="45.05999" lon="5.82425">
        <ele>556.93</ele>
        <time>2020-09-13T12:19:53.000Z</time>
      </trkpt>
      <trkpt lat="45.06011" lon="5.82437">
        <ele>557.54</ele>
        <time>2020-09-13T12:19:58.000Z</time>
      </trkpt>
      <trkpt lat="45.06018" lon="5.82456">
        <ele>557.83</ele>
        <time>2020-09-13T12:20:03.000Z</time>
      </trkpt>
      <trkpt lat="45.06027" lon="5.8247">
        <ele>559.61</ele>
        <time>2020-09-13T12:20:08.000Z</time>
      </trkpt>
      <trkpt lat="45.06035" lon="5.82478">
        <ele>562.16</ele>
        <time>2020-09-13T12:20:13.000Z</time>
      </trkpt>
      <trkpt lat="45.06046" lon="5.82484">
        <ele>562.56</ele>
        <time>2020-09-13T12:20:18.000Z</time>
      </trkpt>
      <trkpt lat="45.06054" lon="5.82499">
        <ele>562.58</ele>
        <time>2020-09-13T12:20:23.000Z</time>
      </trkpt>
      <trkpt lat="45.06066" lon="5.82512">
        <ele>561.49</ele>
        <time>2020-09-13T12:20:28.000Z</time>
      </trkpt>
      <trkpt lat="45.06078" lon="5.82523">
        <ele>560.12</ele>
        <time>2020-09-13T12:20:33.000Z</time>
      </trkpt>
      <trkpt lat="45.06089" lon="5.82533">
        <ele>560.71</ele>
        <time>2020-09-13T12:20:38.000Z</time>
      </trkpt>
      <trkpt lat="45.06098" lon="5.8255">
        <ele>561.35</ele>
        <time>2020-09-13T12:20:43.000Z</time>
      </trkpt>
      <trkpt lat="45.06105" lon="5.82565">
        <ele>560.88</ele>
        <time>2020-09-13T12:20:48.000Z</time>
      </trkpt>
      <trkpt lat="45.06117" lon="5.8257">
        <ele>560.71</ele>
        <time>2020-09-13T12:20:53.000Z</time>
      </trkpt>
      <trkpt lat="45.06136" lon="5.82577">
        <ele>562.27</ele>
        <time>2020-09-13T12:20:58.000Z</time>
      </trkpt>
      <trkpt lat="45.06153" lon="5.82586">
        <ele>563.96</ele>
        <time>2020-09-13T12:21:03.000Z</time>
      </trkpt>
      <trkpt lat="45.0617" lon="5.82587">
        <ele>564.75</ele>
        <time>2020-09-13T12:21:08.000Z</time>
      </trkpt>
      <trkpt lat="45.06183" lon="5.82591">
        <ele>565.05</ele>
        <time>2020-09-13T12:21:13.000Z</time>
      </trkpt>
      <trkpt lat="45.06196" lon="5.82604">
        <ele>564.93</ele>
        <time>2020-09-13T12:21:18.000Z</time>
      </trkpt>
      <trkpt lat="45.06206" lon="5.82624">
        <ele>564.83</ele>
        <time>2020-09-13T12:21:23.000Z</time>
      </trkpt>
      <trkpt lat="45.06221" lon="5.82634">
        <ele>566.52</ele>
        <time>2020-09-13T12:21:28.000Z</time>
      </trkpt>
      <trkpt lat="45.06238" lon="5.82643">
        <ele>567.83</ele>
        <time>2020-09-13T12:21:33.000Z</time>
      </trkpt>
      <trkpt lat="45.06245" lon="5.82654">
        <ele>569.67</ele>
        <time>2020-09-13T12:21:39.000Z</time>
      </trkpt>
      <trkpt lat="45.06253" lon="5.8266">
        <ele>576.48</ele>
        <time>2020-09-13T12:21:45.000Z</time>
      </trkpt>
      <trkpt lat="45.06262" lon="5.8267">
        <ele>575.63</ele>
        <time>2020-09-13T12:21:50.000Z</time>
      </trkpt>
      <trkpt lat="45.06273" lon="5.82675">
        <ele>580.42</ele>
        <time>2020-09-13T12:21:55.000Z</time>
      </trkpt>
      <trkpt lat="45.06287" lon="5.8268">
        <ele>580.88</ele>
        <time>2020-09-13T12:22:00.000Z</time>
      </trkpt>
      <trkpt lat="45.06296" lon="5.82694">
        <ele>580.98</ele>
        <time>2020-09-13T12:22:05.000Z</time>
      </trkpt>
      <trkpt lat="45.06307" lon="5.82707">
        <ele>582.13</ele>
        <time>2020-09-13T12:22:10.000Z</time>
      </trkpt>
      <trkpt lat="45.06328" lon="5.82714">
        <ele>580.8</ele>
        <time>2020-09-13T12:22:15.000Z</time>
      </trkpt>
      <trkpt lat="45.06349" lon="5.82725">
        <ele>586.67</ele>
        <time>2020-09-13T12:22:20.000Z</time>
      </trkpt>
      <trkpt lat="45.06365" lon="5.82734">
        <ele>587.67</ele>
        <time>2020-09-13T12:22:25.000Z</time>
      </trkpt>
      <trkpt lat="45.06378" lon="5.82745">
        <ele>591.13</ele>
        <time>2020-09-13T12:22:30.000Z</time>
      </trkpt>
      <trkpt lat="45.06385" lon="5.82761">
        <ele>593.41</ele>
        <time>2020-09-13T12:22:35.000Z</time>
      </trkpt>
      <trkpt lat="45.06394" lon="5.82771">
        <ele>592.58</ele>
        <time>2020-09-13T12:22:40.000Z</time>
      </trkpt>
      <trkpt lat="45.06405" lon="5.82781">
        <ele>594.1</ele>
        <time>2020-09-13T12:22:45.000Z</time>
      </trkpt>
      <trkpt lat="45.06423" lon="5.82793">
        <ele>595.54</ele>
        <time>2020-09-13T12:22:50.000Z</time>
      </trkpt>
      <trkpt lat="45.0644" lon="5.82805">
        <ele>598.3</ele>
        <time>2020-09-13T12:22:55.000Z</time>
      </trkpt>
      <trkpt lat="45.06449" lon="5.82818">
        <ele>598.93</ele>
        <time>2020-09-13T12:23:00.000Z</time>
      </trkpt>
      <trkpt lat="45.0646" lon="5.82828">
        <ele>599.32</ele>
        <time>2020-09-13T12:23:05.000Z</time>
      </trkpt>
      <trkpt lat="45.06468" lon="5.82837">
        <ele>600.75</ele>
        <time>2020-09-13T12:23:10.000Z</time>
      </trkpt>
      <trkpt lat="45.06473" lon="5.82853">
        <ele>602.37</ele>
        <time>2020-09-13T12:23:15.000Z</time>
      </trkpt>
      <trkpt lat="45.06483" lon="5.82862">
        <ele>599.37</ele>
        <time>2020-09-13T12:23:20.000Z</time>
      </trkpt>
      <trkpt lat="45.06494" lon="5.82871">
        <ele>600.3</ele>
        <time>2020-09-13T12:23:25.000Z</time>
      </trkpt>
      <trkpt lat="45.06502" lon="5.82888">
        <ele>602.19</ele>
        <time>2020-09-13T12:23:30.000Z</time>
      </trkpt>
      <trkpt lat="45.06518" lon="5.82899">
        <ele>603.76</ele>
        <time>2020-09-13T12:23:35.000Z</time>
      </trkpt>
      <trkpt lat="45.0654" lon="5.82916">
        <ele>605.83</ele>
        <time>2020-09-13T12:23:40.000Z</time>
      </trkpt>
      <trkpt lat="45.0655" lon="5.82939">
        <ele>609.94</ele>
        <time>2020-09-13T12:23:45.000Z</time>
      </trkpt>
      <trkpt lat="45.06555" lon="5.82954">
        <ele>611.19</ele>
        <time>2020-09-13T12:23:50.000Z</time>
      </trkpt>
      <trkpt lat="45.06565" lon="5.82969">
        <ele>610.83</ele>
        <time>2020-09-13T12:23:55.000Z</time>
      </trkpt>
      <trkpt lat="45.06573" lon="5.82981">
        <ele>614.99</ele>
        <time>2020-09-13T12:24:00.000Z</time>
      </trkpt>
      <trkpt lat="45.0658" lon="5.82999">
        <ele>618.5</ele>
        <time>2020-09-13T12:24:05.000Z</time>
      </trkpt>
      <trkpt lat="45.06586" lon="5.83014">
        <ele>619.89</ele>
        <time>2020-09-13T12:24:10.000Z</time>
      </trkpt>
      <trkpt lat="45.066" lon="5.83028">
        <ele>619.06</ele>
        <time>2020-09-13T12:24:15.000Z</time>
      </trkpt>
      <trkpt lat="45.06614" lon="5.83035">
        <ele>617.7</ele>
        <time>2020-09-13T12:24:20.000Z</time>
      </trkpt>
      <trkpt lat="45.06628" lon="5.83037">
        <ele>619.37</ele>
        <time>2020-09-13T12:24:25.000Z</time>
      </trkpt>
      <trkpt lat="45.06635" lon="5.83045">
        <ele>620.15</ele>
        <time>2020-09-13T12:24:30.000Z</time>
      </trkpt>
      <trkpt lat="45.06647" lon="5.83064">
        <ele>622.12</ele>
        <time>2020-09-13T12:24:35.000Z</time>
      </trkpt>
      <trkpt lat="45.06657" lon="5.83084">
        <ele>623.9</ele>
        <time>2020-09-13T12:24:40.000Z</time>
      </trkpt>
      <trkpt lat="45.06669" lon="5.83099">
        <ele>625.05</ele>
        <time>2020-09-13T12:24:45.000Z</time>
      </trkpt>
      <trkpt lat="45.06679" lon="5.83111">
        <ele>626.16</ele>
        <time>2020-09-13T12:24:50.000Z</time>
      </trkpt>
      <trkpt lat="45.06689" lon="5.83122">
        <ele>628.29</ele>
        <time>2020-09-13T12:24:55.000Z</time>
      </trkpt>
      <trkpt lat="45.06698" lon="5.83132">
        <ele>628.41</ele>
        <time>2020-09-13T12:25:00.000Z</time>
      </trkpt>
      <trkpt lat="45.06712" lon="5.83146">
        <ele>629.71</ele>
        <time>2020-09-13T12:25:05.000Z</time>
      </trkpt>
      <trkpt lat="45.06727" lon="5.83168">
        <ele>630.87</ele>
        <time>2020-09-13T12:25:10.000Z</time>
      </trkpt>
      <trkpt lat="45.06736" lon="5.83197">
        <ele>631.74</ele>
        <time>2020-09-13T12:25:15.000Z</time>
      </trkpt>
      <trkpt lat="45.06743" lon="5.83222">
        <ele>631.55</ele>
        <time>2020-09-13T12:25:20.000Z</time>
      </trkpt>
      <trkpt lat="45.06753" lon="5.83236">
        <ele>632.4</ele>
        <time>2020-09-13T12:25:25.000Z</time>
      </trkpt>
      <trkpt lat="45.06756" lon="5.83248">
        <ele>632.89</ele>
        <time>2020-09-13T12:25:30.000Z</time>
      </trkpt>
      <trkpt lat="45.06763" lon="5.83263">
        <ele>633.05</ele>
        <time>2020-09-13T12:25:35.000Z</time>
      </trkpt>
      <trkpt lat="45.06773" lon="5.83263">
        <ele>633.65</ele>
        <time>2020-09-13T12:25:41.000Z</time>
      </trkpt>
      <trkpt lat="45.06781" lon="5.83272">
        <ele>641.33</ele>
        <time>2020-09-13T12:25:49.000Z</time>
      </trkpt>
      <trkpt lat="45.06788" lon="5.83282">
        <ele>642.59</ele>
        <time>2020-09-13T12:25:55.000Z</time>
      </trkpt>
      <trkpt lat="45.06801" lon="5.83318">
        <ele>654.2</ele>
        <time>2020-09-13T12:29:06.000Z</time>
      </trkpt>
      <trkpt lat="45.06814" lon="5.83343">
        <ele>656.1</ele>
        <time>2020-09-13T12:29:11.000Z</time>
      </trkpt>
      <trkpt lat="45.06828" lon="5.83359">
        <ele>660.34</ele>
        <time>2020-09-13T12:29:16.000Z</time>
      </trkpt>
      <trkpt lat="45.06847" lon="5.8338">
        <ele>660.71</ele>
        <time>2020-09-13T12:29:21.000Z</time>
      </trkpt>
      <trkpt lat="45.06857" lon="5.83386">
        <ele>662.77</ele>
        <time>2020-09-13T12:29:26.000Z</time>
      </trkpt>
      <trkpt lat="45.06875" lon="5.83398">
        <ele>666.58</ele>
        <time>2020-09-13T12:29:31.000Z</time>
      </trkpt>
      <trkpt lat="45.06882" lon="5.83407">
        <ele>667.82</ele>
        <time>2020-09-13T12:29:36.000Z</time>
      </trkpt>
      <trkpt lat="45.06888" lon="5.83418">
        <ele>666.49</ele>
        <time>2020-09-13T12:29:41.000Z</time>
      </trkpt>
      <trkpt lat="45.06898" lon="5.83415">
        <ele>667.02</ele>
        <time>2020-09-13T12:29:46.000Z</time>
      </trkpt>
      <trkpt lat="45.0692" lon="5.83418">
        <ele>662.18</ele>
        <time>2020-09-13T12:29:51.000Z</time>
      </trkpt>
      <trkpt lat="45.0694" lon="5.83426">
        <ele>662.5</ele>
        <time>2020-09-13T12:29:56.000Z</time>
      </trkpt>
      <trkpt lat="45.06964" lon="5.8345">
        <ele>661.35</ele>
        <time>2020-09-13T12:30:01.000Z</time>
      </trkpt>
      <trkpt lat="45.06975" lon="5.8347">
        <ele>661.65</ele>
        <time>2020-09-13T12:30:06.000Z</time>
      </trkpt>
      <trkpt lat="45.06981" lon="5.83494">
        <ele>664.14</ele>
        <time>2020-09-13T12:30:11.000Z</time>
      </trkpt>
      <trkpt lat="45.06998" lon="5.83518">
        <ele>662.93</ele>
        <time>2020-09-13T12:30:16.000Z</time>
      </trkpt>
      <trkpt lat="45.07014" lon="5.83537">
        <ele>666.62</ele>
        <time>2020-09-13T12:30:21.000Z</time>
      </trkpt>
      <trkpt lat="45.07028" lon="5.83554">
        <ele>664.91</ele>
        <time>2020-09-13T12:30:26.000Z</time>
      </trkpt>
      <trkpt lat="45.0704" lon="5.83568">
        <ele>667.61</ele>
        <time>2020-09-13T12:30:31.000Z</time>
      </trkpt>
      <trkpt lat="45.07032" lon="5.83584">
        <ele>672.93</ele>
        <time>2020-09-13T12:30:36.000Z</time>
      </trkpt>
      <trkpt lat="45.07021" lon="5.83602">
        <ele>681.32</ele>
        <time>2020-09-13T12:30:41.000Z</time>
      </trkpt>
      <trkpt lat="45.07018" lon="5.83618">
        <ele>684.29</ele>
        <time>2020-09-13T12:30:46.000Z</time>
      </trkpt>
      <trkpt lat="45.0702" lon="5.83631">
        <ele>693.97</ele>
        <time>2020-09-13T12:30:51.000Z</time>
      </trkpt>
      <trkpt lat="45.0703" lon="5.83639">
        <ele>700.56</ele>
        <time>2020-09-13T12:30:56.000Z</time>
      </trkpt>
      <trkpt lat="45.07046" lon="5.83635">
        <ele>708.3</ele>
        <time>2020-09-13T12:31:01.000Z</time>
      </trkpt>
      <trkpt lat="45.07059" lon="5.83628">
        <ele>711.21</ele>
        <time>2020-09-13T12:31:06.000Z</time>
      </trkpt>
      <trkpt lat="45.07069" lon="5.83615">
        <ele>715.23</ele>
        <time>2020-09-13T12:31:11.000Z</time>
      </trkpt>
      <trkpt lat="45.07084" lon="5.83603">
        <ele>723.92</ele>
        <time>2020-09-13T12:31:16.000Z</time>
      </trkpt>
      <trkpt lat="45.07088" lon="5.83582">
        <ele>723.47</ele>
        <time>2020-09-13T12:31:21.000Z</time>
      </trkpt>
      <trkpt lat="45.07084" lon="5.83566">
        <ele>722.08</ele>
        <time>2020-09-13T12:31:26.000Z</time>
      </trkpt>
      <trkpt lat="45.07075" lon="5.83552">
        <ele>720.92</ele>
        <time>2020-09-13T12:31:31.000Z</time>
      </trkpt>
      <trkpt lat="45.07066" lon="5.83534">
        <ele>724.26</ele>
        <time>2020-09-13T12:31:36.000Z</time>
      </trkpt>
      <trkpt lat="45.07055" lon="5.83516">
        <ele>722.39</ele>
        <time>2020-09-13T12:31:41.000Z</time>
      </trkpt>
      <trkpt lat="45.07042" lon="5.83504">
        <ele>722.36</ele>
        <time>2020-09-13T12:31:46.000Z</time>
      </trkpt>
      <trkpt lat="45.07034" lon="5.83486">
        <ele>726.87</ele>
        <time>2020-09-13T12:31:51.000Z</time>
      </trkpt>
      <trkpt lat="45.07029" lon="5.83465">
        <ele>728.73</ele>
        <time>2020-09-13T12:31:56.000Z</time>
      </trkpt>
      <trkpt lat="45.07022" lon="5.83447">
        <ele>729.43</ele>
        <time>2020-09-13T12:32:01.000Z</time>
      </trkpt>
      <trkpt lat="45.0701" lon="5.8343">
        <ele>726.07</ele>
        <time>2020-09-13T12:32:06.000Z</time>
      </trkpt>
      <trkpt lat="45.06999" lon="5.8342">
        <ele>725.39</ele>
        <time>2020-09-13T12:32:11.000Z</time>
      </trkpt>
      <trkpt lat="45.06994" lon="5.834">
        <ele>722.75</ele>
        <time>2020-09-13T12:32:16.000Z</time>
      </trkpt>
      <trkpt lat="45.06987" lon="5.83389">
        <ele>723.09</ele>
        <time>2020-09-13T12:32:21.000Z</time>
      </trkpt>
      <trkpt lat="45.06983" lon="5.83372">
        <ele>725.07</ele>
        <time>2020-09-13T12:32:26.000Z</time>
      </trkpt>
      <trkpt lat="45.06976" lon="5.83357">
        <ele>725.4</ele>
        <time>2020-09-13T12:32:31.000Z</time>
      </trkpt>
      <trkpt lat="45.06967" lon="5.83346">
        <ele>726.04</ele>
        <time>2020-09-13T12:32:37.000Z</time>
      </trkpt>
      <trkpt lat="45.0695" lon="5.83333">
        <ele>726.94</ele>
        <time>2020-09-13T12:32:42.000Z</time>
      </trkpt>
      <trkpt lat="45.0694" lon="5.83316">
        <ele>731.32</ele>
        <time>2020-09-13T12:32:47.000Z</time>
      </trkpt>
      <trkpt lat="45.0694" lon="5.83296">
        <ele>734.29</ele>
        <time>2020-09-13T12:32:52.000Z</time>
      </trkpt>
      <trkpt lat="45.0693" lon="5.8328">
        <ele>735.23</ele>
        <time>2020-09-13T12:32:57.000Z</time>
      </trkpt>
      <trkpt lat="45.06919" lon="5.83271">
        <ele>737.76</ele>
        <time>2020-09-13T12:33:02.000Z</time>
      </trkpt>
      <trkpt lat="45.06907" lon="5.83255">
        <ele>736.22</ele>
        <time>2020-09-13T12:33:07.000Z</time>
      </trkpt>
      <trkpt lat="45.069" lon="5.83234">
        <ele>738.61</ele>
        <time>2020-09-13T12:33:12.000Z</time>
      </trkpt>
      <trkpt lat="45.06895" lon="5.83216">
        <ele>741.19</ele>
        <time>2020-09-13T12:33:17.000Z</time>
      </trkpt>
      <trkpt lat="45.0689" lon="5.832">
        <ele>741.43</ele>
        <time>2020-09-13T12:33:22.000Z</time>
      </trkpt>
      <trkpt lat="45.06882" lon="5.83176">
        <ele>746.88</ele>
        <time>2020-09-13T12:33:27.000Z</time>
      </trkpt>
      <trkpt lat="45.06881" lon="5.83153">
        <ele>750.5</ele>
        <time>2020-09-13T12:33:32.000Z</time>
      </trkpt>
      <trkpt lat="45.06877" lon="5.83128">
        <ele>749.66</ele>
        <time>2020-09-13T12:33:37.000Z</time>
      </trkpt>
      <trkpt lat="45.06872" lon="5.83107">
        <ele>753.71</ele>
        <time>2020-09-13T12:33:42.000Z</time>
      </trkpt>
      <trkpt lat="45.06863" lon="5.83088">
        <ele>753.94</ele>
        <time>2020-09-13T12:33:47.000Z</time>
      </trkpt>
      <trkpt lat="45.06858" lon="5.83072">
        <ele>755.89</ele>
        <time>2020-09-13T12:33:52.000Z</time>
      </trkpt>
      <trkpt lat="45.06856" lon="5.83054">
        <ele>755.53</ele>
        <time>2020-09-13T12:33:57.000Z</time>
      </trkpt>
      <trkpt lat="45.06847" lon="5.83045">
        <ele>753.74</ele>
        <time>2020-09-13T12:34:04.000Z</time>
      </trkpt>
      <trkpt lat="45.06833" lon="5.83031">
        <ele>755.88</ele>
        <time>2020-09-13T12:34:09.000Z</time>
      </trkpt>
      <trkpt lat="45.0682" lon="5.83004">
        <ele>758.12</ele>
        <time>2020-09-13T12:34:14.000Z</time>
      </trkpt>
      <trkpt lat="45.06815" lon="5.82977">
        <ele>754.36</ele>
        <time>2020-09-13T12:34:19.000Z</time>
      </trkpt>
      <trkpt lat="45.06814" lon="5.82952">
        <ele>755.62</ele>
        <time>2020-09-13T12:34:24.000Z</time>
      </trkpt>
      <trkpt lat="45.06811" lon="5.82933">
        <ele>756.66</ele>
        <time>2020-09-13T12:34:29.000Z</time>
      </trkpt>
      <trkpt lat="45.06804" lon="5.82916">
        <ele>758.34</ele>
        <time>2020-09-13T12:34:34.000Z</time>
      </trkpt>
      <trkpt lat="45.06789" lon="5.82897">
        <ele>760.59</ele>
        <time>2020-09-13T12:34:39.000Z</time>
      </trkpt>
      <trkpt lat="45.06777" lon="5.82883">
        <ele>760.18</ele>
        <time>2020-09-13T12:34:44.000Z</time>
      </trkpt>
      <trkpt lat="45.06769" lon="5.82867">
        <ele>760.89</ele>
        <time>2020-09-13T12:34:49.000Z</time>
      </trkpt>
      <trkpt lat="45.06762" lon="5.8285">
        <ele>762.97</ele>
        <time>2020-09-13T12:34:54.000Z</time>
      </trkpt>
      <trkpt lat="45.06759" lon="5.82831">
        <ele>762.7</ele>
        <time>2020-09-13T12:34:59.000Z</time>
      </trkpt>
      <trkpt lat="45.06752" lon="5.82813">
        <ele>763.07</ele>
        <time>2020-09-13T12:35:04.000Z</time>
      </trkpt>
      <trkpt lat="45.06746" lon="5.82791">
        <ele>765.32</ele>
        <time>2020-09-13T12:35:09.000Z</time>
      </trkpt>
      <trkpt lat="45.06741" lon="5.8277">
        <ele>767.02</ele>
        <time>2020-09-13T12:35:14.000Z</time>
      </trkpt>
      <trkpt lat="45.06727" lon="5.82753">
        <ele>767.02</ele>
        <time>2020-09-13T12:35:19.000Z</time>
      </trkpt>
      <trkpt lat="45.0671" lon="5.82743">
        <ele>771.39</ele>
        <time>2020-09-13T12:35:24.000Z</time>
      </trkpt>
      <trkpt lat="45.06691" lon="5.82734">
        <ele>774.26</ele>
        <time>2020-09-13T12:35:29.000Z</time>
      </trkpt>
      <trkpt lat="45.06676" lon="5.82721">
        <ele>773.42</ele>
        <time>2020-09-13T12:35:34.000Z</time>
      </trkpt>
      <trkpt lat="45.06673" lon="5.82704">
        <ele>779.23</ele>
        <time>2020-09-13T12:35:39.000Z</time>
      </trkpt>
      <trkpt lat="45.06694" lon="5.82729">
        <ele>779.14</ele>
        <time>2020-09-13T12:40:07.000Z</time>
      </trkpt>
      <trkpt lat="45.0671" lon="5.82746">
        <ele>776.84</ele>
        <time>2020-09-13T12:40:12.000Z</time>
      </trkpt>
      <trkpt lat="45.06728" lon="5.82757">
        <ele>775.6</ele>
        <time>2020-09-13T12:40:17.000Z</time>
      </trkpt>
      <trkpt lat="45.06747" lon="5.82769">
        <ele>777.35</ele>
        <time>2020-09-13T12:40:22.000Z</time>
      </trkpt>
      <trkpt lat="45.0677" lon="5.82777">
        <ele>787</ele>
        <time>2020-09-13T12:40:27.000Z</time>
      </trkpt>
      <trkpt lat="45.06792" lon="5.8279">
        <ele>786.29</ele>
        <time>2020-09-13T12:40:32.000Z</time>
      </trkpt>
      <trkpt lat="45.06808" lon="5.828">
        <ele>789.27</ele>
        <time>2020-09-13T12:40:37.000Z</time>
      </trkpt>
      <trkpt lat="45.06823" lon="5.8281">
        <ele>791.81</ele>
        <time>2020-09-13T12:40:42.000Z</time>
      </trkpt>
      <trkpt lat="45.06855" lon="5.82836">
        <ele>792.66</ele>
        <time>2020-09-13T12:40:47.000Z</time>
      </trkpt>
      <trkpt lat="45.06863" lon="5.82851">
        <ele>802.98</ele>
        <time>2020-09-13T12:40:52.000Z</time>
      </trkpt>
      <trkpt lat="45.0687" lon="5.82875">
        <ele>809.96</ele>
        <time>2020-09-13T12:40:57.000Z</time>
      </trkpt>
      <trkpt lat="45.06871" lon="5.82894">
        <ele>805.62</ele>
        <time>2020-09-13T12:41:02.000Z</time>
      </trkpt>
      <trkpt lat="45.06871" lon="5.82907">
        <ele>804.79</ele>
        <time>2020-09-13T12:41:07.000Z</time>
      </trkpt>
      <trkpt lat="45.06876" lon="5.82922">
        <ele>807.33</ele>
        <time>2020-09-13T12:41:12.000Z</time>
      </trkpt>
      <trkpt lat="45.06892" lon="5.82922">
        <ele>806.45</ele>
        <time>2020-09-13T12:41:17.000Z</time>
      </trkpt>
      <trkpt lat="45.06908" lon="5.82905">
        <ele>805.68</ele>
        <time>2020-09-13T12:41:22.000Z</time>
      </trkpt>
      <trkpt lat="45.06919" lon="5.82917">
        <ele>804.66</ele>
        <time>2020-09-13T12:41:27.000Z</time>
      </trkpt>
      <trkpt lat="45.06941" lon="5.82937">
        <ele>803.8</ele>
        <time>2020-09-13T12:41:32.000Z</time>
      </trkpt>
      <trkpt lat="45.06953" lon="5.82957">
        <ele>805.06</ele>
        <time>2020-09-13T12:41:37.000Z</time>
      </trkpt>
      <trkpt lat="45.06959" lon="5.82968">
        <ele>804.69</ele>
        <time>2020-09-13T12:41:42.000Z</time>
      </trkpt>
      <trkpt lat="45.06975" lon="5.82992">
        <ele>807.9</ele>
        <time>2020-09-13T12:41:47.000Z</time>
      </trkpt>
      <trkpt lat="45.06981" lon="5.8301">
        <ele>808.86</ele>
        <time>2020-09-13T12:41:52.000Z</time>
      </trkpt>
      <trkpt lat="45.0699" lon="5.8303">
        <ele>807.6</ele>
        <time>2020-09-13T12:41:57.000Z</time>
      </trkpt>
      <trkpt lat="45.06991" lon="5.83047">
        <ele>812.37</ele>
        <time>2020-09-13T12:42:02.000Z</time>
      </trkpt>
      <trkpt lat="45.06997" lon="5.83064">
        <ele>811.89</ele>
        <time>2020-09-13T12:42:07.000Z</time>
      </trkpt>
      <trkpt lat="45.07005" lon="5.83081">
        <ele>814.84</ele>
        <time>2020-09-13T12:42:12.000Z</time>
      </trkpt>
      <trkpt lat="45.07016" lon="5.83095">
        <ele>818.52</ele>
        <time>2020-09-13T12:42:17.000Z</time>
      </trkpt>
      <trkpt lat="45.07029" lon="5.83103">
        <ele>815.45</ele>
        <time>2020-09-13T12:42:22.000Z</time>
      </trkpt>
      <trkpt lat="45.07041" lon="5.83106">
        <ele>814.07</ele>
        <time>2020-09-13T12:42:27.000Z</time>
      </trkpt>
      <trkpt lat="45.07059" lon="5.8311">
        <ele>814.79</ele>
        <time>2020-09-13T12:42:32.000Z</time>
      </trkpt>
      <trkpt lat="45.07071" lon="5.83119">
        <ele>816.2</ele>
        <time>2020-09-13T12:42:37.000Z</time>
      </trkpt>
      <trkpt lat="45.07081" lon="5.83129">
        <ele>817.63</ele>
        <time>2020-09-13T12:42:42.000Z</time>
      </trkpt>
      <trkpt lat="45.0709" lon="5.83148">
        <ele>818.2</ele>
        <time>2020-09-13T12:42:47.000Z</time>
      </trkpt>
      <trkpt lat="45.07096" lon="5.83166">
        <ele>820.11</ele>
        <time>2020-09-13T12:42:52.000Z</time>
      </trkpt>
      <trkpt lat="45.0711" lon="5.83193">
        <ele>823.91</ele>
        <time>2020-09-13T12:42:57.000Z</time>
      </trkpt>
      <trkpt lat="45.0713" lon="5.83205">
        <ele>824.74</ele>
        <time>2020-09-13T12:43:02.000Z</time>
      </trkpt>
      <trkpt lat="45.07139" lon="5.83205">
        <ele>823.91</ele>
        <time>2020-09-13T12:43:07.000Z</time>
      </trkpt>
      <trkpt lat="45.07153" lon="5.8321">
        <ele>823.9</ele>
        <time>2020-09-13T12:43:12.000Z</time>
      </trkpt>
      <trkpt lat="45.07169" lon="5.83224">
        <ele>826</ele>
        <time>2020-09-13T12:43:17.000Z</time>
      </trkpt>
      <trkpt lat="45.0718" lon="5.83227">
        <ele>831.35</ele>
        <time>2020-09-13T12:43:22.000Z</time>
      </trkpt>
      <trkpt lat="45.07191" lon="5.83239">
        <ele>837.46</ele>
        <time>2020-09-13T12:43:27.000Z</time>
      </trkpt>
      <trkpt lat="45.07208" lon="5.8323">
        <ele>837.44</ele>
        <time>2020-09-13T12:43:32.000Z</time>
      </trkpt>
      <trkpt lat="45.07217" lon="5.83221">
        <ele>838.57</ele>
        <time>2020-09-13T12:43:37.000Z</time>
      </trkpt>
      <trkpt lat="45.07242" lon="5.83249">
        <ele>839.66</ele>
        <time>2020-09-13T12:43:42.000Z</time>
      </trkpt>
      <trkpt lat="45.07251" lon="5.83265">
        <ele>839.24</ele>
        <time>2020-09-13T12:43:47.000Z</time>
      </trkpt>
      <trkpt lat="45.07269" lon="5.83282">
        <ele>840.91</ele>
        <time>2020-09-13T12:43:52.000Z</time>
      </trkpt>
      <trkpt lat="45.07288" lon="5.83302">
        <ele>843.17</ele>
        <time>2020-09-13T12:43:57.000Z</time>
      </trkpt>
      <trkpt lat="45.073" lon="5.833">
        <ele>840.67</ele>
        <time>2020-09-13T12:44:02.000Z</time>
      </trkpt>
      <trkpt lat="45.07309" lon="5.83313">
        <ele>836.44</ele>
        <time>2020-09-13T12:44:07.000Z</time>
      </trkpt>
      <trkpt lat="45.07324" lon="5.83332">
        <ele>836.7</ele>
        <time>2020-09-13T12:44:12.000Z</time>
      </trkpt>
      <trkpt lat="45.07335" lon="5.83336">
        <ele>842.38</ele>
        <time>2020-09-13T12:44:17.000Z</time>
      </trkpt>
      <trkpt lat="45.0734" lon="5.83347">
        <ele>842.86</ele>
        <time>2020-09-13T12:44:22.000Z</time>
      </trkpt>
      <trkpt lat="45.07342" lon="5.8336">
        <ele>843.87</ele>
        <time>2020-09-13T12:44:27.000Z</time>
      </trkpt>
      <trkpt lat="45.07351" lon="5.83372">
        <ele>840.73</ele>
        <time>2020-09-13T12:44:33.000Z</time>
      </trkpt>
      <trkpt lat="45.07362" lon="5.83364">
        <ele>843.21</ele>
        <time>2020-09-13T12:44:38.000Z</time>
      </trkpt>
      <trkpt lat="45.07374" lon="5.83369">
        <ele>845.25</ele>
        <time>2020-09-13T12:44:43.000Z</time>
      </trkpt>
      <trkpt lat="45.07383" lon="5.83392">
        <ele>848.64</ele>
        <time>2020-09-13T12:44:48.000Z</time>
      </trkpt>
      <trkpt lat="45.07392" lon="5.83409">
        <ele>848.24</ele>
        <time>2020-09-13T12:44:53.000Z</time>
      </trkpt>
      <trkpt lat="45.074" lon="5.83423">
        <ele>851.35</ele>
        <time>2020-09-13T12:44:58.000Z</time>
      </trkpt>
      <trkpt lat="45.07405" lon="5.83453">
        <ele>858.47</ele>
        <time>2020-09-13T12:45:03.000Z</time>
      </trkpt>
      <trkpt lat="45.07411" lon="5.83478">
        <ele>859.42</ele>
        <time>2020-09-13T12:45:08.000Z</time>
      </trkpt>
      <trkpt lat="45.07419" lon="5.83501">
        <ele>860.67</ele>
        <time>2020-09-13T12:45:13.000Z</time>
      </trkpt>
      <trkpt lat="45.07432" lon="5.83513">
        <ele>859.45</ele>
        <time>2020-09-13T12:45:18.000Z</time>
      </trkpt>
      <trkpt lat="45.0743" lon="5.83529">
        <ele>859.19</ele>
        <time>2020-09-13T12:45:23.000Z</time>
      </trkpt>
      <trkpt lat="45.07435" lon="5.83509">
        <ele>858.55</ele>
        <time>2020-09-13T12:45:28.000Z</time>
      </trkpt>
      <trkpt lat="45.07457" lon="5.83551">
        <ele>858.46</ele>
        <time>2020-09-13T12:45:33.000Z</time>
      </trkpt>
      <trkpt lat="45.0747" lon="5.8357">
        <ele>860.17</ele>
        <time>2020-09-13T12:45:38.000Z</time>
      </trkpt>
      <trkpt lat="45.07489" lon="5.83583">
        <ele>861.72</ele>
        <time>2020-09-13T12:45:43.000Z</time>
      </trkpt>
      <trkpt lat="45.07496" lon="5.83602">
        <ele>864.16</ele>
        <time>2020-09-13T12:45:48.000Z</time>
      </trkpt>
      <trkpt lat="45.07499" lon="5.83617">
        <ele>867.21</ele>
        <time>2020-09-13T12:45:53.000Z</time>
      </trkpt>
      <trkpt lat="45.07508" lon="5.83633">
        <ele>868.71</ele>
        <time>2020-09-13T12:45:58.000Z</time>
      </trkpt>
      <trkpt lat="45.07513" lon="5.83659">
        <ele>874.54</ele>
        <time>2020-09-13T12:46:03.000Z</time>
      </trkpt>
      <trkpt lat="45.07513" lon="5.83678">
        <ele>877.13</ele>
        <time>2020-09-13T12:46:08.000Z</time>
      </trkpt>
      <trkpt lat="45.07519" lon="5.83689">
        <ele>879.96</ele>
        <time>2020-09-13T12:46:13.000Z</time>
      </trkpt>
      <trkpt lat="45.07528" lon="5.83686">
        <ele>887.12</ele>
        <time>2020-09-13T12:46:30.000Z</time>
      </trkpt>
      <trkpt lat="45.07525" lon="5.83701">
        <ele>896.26</ele>
        <time>2020-09-13T12:47:42.000Z</time>
      </trkpt>
      <trkpt lat="45.07522" lon="5.83713">
        <ele>900.36</ele>
        <time>2020-09-13T12:48:05.000Z</time>
      </trkpt>
      <trkpt lat="45.07525" lon="5.83727">
        <ele>903.68</ele>
        <time>2020-09-13T12:49:36.000Z</time>
      </trkpt>
      <trkpt lat="45.07532" lon="5.83757">
        <ele>905.38</ele>
        <time>2020-09-13T12:49:41.000Z</time>
      </trkpt>
      <trkpt lat="45.07545" lon="5.8377">
        <ele>908.53</ele>
        <time>2020-09-13T12:49:46.000Z</time>
      </trkpt>
      <trkpt lat="45.07559" lon="5.83823">
        <ele>910.06</ele>
        <time>2020-09-13T12:49:51.000Z</time>
      </trkpt>
      <trkpt lat="45.0756" lon="5.8386">
        <ele>916.3</ele>
        <time>2020-09-13T12:49:56.000Z</time>
      </trkpt>
      <trkpt lat="45.07559" lon="5.8389">
        <ele>926.72</ele>
        <time>2020-09-13T12:50:01.000Z</time>
      </trkpt>
      <trkpt lat="45.07556" lon="5.83909">
        <ele>937.8</ele>
        <time>2020-09-13T12:50:06.000Z</time>
      </trkpt>
      <trkpt lat="45.07553" lon="5.83924">
        <ele>938.27</ele>
        <time>2020-09-13T12:50:11.000Z</time>
      </trkpt>
      <trkpt lat="45.07558" lon="5.83942">
        <ele>941.75</ele>
        <time>2020-09-13T12:50:16.000Z</time>
      </trkpt>
      <trkpt lat="45.07566" lon="5.8395">
        <ele>941.85</ele>
        <time>2020-09-13T12:50:21.000Z</time>
      </trkpt>
      <trkpt lat="45.07575" lon="5.83956">
        <ele>941.58</ele>
        <time>2020-09-13T12:50:26.000Z</time>
      </trkpt>
      <trkpt lat="45.07577" lon="5.83988">
        <ele>938.44</ele>
        <time>2020-09-13T12:50:31.000Z</time>
      </trkpt>
      <trkpt lat="45.07574" lon="5.84022">
        <ele>942.18</ele>
        <time>2020-09-13T12:50:36.000Z</time>
      </trkpt>
      <trkpt lat="45.07574" lon="5.84049">
        <ele>946.21</ele>
        <time>2020-09-13T12:50:41.000Z</time>
      </trkpt>
      <trkpt lat="45.07574" lon="5.84071">
        <ele>946.54</ele>
        <time>2020-09-13T12:50:46.000Z</time>
      </trkpt>
      <trkpt lat="45.07573" lon="5.84093">
        <ele>945.47</ele>
        <time>2020-09-13T12:50:51.000Z</time>
      </trkpt>
      <trkpt lat="45.07566" lon="5.84119">
        <ele>951.1</ele>
        <time>2020-09-13T12:50:56.000Z</time>
      </trkpt>
      <trkpt lat="45.0756" lon="5.8414">
        <ele>946.57</ele>
        <time>2020-09-13T12:51:01.000Z</time>
      </trkpt>
      <trkpt lat="45.07556" lon="5.84165">
        <ele>949.5</ele>
        <time>2020-09-13T12:51:06.000Z</time>
      </trkpt>
      <trkpt lat="45.07551" lon="5.84182">
        <ele>957.28</ele>
        <time>2020-09-13T12:51:11.000Z</time>
      </trkpt>
      <trkpt lat="45.07546" lon="5.84199">
        <ele>959.75</ele>
        <time>2020-09-13T12:51:16.000Z</time>
      </trkpt>
      <trkpt lat="45.07545" lon="5.84223">
        <ele>967.88</ele>
        <time>2020-09-13T12:51:21.000Z</time>
      </trkpt>
      <trkpt lat="45.07544" lon="5.84244">
        <ele>971.23</ele>
        <time>2020-09-13T12:51:26.000Z</time>
      </trkpt>
      <trkpt lat="45.07542" lon="5.84262">
        <ele>975.19</ele>
        <time>2020-09-13T12:51:31.000Z</time>
      </trkpt>
      <trkpt lat="45.07548" lon="5.84284">
        <ele>976.83</ele>
        <time>2020-09-13T12:51:36.000Z</time>
      </trkpt>
      <trkpt lat="45.0756" lon="5.84304">
        <ele>981.66</ele>
        <time>2020-09-13T12:51:41.000Z</time>
      </trkpt>
      <trkpt lat="45.07566" lon="5.8432">
        <ele>982.58</ele>
        <time>2020-09-13T12:51:46.000Z</time>
      </trkpt>
      <trkpt lat="45.07568" lon="5.84335">
        <ele>985.2</ele>
        <time>2020-09-13T12:51:51.000Z</time>
      </trkpt>
      <trkpt lat="45.07566" lon="5.8435">
        <ele>984.49</ele>
        <time>2020-09-13T12:51:57.000Z</time>
      </trkpt>
      <trkpt lat="45.07563" lon="5.84366">
        <ele>980.57</ele>
        <time>2020-09-13T12:52:02.000Z</time>
      </trkpt>
      <trkpt lat="45.07554" lon="5.84385">
        <ele>977.37</ele>
        <time>2020-09-13T12:52:07.000Z</time>
      </trkpt>
      <trkpt lat="45.07548" lon="5.84414">
        <ele>981.65</ele>
        <time>2020-09-13T12:52:12.000Z</time>
      </trkpt>
      <trkpt lat="45.07549" lon="5.84441">
        <ele>979.13</ele>
        <time>2020-09-13T12:52:17.000Z</time>
      </trkpt>
      <trkpt lat="45.0755" lon="5.84465">
        <ele>984.89</ele>
        <time>2020-09-13T12:52:22.000Z</time>
      </trkpt>
      <trkpt lat="45.0755" lon="5.84487">
        <ele>991.51</ele>
        <time>2020-09-13T12:52:27.000Z</time>
      </trkpt>
      <trkpt lat="45.07554" lon="5.84505">
        <ele>991.93</ele>
        <time>2020-09-13T12:52:32.000Z</time>
      </trkpt>
      <trkpt lat="45.07558" lon="5.84522">
        <ele>991.76</ele>
        <time>2020-09-13T12:52:37.000Z</time>
      </trkpt>
      <trkpt lat="45.07569" lon="5.84537">
        <ele>990.21</ele>
        <time>2020-09-13T12:52:42.000Z</time>
      </trkpt>
      <trkpt lat="45.07575" lon="5.84553">
        <ele>991.26</ele>
        <time>2020-09-13T12:52:47.000Z</time>
      </trkpt>
      <trkpt lat="45.07571" lon="5.84572">
        <ele>990.2</ele>
        <time>2020-09-13T12:52:52.000Z</time>
      </trkpt>
      <trkpt lat="45.07567" lon="5.84596">
        <ele>989.96</ele>
        <time>2020-09-13T12:52:57.000Z</time>
      </trkpt>
      <trkpt lat="45.07566" lon="5.84615">
        <ele>993.63</ele>
        <time>2020-09-13T12:53:02.000Z</time>
      </trkpt>
      <trkpt lat="45.07565" lon="5.84639">
        <ele>994.22</ele>
        <time>2020-09-13T12:53:07.000Z</time>
      </trkpt>
      <trkpt lat="45.07559" lon="5.84667">
        <ele>997.9</ele>
        <time>2020-09-13T12:53:12.000Z</time>
      </trkpt>
      <trkpt lat="45.07546" lon="5.84678">
        <ele>1006.24</ele>
        <time>2020-09-13T12:53:17.000Z</time>
      </trkpt>
      <trkpt lat="45.07528" lon="5.84679">
        <ele>1006.21</ele>
        <time>2020-09-13T12:53:22.000Z</time>
      </trkpt>
      <trkpt lat="45.07519" lon="5.84684">
        <ele>1006.05</ele>
        <time>2020-09-13T12:56:57.000Z</time>
      </trkpt>
      <trkpt lat="45.07505" lon="5.84683">
        <ele>1008.17</ele>
        <time>2020-09-13T12:57:02.000Z</time>
      </trkpt>
      <trkpt lat="45.07488" lon="5.84681">
        <ele>1009.63</ele>
        <time>2020-09-13T12:57:07.000Z</time>
      </trkpt>
      <trkpt lat="45.07477" lon="5.84672">
        <ele>1007.42</ele>
        <time>2020-09-13T12:57:12.000Z</time>
      </trkpt>
      <trkpt lat="45.07464" lon="5.84666">
        <ele>1012</ele>
        <time>2020-09-13T12:57:17.000Z</time>
      </trkpt>
      <trkpt lat="45.07448" lon="5.84665">
        <ele>1014.07</ele>
        <time>2020-09-13T12:57:22.000Z</time>
      </trkpt>
      <trkpt lat="45.07435" lon="5.84666">
        <ele>1009.38</ele>
        <time>2020-09-13T12:57:27.000Z</time>
      </trkpt>
      <trkpt lat="45.07423" lon="5.84664">
        <ele>1009.53</ele>
        <time>2020-09-13T12:57:32.000Z</time>
      </trkpt>
      <trkpt lat="45.0741" lon="5.8467">
        <ele>1007.85</ele>
        <time>2020-09-13T12:57:37.000Z</time>
      </trkpt>
      <trkpt lat="45.074" lon="5.84679">
        <ele>1006.25</ele>
        <time>2020-09-13T12:57:42.000Z</time>
      </trkpt>
      <trkpt lat="45.07401" lon="5.84693">
        <ele>1007.83</ele>
        <time>2020-09-13T12:57:47.000Z</time>
      </trkpt>
      <trkpt lat="45.07403" lon="5.84709">
        <ele>1011.3</ele>
        <time>2020-09-13T12:57:52.000Z</time>
      </trkpt>
      <trkpt lat="45.07405" lon="5.84726">
        <ele>1016.75</ele>
        <time>2020-09-13T12:57:57.000Z</time>
      </trkpt>
      <trkpt lat="45.07409" lon="5.84742">
        <ele>1021.57</ele>
        <time>2020-09-13T12:58:02.000Z</time>
      </trkpt>
      <trkpt lat="45.07422" lon="5.84753">
        <ele>1023.96</ele>
        <time>2020-09-13T12:58:07.000Z</time>
      </trkpt>
      <trkpt lat="45.07436" lon="5.84759">
        <ele>1027.19</ele>
        <time>2020-09-13T12:58:12.000Z</time>
      </trkpt>
      <trkpt lat="45.07447" lon="5.84765">
        <ele>1027.24</ele>
        <time>2020-09-13T12:58:17.000Z</time>
      </trkpt>
      <trkpt lat="45.0746" lon="5.84781">
        <ele>1030.29</ele>
        <time>2020-09-13T12:58:22.000Z</time>
      </trkpt>
      <trkpt lat="45.07472" lon="5.848">
        <ele>1031.16</ele>
        <time>2020-09-13T12:58:27.000Z</time>
      </trkpt>
      <trkpt lat="45.0749" lon="5.84813">
        <ele>1031.82</ele>
        <time>2020-09-13T12:58:32.000Z</time>
      </trkpt>
      <trkpt lat="45.07506" lon="5.84823">
        <ele>1031.87</ele>
        <time>2020-09-13T12:58:37.000Z</time>
      </trkpt>
      <trkpt lat="45.07522" lon="5.84837">
        <ele>1036.96</ele>
        <time>2020-09-13T12:58:42.000Z</time>
      </trkpt>
      <trkpt lat="45.07541" lon="5.84846">
        <ele>1035.6</ele>
        <time>2020-09-13T12:58:47.000Z</time>
      </trkpt>
      <trkpt lat="45.07559" lon="5.8486">
        <ele>1036.8</ele>
        <time>2020-09-13T12:58:52.000Z</time>
      </trkpt>
      <trkpt lat="45.0758" lon="5.8488">
        <ele>1040.32</ele>
        <time>2020-09-13T12:58:57.000Z</time>
      </trkpt>
      <trkpt lat="45.076" lon="5.84879">
        <ele>1041.91</ele>
        <time>2020-09-13T12:59:02.000Z</time>
      </trkpt>
      <trkpt lat="45.07616" lon="5.8487">
        <ele>1046.02</ele>
        <time>2020-09-13T12:59:07.000Z</time>
      </trkpt>
      <trkpt lat="45.07622" lon="5.84853">
        <ele>1047.39</ele>
        <time>2020-09-13T12:59:12.000Z</time>
      </trkpt>
      <trkpt lat="45.07628" lon="5.84839">
        <ele>1046.4</ele>
        <time>2020-09-13T12:59:17.000Z</time>
      </trkpt>
      <trkpt lat="45.07639" lon="5.84827">
        <ele>1048.65</ele>
        <time>2020-09-13T12:59:22.000Z</time>
      </trkpt>
      <trkpt lat="45.07651" lon="5.84817">
        <ele>1050.46</ele>
        <time>2020-09-13T12:59:27.000Z</time>
      </trkpt>
      <trkpt lat="45.07662" lon="5.84807">
        <ele>1050.78</ele>
        <time>2020-09-13T12:59:32.000Z</time>
      </trkpt>
      <trkpt lat="45.07676" lon="5.84796">
        <ele>1053.37</ele>
        <time>2020-09-13T12:59:37.000Z</time>
      </trkpt>
      <trkpt lat="45.0769" lon="5.84786">
        <ele>1051.95</ele>
        <time>2020-09-13T12:59:42.000Z</time>
      </trkpt>
      <trkpt lat="45.07703" lon="5.84778">
        <ele>1052.47</ele>
        <time>2020-09-13T12:59:47.000Z</time>
      </trkpt>
      <trkpt lat="45.07715" lon="5.84769">
        <ele>1052.01</ele>
        <time>2020-09-13T12:59:52.000Z</time>
      </trkpt>
      <trkpt lat="45.07727" lon="5.84759">
        <ele>1054.86</ele>
        <time>2020-09-13T12:59:57.000Z</time>
      </trkpt>
      <trkpt lat="45.07732" lon="5.84742">
        <ele>1058.55</ele>
        <time>2020-09-13T13:00:02.000Z</time>
      </trkpt>
      <trkpt lat="45.07741" lon="5.84724">
        <ele>1060.66</ele>
        <time>2020-09-13T13:00:07.000Z</time>
      </trkpt>
      <trkpt lat="45.07756" lon="5.84718">
        <ele>1058.05</ele>
        <time>2020-09-13T13:00:12.000Z</time>
      </trkpt>
      <trkpt lat="45.07767" lon="5.84727">
        <ele>1057.61</ele>
        <time>2020-09-13T13:00:17.000Z</time>
      </trkpt>
      <trkpt lat="45.07776" lon="5.84739">
        <ele>1058.24</ele>
        <time>2020-09-13T13:00:22.000Z</time>
      </trkpt>
      <trkpt lat="45.07791" lon="5.84743">
        <ele>1057.7</ele>
        <time>2020-09-13T13:00:27.000Z</time>
      </trkpt>
      <trkpt lat="45.07806" lon="5.84739">
        <ele>1059.58</ele>
        <time>2020-09-13T13:00:32.000Z</time>
      </trkpt>
      <trkpt lat="45.07816" lon="5.84725">
        <ele>1062.72</ele>
        <time>2020-09-13T13:00:37.000Z</time>
      </trkpt>
      <trkpt lat="45.07822" lon="5.84706">
        <ele>1066.28</ele>
        <time>2020-09-13T13:00:42.000Z</time>
      </trkpt>
      <trkpt lat="45.07827" lon="5.84687">
        <ele>1067.52</ele>
        <time>2020-09-13T13:00:47.000Z</time>
      </trkpt>
      <trkpt lat="45.07827" lon="5.84663">
        <ele>1067.45</ele>
        <time>2020-09-13T13:00:52.000Z</time>
      </trkpt>
      <trkpt lat="45.07829" lon="5.84639">
        <ele>1070.75</ele>
        <time>2020-09-13T13:00:57.000Z</time>
      </trkpt>
      <trkpt lat="45.07834" lon="5.84619">
        <ele>1074.74</ele>
        <time>2020-09-13T13:01:02.000Z</time>
      </trkpt>
      <trkpt lat="45.07839" lon="5.84601">
        <ele>1080.87</ele>
        <time>2020-09-13T13:01:07.000Z</time>
      </trkpt>
      <trkpt lat="45.07847" lon="5.84586">
        <ele>1084</ele>
        <time>2020-09-13T13:01:12.000Z</time>
      </trkpt>
      <trkpt lat="45.07857" lon="5.84572">
        <ele>1086.38</ele>
        <time>2020-09-13T13:01:17.000Z</time>
      </trkpt>
      <trkpt lat="45.07867" lon="5.84558">
        <ele>1085.47</ele>
        <time>2020-09-13T13:01:22.000Z</time>
      </trkpt>
      <trkpt lat="45.07874" lon="5.84541">
        <ele>1084.99</ele>
        <time>2020-09-13T13:01:27.000Z</time>
      </trkpt>
      <trkpt lat="45.07884" lon="5.84527">
        <ele>1081.44</ele>
        <time>2020-09-13T13:01:32.000Z</time>
      </trkpt>
      <trkpt lat="45.079" lon="5.84525">
        <ele>1081.45</ele>
        <time>2020-09-13T13:01:37.000Z</time>
      </trkpt>
      <trkpt lat="45.07912" lon="5.84507">
        <ele>1085.21</ele>
        <time>2020-09-13T13:01:42.000Z</time>
      </trkpt>
      <trkpt lat="45.07919" lon="5.84485">
        <ele>1087.93</ele>
        <time>2020-09-13T13:01:47.000Z</time>
      </trkpt>
      <trkpt lat="45.07925" lon="5.84466">
        <ele>1091.54</ele>
        <time>2020-09-13T13:01:52.000Z</time>
      </trkpt>
      <trkpt lat="45.07938" lon="5.84462">
        <ele>1088.42</ele>
        <time>2020-09-13T13:01:57.000Z</time>
      </trkpt>
      <trkpt lat="45.07948" lon="5.84454">
        <ele>1094.38</ele>
        <time>2020-09-13T13:02:02.000Z</time>
      </trkpt>
      <trkpt lat="45.07958" lon="5.84436">
        <ele>1098.24</ele>
        <time>2020-09-13T13:02:07.000Z</time>
      </trkpt>
      <trkpt lat="45.07964" lon="5.84409">
        <ele>1104.34</ele>
        <time>2020-09-13T13:02:12.000Z</time>
      </trkpt>
      <trkpt lat="45.07969" lon="5.84385">
        <ele>1108.73</ele>
        <time>2020-09-13T13:02:17.000Z</time>
      </trkpt>
      <trkpt lat="45.07979" lon="5.84367">
        <ele>1110.28</ele>
        <time>2020-09-13T13:02:22.000Z</time>
      </trkpt>
      <trkpt lat="45.07985" lon="5.84348">
        <ele>1113.3</ele>
        <time>2020-09-13T13:02:27.000Z</time>
      </trkpt>
      <trkpt lat="45.0799" lon="5.84327">
        <ele>1115.84</ele>
        <time>2020-09-13T13:02:32.000Z</time>
      </trkpt>
      <trkpt lat="45.07993" lon="5.84306">
        <ele>1116.12</ele>
        <time>2020-09-13T13:02:37.000Z</time>
      </trkpt>
      <trkpt lat="45.07996" lon="5.84288">
        <ele>1115.78</ele>
        <time>2020-09-13T13:02:42.000Z</time>
      </trkpt>
      <trkpt lat="45.08" lon="5.84271">
        <ele>1119.5</ele>
        <time>2020-09-13T13:02:47.000Z</time>
      </trkpt>
      <trkpt lat="45.08008" lon="5.84247">
        <ele>1118.72</ele>
        <time>2020-09-13T13:02:52.000Z</time>
      </trkpt>
      <trkpt lat="45.0801" lon="5.84228">
        <ele>1118.92</ele>
        <time>2020-09-13T13:02:57.000Z</time>
      </trkpt>
      <trkpt lat="45.08013" lon="5.84204">
        <ele>1121</ele>
        <time>2020-09-13T13:03:02.000Z</time>
      </trkpt>
      <trkpt lat="45.08014" lon="5.84183">
        <ele>1122.98</ele>
        <time>2020-09-13T13:03:07.000Z</time>
      </trkpt>
      <trkpt lat="45.08014" lon="5.84168">
        <ele>1124.55</ele>
        <time>2020-09-13T13:03:13.000Z</time>
      </trkpt>
      <trkpt lat="45.08011" lon="5.84151">
        <ele>1126.43</ele>
        <time>2020-09-13T13:03:18.000Z</time>
      </trkpt>
      <trkpt lat="45.08006" lon="5.84131">
        <ele>1125.51</ele>
        <time>2020-09-13T13:03:23.000Z</time>
      </trkpt>
      <trkpt lat="45.08003" lon="5.84111">
        <ele>1126.5</ele>
        <time>2020-09-13T13:03:28.000Z</time>
      </trkpt>
      <trkpt lat="45.07999" lon="5.84081">
        <ele>1128.96</ele>
        <time>2020-09-13T13:03:33.000Z</time>
      </trkpt>
      <trkpt lat="45.08004" lon="5.84065">
        <ele>1133.6</ele>
        <time>2020-09-13T13:03:38.000Z</time>
      </trkpt>
      <trkpt lat="45.08014" lon="5.84057">
        <ele>1135.84</ele>
        <time>2020-09-13T13:03:43.000Z</time>
      </trkpt>
      <trkpt lat="45.08018" lon="5.84069">
        <ele>1144.82</ele>
        <time>2020-09-13T13:08:10.000Z</time>
      </trkpt>
      <trkpt lat="45.08028" lon="5.84087">
        <ele>1145.99</ele>
        <time>2020-09-13T13:08:15.000Z</time>
      </trkpt>
      <trkpt lat="45.08035" lon="5.84103">
        <ele>1143.33</ele>
        <time>2020-09-13T13:08:20.000Z</time>
      </trkpt>
      <trkpt lat="45.08042" lon="5.84117">
        <ele>1143.7</ele>
        <time>2020-09-13T13:08:25.000Z</time>
      </trkpt>
      <trkpt lat="45.08049" lon="5.84133">
        <ele>1148.88</ele>
        <time>2020-09-13T13:08:30.000Z</time>
      </trkpt>
      <trkpt lat="45.08057" lon="5.84155">
        <ele>1152.81</ele>
        <time>2020-09-13T13:08:35.000Z</time>
      </trkpt>
      <trkpt lat="45.08067" lon="5.8417">
        <ele>1152.08</ele>
        <time>2020-09-13T13:08:40.000Z</time>
      </trkpt>
      <trkpt lat="45.08081" lon="5.84187">
        <ele>1150.19</ele>
        <time>2020-09-13T13:08:45.000Z</time>
      </trkpt>
      <trkpt lat="45.08089" lon="5.84203">
        <ele>1148.43</ele>
        <time>2020-09-13T13:08:50.000Z</time>
      </trkpt>
      <trkpt lat="45.08099" lon="5.84217">
        <ele>1146.01</ele>
        <time>2020-09-13T13:08:55.000Z</time>
      </trkpt>
      <trkpt lat="45.08109" lon="5.84233">
        <ele>1146.52</ele>
        <time>2020-09-13T13:09:00.000Z</time>
      </trkpt>
      <trkpt lat="45.08118" lon="5.84252">
        <ele>1149.89</ele>
        <time>2020-09-13T13:09:05.000Z</time>
      </trkpt>
      <trkpt lat="45.08127" lon="5.8427">
        <ele>1149.34</ele>
        <time>2020-09-13T13:09:10.000Z</time>
      </trkpt>
      <trkpt lat="45.08134" lon="5.84288">
        <ele>1150.2</ele>
        <time>2020-09-13T13:09:15.000Z</time>
      </trkpt>
      <trkpt lat="45.08134" lon="5.8431">
        <ele>1151.15</ele>
        <time>2020-09-13T13:09:20.000Z</time>
      </trkpt>
      <trkpt lat="45.08131" lon="5.84335">
        <ele>1153.81</ele>
        <time>2020-09-13T13:09:25.000Z</time>
      </trkpt>
      <trkpt lat="45.08136" lon="5.84356">
        <ele>1153.83</ele>
        <time>2020-09-13T13:09:30.000Z</time>
      </trkpt>
      <trkpt lat="45.08148" lon="5.84371">
        <ele>1156.04</ele>
        <time>2020-09-13T13:09:35.000Z</time>
      </trkpt>
      <trkpt lat="45.08153" lon="5.8439">
        <ele>1160.22</ele>
        <time>2020-09-13T13:09:40.000Z</time>
      </trkpt>
      <trkpt lat="45.08157" lon="5.84407">
        <ele>1163.1</ele>
        <time>2020-09-13T13:09:45.000Z</time>
      </trkpt>
      <trkpt lat="45.08165" lon="5.84425">
        <ele>1167</ele>
        <time>2020-09-13T13:09:50.000Z</time>
      </trkpt>
      <trkpt lat="45.08174" lon="5.84443">
        <ele>1169.15</ele>
        <time>2020-09-13T13:09:55.000Z</time>
      </trkpt>
      <trkpt lat="45.08176" lon="5.84461">
        <ele>1172.19</ele>
        <time>2020-09-13T13:10:00.000Z</time>
      </trkpt>
      <trkpt lat="45.08185" lon="5.84477">
        <ele>1173.59</ele>
        <time>2020-09-13T13:10:05.000Z</time>
      </trkpt>
      <trkpt lat="45.08186" lon="5.84491">
        <ele>1174.22</ele>
        <time>2020-09-13T13:10:10.000Z</time>
      </trkpt>
      <trkpt lat="45.08197" lon="5.84502">
        <ele>1175.89</ele>
        <time>2020-09-13T13:10:15.000Z</time>
      </trkpt>
      <trkpt lat="45.08205" lon="5.84511">
        <ele>1178.72</ele>
        <time>2020-09-13T13:10:20.000Z</time>
      </trkpt>
      <trkpt lat="45.08213" lon="5.84529">
        <ele>1176.67</ele>
        <time>2020-09-13T13:10:25.000Z</time>
      </trkpt>
      <trkpt lat="45.08217" lon="5.84551">
        <ele>1177.04</ele>
        <time>2020-09-13T13:10:30.000Z</time>
      </trkpt>
      <trkpt lat="45.08224" lon="5.84569">
        <ele>1178.62</ele>
        <time>2020-09-13T13:10:35.000Z</time>
      </trkpt>
      <trkpt lat="45.08228" lon="5.84583">
        <ele>1179.97</ele>
        <time>2020-09-13T13:10:40.000Z</time>
      </trkpt>
      <trkpt lat="45.08232" lon="5.84604">
        <ele>1182.99</ele>
        <time>2020-09-13T13:10:45.000Z</time>
      </trkpt>
      <trkpt lat="45.08236" lon="5.84622">
        <ele>1181.79</ele>
        <time>2020-09-13T13:10:50.000Z</time>
      </trkpt>
      <trkpt lat="45.08241" lon="5.84646">
        <ele>1179.61</ele>
        <time>2020-09-13T13:10:55.000Z</time>
      </trkpt>
      <trkpt lat="45.08243" lon="5.84668">
        <ele>1181.61</ele>
        <time>2020-09-13T13:11:00.000Z</time>
      </trkpt>
      <trkpt lat="45.08243" lon="5.84694">
        <ele>1188.1</ele>
        <time>2020-09-13T13:11:05.000Z</time>
      </trkpt>
      <trkpt lat="45.08246" lon="5.84715">
        <ele>1190.22</ele>
        <time>2020-09-13T13:11:10.000Z</time>
      </trkpt>
      <trkpt lat="45.08246" lon="5.84739">
        <ele>1191.73</ele>
        <time>2020-09-13T13:11:15.000Z</time>
      </trkpt>
      <trkpt lat="45.08246" lon="5.84756">
        <ele>1195.26</ele>
        <time>2020-09-13T13:11:20.000Z</time>
      </trkpt>
      <trkpt lat="45.08251" lon="5.84778">
        <ele>1197.32</ele>
        <time>2020-09-13T13:11:25.000Z</time>
      </trkpt>
      <trkpt lat="45.08252" lon="5.84807">
        <ele>1205.6</ele>
        <time>2020-09-13T13:11:30.000Z</time>
      </trkpt>
      <trkpt lat="45.08251" lon="5.84836">
        <ele>1217.76</ele>
        <time>2020-09-13T13:11:35.000Z</time>
      </trkpt>
      <trkpt lat="45.0825" lon="5.8486">
        <ele>1225.03</ele>
        <time>2020-09-13T13:11:40.000Z</time>
      </trkpt>
      <trkpt lat="45.08259" lon="5.84885">
        <ele>1226.4</ele>
        <time>2020-09-13T13:11:45.000Z</time>
      </trkpt>
      <trkpt lat="45.08267" lon="5.84909">
        <ele>1227.26</ele>
        <time>2020-09-13T13:11:50.000Z</time>
      </trkpt>
      <trkpt lat="45.08275" lon="5.84931">
        <ele>1230.25</ele>
        <time>2020-09-13T13:11:55.000Z</time>
      </trkpt>
      <trkpt lat="45.08283" lon="5.84947">
        <ele>1230.08</ele>
        <time>2020-09-13T13:12:00.000Z</time>
      </trkpt>
      <trkpt lat="45.08294" lon="5.84961">
        <ele>1235.9</ele>
        <time>2020-09-13T13:12:05.000Z</time>
      </trkpt>
      <trkpt lat="45.08312" lon="5.84973">
        <ele>1238.13</ele>
        <time>2020-09-13T13:12:10.000Z</time>
      </trkpt>
      <trkpt lat="45.08323" lon="5.84989">
        <ele>1238.46</ele>
        <time>2020-09-13T13:12:15.000Z</time>
      </trkpt>
      <trkpt lat="45.08333" lon="5.85001">
        <ele>1241.85</ele>
        <time>2020-09-13T13:12:20.000Z</time>
      </trkpt>
      <trkpt lat="45.08341" lon="5.85015">
        <ele>1242.29</ele>
        <time>2020-09-13T13:12:25.000Z</time>
      </trkpt>
      <trkpt lat="45.08352" lon="5.85028">
        <ele>1244.79</ele>
        <time>2020-09-13T13:12:30.000Z</time>
      </trkpt>
      <trkpt lat="45.08365" lon="5.85031">
        <ele>1246.14</ele>
        <time>2020-09-13T13:12:35.000Z</time>
      </trkpt>
      <trkpt lat="45.0838" lon="5.85026">
        <ele>1248.08</ele>
        <time>2020-09-13T13:12:40.000Z</time>
      </trkpt>
      <trkpt lat="45.08393" lon="5.85013">
        <ele>1248.28</ele>
        <time>2020-09-13T13:12:45.000Z</time>
      </trkpt>
      <trkpt lat="45.08402" lon="5.84995">
        <ele>1248.48</ele>
        <time>2020-09-13T13:12:50.000Z</time>
      </trkpt>
      <trkpt lat="45.08403" lon="5.8498">
        <ele>1247.6</ele>
        <time>2020-09-13T13:12:55.000Z</time>
      </trkpt>
      <trkpt lat="45.08401" lon="5.84967">
        <ele>1249.75</ele>
        <time>2020-09-13T13:35:59.000Z</time>
      </trkpt>
      <trkpt lat="45.08395" lon="5.84954">
        <ele>1250.73</ele>
        <time>2020-09-13T13:36:06.000Z</time>
      </trkpt>
      <trkpt lat="45.08388" lon="5.84943">
        <ele>1255.07</ele>
        <time>2020-09-13T13:36:11.000Z</time>
      </trkpt>
      <trkpt lat="45.08383" lon="5.84931">
        <ele>1256.53</ele>
        <time>2020-09-13T13:36:16.000Z</time>
      </trkpt>
      <trkpt lat="45.08379" lon="5.8492">
        <ele>1257.56</ele>
        <time>2020-09-13T13:36:21.000Z</time>
      </trkpt>
      <trkpt lat="45.08377" lon="5.84906">
        <ele>1260.21</ele>
        <time>2020-09-13T13:36:27.000Z</time>
      </trkpt>
      <trkpt lat="45.0838" lon="5.84892">
        <ele>1260.6</ele>
        <time>2020-09-13T13:36:34.000Z</time>
      </trkpt>
      <trkpt lat="45.08382" lon="5.84878">
        <ele>1260.38</ele>
        <time>2020-09-13T13:36:40.000Z</time>
      </trkpt>
      <trkpt lat="45.08385" lon="5.84865">
        <ele>1257.77</ele>
        <time>2020-09-13T13:36:46.000Z</time>
      </trkpt>
      <trkpt lat="45.08388" lon="5.84852">
        <ele>1258.71</ele>
        <time>2020-09-13T13:36:52.000Z</time>
      </trkpt>
      <trkpt lat="45.08391" lon="5.84839">
        <ele>1259.6</ele>
        <time>2020-09-13T13:36:57.000Z</time>
      </trkpt>
      <trkpt lat="45.08395" lon="5.84826">
        <ele>1256.45</ele>
        <time>2020-09-13T13:37:03.000Z</time>
      </trkpt>
      <trkpt lat="45.084" lon="5.84815">
        <ele>1254.28</ele>
        <time>2020-09-13T13:37:08.000Z</time>
      </trkpt>
      <trkpt lat="45.08399" lon="5.84802">
        <ele>1256.63</ele>
        <time>2020-09-13T13:37:13.000Z</time>
      </trkpt>
      <trkpt lat="45.08407" lon="5.84797">
        <ele>1261.23</ele>
        <time>2020-09-13T13:37:39.000Z</time>
      </trkpt>
      <trkpt lat="45.08415" lon="5.84783">
        <ele>1265.14</ele>
        <time>2020-09-13T13:37:44.000Z</time>
      </trkpt>
      <trkpt lat="45.08423" lon="5.84771">
        <ele>1265.08</ele>
        <time>2020-09-13T13:37:50.000Z</time>
      </trkpt>
      <trkpt lat="45.08433" lon="5.8476">
        <ele>1264.4</ele>
        <time>2020-09-13T13:37:55.000Z</time>
      </trkpt>
      <trkpt lat="45.08442" lon="5.84759">
        <ele>1267.13</ele>
        <time>2020-09-13T13:38:01.000Z</time>
      </trkpt>
      <trkpt lat="45.08452" lon="5.84755">
        <ele>1268.88</ele>
        <time>2020-09-13T13:38:08.000Z</time>
      </trkpt>
      <trkpt lat="45.08462" lon="5.84754">
        <ele>1266.23</ele>
        <time>2020-09-13T13:38:14.000Z</time>
      </trkpt>
      <trkpt lat="45.08472" lon="5.84755">
        <ele>1265.43</ele>
        <time>2020-09-13T13:38:21.000Z</time>
      </trkpt>
      <trkpt lat="45.08481" lon="5.84756">
        <ele>1266.48</ele>
        <time>2020-09-13T13:38:26.000Z</time>
      </trkpt>
      <trkpt lat="45.08475" lon="5.84745">
        <ele>1256.59</ele>
        <time>2020-09-13T13:38:40.000Z</time>
      </trkpt>
      <trkpt lat="45.08478" lon="5.8473">
        <ele>1258.28</ele>
        <time>2020-09-13T13:38:47.000Z</time>
      </trkpt>
      <trkpt lat="45.08495" lon="5.84711">
        <ele>1254.61</ele>
        <time>2020-09-13T13:38:52.000Z</time>
      </trkpt>
      <trkpt lat="45.08486" lon="5.84758">
        <ele>1251.04</ele>
        <time>2020-09-13T13:38:57.000Z</time>
      </trkpt>
      <trkpt lat="45.08477" lon="5.84777">
        <ele>1254.1</ele>
        <time>2020-09-13T13:39:02.000Z</time>
      </trkpt>
      <trkpt lat="45.0848" lon="5.84731">
        <ele>1254.1</ele>
        <time>2020-09-13T13:39:07.000Z</time>
      </trkpt>
      <trkpt lat="45.08488" lon="5.8472">
        <ele>1257.58</ele>
        <time>2020-09-13T13:39:12.000Z</time>
      </trkpt>
      <trkpt lat="45.08473" lon="5.84741">
        <ele>1261.34</ele>
        <time>2020-09-13T13:39:17.000Z</time>
      </trkpt>
      <trkpt lat="45.08481" lon="5.8475">
        <ele>1260.22</ele>
        <time>2020-09-13T13:39:23.000Z</time>
      </trkpt>
      <trkpt lat="45.08492" lon="5.84759">
        <ele>1266.66</ele>
        <time>2020-09-13T13:39:28.000Z</time>
      </trkpt>
      <trkpt lat="45.08502" lon="5.84762">
        <ele>1269.89</ele>
        <time>2020-09-13T13:39:33.000Z</time>
      </trkpt>
      <trkpt lat="45.08512" lon="5.84763">
        <ele>1269.95</ele>
        <time>2020-09-13T13:39:39.000Z</time>
      </trkpt>
      <trkpt lat="45.08522" lon="5.84765">
        <ele>1270.06</ele>
        <time>2020-09-13T13:39:44.000Z</time>
      </trkpt>
      <trkpt lat="45.08535" lon="5.84764">
        <ele>1272.72</ele>
        <time>2020-09-13T13:39:49.000Z</time>
      </trkpt>
      <trkpt lat="45.0855" lon="5.84759">
        <ele>1273.05</ele>
        <time>2020-09-13T13:39:54.000Z</time>
      </trkpt>
      <trkpt lat="45.08568" lon="5.84752">
        <ele>1268.76</ele>
        <time>2020-09-13T13:39:59.000Z</time>
      </trkpt>
      <trkpt lat="45.08587" lon="5.84746">
        <ele>1266.06</ele>
        <time>2020-09-13T13:40:04.000Z</time>
      </trkpt>
      <trkpt lat="45.08609" lon="5.84748">
        <ele>1267.81</ele>
        <time>2020-09-13T13:40:09.000Z</time>
      </trkpt>
      <trkpt lat="45.08635" lon="5.84759">
        <ele>1266.56</ele>
        <time>2020-09-13T13:40:14.000Z</time>
      </trkpt>
      <trkpt lat="45.08657" lon="5.84767">
        <ele>1269.16</ele>
        <time>2020-09-13T13:40:19.000Z</time>
      </trkpt>
      <trkpt lat="45.08673" lon="5.84777">
        <ele>1268.48</ele>
        <time>2020-09-13T13:40:24.000Z</time>
      </trkpt>
      <trkpt lat="45.08683" lon="5.84786">
        <ele>1256.19</ele>
        <time>2020-09-13T13:51:51.000Z</time>
      </trkpt>
      <trkpt lat="45.08699" lon="5.84808">
        <ele>1258.99</ele>
        <time>2020-09-13T13:51:56.000Z</time>
      </trkpt>
      <trkpt lat="45.08716" lon="5.84832">
        <ele>1265.92</ele>
        <time>2020-09-13T13:52:01.000Z</time>
      </trkpt>
      <trkpt lat="45.0873" lon="5.84856">
        <ele>1269.73</ele>
        <time>2020-09-13T13:52:06.000Z</time>
      </trkpt>
      <trkpt lat="45.08746" lon="5.84873">
        <ele>1269.44</ele>
        <time>2020-09-13T13:52:11.000Z</time>
      </trkpt>
      <trkpt lat="45.08762" lon="5.84881">
        <ele>1267.82</ele>
        <time>2020-09-13T13:52:16.000Z</time>
      </trkpt>
      <trkpt lat="45.08778" lon="5.84881">
        <ele>1270.01</ele>
        <time>2020-09-13T13:52:21.000Z</time>
      </trkpt>
      <trkpt lat="45.08799" lon="5.84867">
        <ele>1266.33</ele>
        <time>2020-09-13T13:52:26.000Z</time>
      </trkpt>
      <trkpt lat="45.08824" lon="5.84857">
        <ele>1266.77</ele>
        <time>2020-09-13T13:52:31.000Z</time>
      </trkpt>
      <trkpt lat="45.08837" lon="5.84845">
        <ele>1265.27</ele>
        <time>2020-09-13T13:52:36.000Z</time>
      </trkpt>
      <trkpt lat="45.08851" lon="5.8485">
        <ele>1265.4</ele>
        <time>2020-09-13T13:52:41.000Z</time>
      </trkpt>
      <trkpt lat="45.08871" lon="5.84845">
        <ele>1266.02</ele>
        <time>2020-09-13T13:52:46.000Z</time>
      </trkpt>
      <trkpt lat="45.08888" lon="5.84837">
        <ele>1264.51</ele>
        <time>2020-09-13T13:52:51.000Z</time>
      </trkpt>
      <trkpt lat="45.08906" lon="5.84833">
        <ele>1261.26</ele>
        <time>2020-09-13T13:52:56.000Z</time>
      </trkpt>
      <trkpt lat="45.08926" lon="5.84838">
        <ele>1262.64</ele>
        <time>2020-09-13T13:53:01.000Z</time>
      </trkpt>
      <trkpt lat="45.08942" lon="5.84852">
        <ele>1258.55</ele>
        <time>2020-09-13T13:53:06.000Z</time>
      </trkpt>
      <trkpt lat="45.08963" lon="5.84859">
        <ele>1258.12</ele>
        <time>2020-09-13T13:53:11.000Z</time>
      </trkpt>
      <trkpt lat="45.08979" lon="5.84867">
        <ele>1259.12</ele>
        <time>2020-09-13T13:53:16.000Z</time>
      </trkpt>
      <trkpt lat="45.08993" lon="5.84878">
        <ele>1262.73</ele>
        <time>2020-09-13T13:53:21.000Z</time>
      </trkpt>
      <trkpt lat="45.09012" lon="5.84899">
        <ele>1265</ele>
        <time>2020-09-13T13:53:26.000Z</time>
      </trkpt>
      <trkpt lat="45.09027" lon="5.84923">
        <ele>1265.25</ele>
        <time>2020-09-13T13:53:31.000Z</time>
      </trkpt>
      <trkpt lat="45.09041" lon="5.8495">
        <ele>1265.01</ele>
        <time>2020-09-13T13:53:36.000Z</time>
      </trkpt>
      <trkpt lat="45.09055" lon="5.84963">
        <ele>1265.84</ele>
        <time>2020-09-13T13:53:41.000Z</time>
      </trkpt>
      <trkpt lat="45.09084" lon="5.84964">
        <ele>1265.63</ele>
        <time>2020-09-13T13:53:46.000Z</time>
      </trkpt>
      <trkpt lat="45.09105" lon="5.84959">
        <ele>1266.29</ele>
        <time>2020-09-13T13:53:51.000Z</time>
      </trkpt>
      <trkpt lat="45.09123" lon="5.84942">
        <ele>1268.75</ele>
        <time>2020-09-13T13:53:56.000Z</time>
      </trkpt>
      <trkpt lat="45.09138" lon="5.8491">
        <ele>1272.22</ele>
        <time>2020-09-13T13:54:01.000Z</time>
      </trkpt>
      <trkpt lat="45.09139" lon="5.8489">
        <ele>1270.53</ele>
        <time>2020-09-13T13:54:06.000Z</time>
      </trkpt>
      <trkpt lat="45.09149" lon="5.84879">
        <ele>1270.44</ele>
        <time>2020-09-13T13:54:11.000Z</time>
      </trkpt>
      <trkpt lat="45.09139" lon="5.84884">
        <ele>1269.11</ele>
        <time>2020-09-13T13:54:18.000Z</time>
      </trkpt>
      <trkpt lat="45.09141" lon="5.84901">
        <ele>1268.23</ele>
        <time>2020-09-13T13:54:50.000Z</time>
      </trkpt>
      <trkpt lat="45.09149" lon="5.84921">
        <ele>1271.27</ele>
        <time>2020-09-13T13:54:55.000Z</time>
      </trkpt>
      <trkpt lat="45.09155" lon="5.84942">
        <ele>1272.2</ele>
        <time>2020-09-13T13:55:00.000Z</time>
      </trkpt>
      <trkpt lat="45.09154" lon="5.84965">
        <ele>1273.37</ele>
        <time>2020-09-13T13:55:05.000Z</time>
      </trkpt>
      <trkpt lat="45.09143" lon="5.84984">
        <ele>1275.88</ele>
        <time>2020-09-13T13:55:10.000Z</time>
      </trkpt>
      <trkpt lat="45.09131" lon="5.85002">
        <ele>1276.86</ele>
        <time>2020-09-13T13:55:15.000Z</time>
      </trkpt>
      <trkpt lat="45.09125" lon="5.85019">
        <ele>1277.87</ele>
        <time>2020-09-13T13:55:20.000Z</time>
      </trkpt>
      <trkpt lat="45.09116" lon="5.85031">
        <ele>1278.13</ele>
        <time>2020-09-13T13:55:25.000Z</time>
      </trkpt>
      <trkpt lat="45.09102" lon="5.85033">
        <ele>1280.47</ele>
        <time>2020-09-13T13:55:30.000Z</time>
      </trkpt>
      <trkpt lat="45.09089" lon="5.85031">
        <ele>1281.66</ele>
        <time>2020-09-13T13:55:35.000Z</time>
      </trkpt>
      <trkpt lat="45.09079" lon="5.85029">
        <ele>1282.23</ele>
        <time>2020-09-13T13:55:40.000Z</time>
      </trkpt>
      <trkpt lat="45.09063" lon="5.85023">
        <ele>1278.54</ele>
        <time>2020-09-13T13:55:45.000Z</time>
      </trkpt>
      <trkpt lat="45.09047" lon="5.85027">
        <ele>1278.86</ele>
        <time>2020-09-13T13:55:50.000Z</time>
      </trkpt>
      <trkpt lat="45.09031" lon="5.85028">
        <ele>1278.84</ele>
        <time>2020-09-13T13:55:55.000Z</time>
      </trkpt>
      <trkpt lat="45.09015" lon="5.85025">
        <ele>1281.45</ele>
        <time>2020-09-13T13:56:00.000Z</time>
      </trkpt>
      <trkpt lat="45.09008" lon="5.85035">
        <ele>1286.09</ele>
        <time>2020-09-13T13:56:07.000Z</time>
      </trkpt>
      <trkpt lat="45.09013" lon="5.85055">
        <ele>1285.88</ele>
        <time>2020-09-13T13:56:12.000Z</time>
      </trkpt>
      <trkpt lat="45.09026" lon="5.85074">
        <ele>1288.75</ele>
        <time>2020-09-13T13:56:17.000Z</time>
      </trkpt>
      <trkpt lat="45.0904" lon="5.85092">
        <ele>1287.77</ele>
        <time>2020-09-13T13:56:22.000Z</time>
      </trkpt>
      <trkpt lat="45.09047" lon="5.85105">
        <ele>1286.86</ele>
        <time>2020-09-13T13:56:27.000Z</time>
      </trkpt>
      <trkpt lat="45.09056" lon="5.85119">
        <ele>1288.35</ele>
        <time>2020-09-13T13:56:32.000Z</time>
      </trkpt>
      <trkpt lat="45.09068" lon="5.85141">
        <ele>1288.58</ele>
        <time>2020-09-13T13:56:37.000Z</time>
      </trkpt>
      <trkpt lat="45.09079" lon="5.85161">
        <ele>1288.27</ele>
        <time>2020-09-13T13:56:42.000Z</time>
      </trkpt>
      <trkpt lat="45.09093" lon="5.85174">
        <ele>1289.78</ele>
        <time>2020-09-13T13:56:47.000Z</time>
      </trkpt>
      <trkpt lat="45.09115" lon="5.8518">
        <ele>1292.39</ele>
        <time>2020-09-13T13:56:52.000Z</time>
      </trkpt>
      <trkpt lat="45.09133" lon="5.85182">
        <ele>1292.75</ele>
        <time>2020-09-13T13:56:57.000Z</time>
      </trkpt>
      <trkpt lat="45.09154" lon="5.85181">
        <ele>1296.15</ele>
        <time>2020-09-13T13:57:02.000Z</time>
      </trkpt>
      <trkpt lat="45.09178" lon="5.85179">
        <ele>1299.26</ele>
        <time>2020-09-13T13:57:07.000Z</time>
      </trkpt>
      <trkpt lat="45.092" lon="5.85172">
        <ele>1301.07</ele>
        <time>2020-09-13T13:57:12.000Z</time>
      </trkpt>
      <trkpt lat="45.09221" lon="5.85174">
        <ele>1302.72</ele>
        <time>2020-09-13T13:57:17.000Z</time>
      </trkpt>
      <trkpt lat="45.09243" lon="5.85178">
        <ele>1303.52</ele>
        <time>2020-09-13T13:57:22.000Z</time>
      </trkpt>
      <trkpt lat="45.09258" lon="5.85179">
        <ele>1305.75</ele>
        <time>2020-09-13T13:57:27.000Z</time>
      </trkpt>
      <trkpt lat="45.09277" lon="5.85176">
        <ele>1308.44</ele>
        <time>2020-09-13T13:57:32.000Z</time>
      </trkpt>
      <trkpt lat="45.09297" lon="5.85173">
        <ele>1312.98</ele>
        <time>2020-09-13T13:57:37.000Z</time>
      </trkpt>
      <trkpt lat="45.09315" lon="5.85183">
        <ele>1318.35</ele>
        <time>2020-09-13T13:57:42.000Z</time>
      </trkpt>
      <trkpt lat="45.09307" lon="5.85204">
        <ele>1320.32</ele>
        <time>2020-09-13T13:57:47.000Z</time>
      </trkpt>
      <trkpt lat="45.09284" lon="5.85203">
        <ele>1317.07</ele>
        <time>2020-09-13T13:57:52.000Z</time>
      </trkpt>
      <trkpt lat="45.09267" lon="5.85202">
        <ele>1317.04</ele>
        <time>2020-09-13T13:57:57.000Z</time>
      </trkpt>
      <trkpt lat="45.09252" lon="5.85204">
        <ele>1317.43</ele>
        <time>2020-09-13T13:58:02.000Z</time>
      </trkpt>
      <trkpt lat="45.09235" lon="5.8521">
        <ele>1318.14</ele>
        <time>2020-09-13T13:58:07.000Z</time>
      </trkpt>
      <trkpt lat="45.09223" lon="5.85215">
        <ele>1320.8</ele>
        <time>2020-09-13T13:58:12.000Z</time>
      </trkpt>
      <trkpt lat="45.0921" lon="5.85224">
        <ele>1323.47</ele>
        <time>2020-09-13T13:58:17.000Z</time>
      </trkpt>
      <trkpt lat="45.09191" lon="5.85236">
        <ele>1325.72</ele>
        <time>2020-09-13T13:58:22.000Z</time>
      </trkpt>
      <trkpt lat="45.09159" lon="5.85264">
        <ele>1325.82</ele>
        <time>2020-09-13T13:58:27.000Z</time>
      </trkpt>
      <trkpt lat="45.09139" lon="5.85264">
        <ele>1324.28</ele>
        <time>2020-09-13T13:58:32.000Z</time>
      </trkpt>
      <trkpt lat="45.09111" lon="5.8528">
        <ele>1326.88</ele>
        <time>2020-09-13T13:58:37.000Z</time>
      </trkpt>
      <trkpt lat="45.09096" lon="5.85293">
        <ele>1326.87</ele>
        <time>2020-09-13T13:58:42.000Z</time>
      </trkpt>
      <trkpt lat="45.09082" lon="5.8531">
        <ele>1323.23</ele>
        <time>2020-09-13T13:58:47.000Z</time>
      </trkpt>
      <trkpt lat="45.09073" lon="5.8533">
        <ele>1322.65</ele>
        <time>2020-09-13T13:58:52.000Z</time>
      </trkpt>
      <trkpt lat="45.09067" lon="5.85352">
        <ele>1320.69</ele>
        <time>2020-09-13T13:58:57.000Z</time>
      </trkpt>
      <trkpt lat="45.09054" lon="5.85369">
        <ele>1322.22</ele>
        <time>2020-09-13T13:59:02.000Z</time>
      </trkpt>
      <trkpt lat="45.09035" lon="5.8537">
        <ele>1324.15</ele>
        <time>2020-09-13T13:59:07.000Z</time>
      </trkpt>
      <trkpt lat="45.09019" lon="5.85379">
        <ele>1325.51</ele>
        <time>2020-09-13T13:59:12.000Z</time>
      </trkpt>
      <trkpt lat="45.09004" lon="5.85397">
        <ele>1327.39</ele>
        <time>2020-09-13T13:59:17.000Z</time>
      </trkpt>
      <trkpt lat="45.08989" lon="5.85422">
        <ele>1332.13</ele>
        <time>2020-09-13T13:59:22.000Z</time>
      </trkpt>
      <trkpt lat="45.08982" lon="5.85452">
        <ele>1333.58</ele>
        <time>2020-09-13T13:59:27.000Z</time>
      </trkpt>
      <trkpt lat="45.08992" lon="5.85478">
        <ele>1334.78</ele>
        <time>2020-09-13T13:59:32.000Z</time>
      </trkpt>
      <trkpt lat="45.09014" lon="5.85474">
        <ele>1335.97</ele>
        <time>2020-09-13T13:59:37.000Z</time>
      </trkpt>
      <trkpt lat="45.09029" lon="5.85454">
        <ele>1337.4</ele>
        <time>2020-09-13T13:59:42.000Z</time>
      </trkpt>
      <trkpt lat="45.09049" lon="5.85441">
        <ele>1336.59</ele>
        <time>2020-09-13T13:59:47.000Z</time>
      </trkpt>
      <trkpt lat="45.09069" lon="5.85432">
        <ele>1337.2</ele>
        <time>2020-09-13T13:59:52.000Z</time>
      </trkpt>
      <trkpt lat="45.09088" lon="5.85424">
        <ele>1342.59</ele>
        <time>2020-09-13T13:59:57.000Z</time>
      </trkpt>
      <trkpt lat="45.09105" lon="5.85415">
        <ele>1338.81</ele>
        <time>2020-09-13T14:00:02.000Z</time>
      </trkpt>
      <trkpt lat="45.09126" lon="5.85404">
        <ele>1341.51</ele>
        <time>2020-09-13T14:00:07.000Z</time>
      </trkpt>
      <trkpt lat="45.09149" lon="5.85404">
        <ele>1345.18</ele>
        <time>2020-09-13T14:00:12.000Z</time>
      </trkpt>
      <trkpt lat="45.09171" lon="5.854">
        <ele>1348.49</ele>
        <time>2020-09-13T14:00:17.000Z</time>
      </trkpt>
      <trkpt lat="45.09181" lon="5.8542">
        <ele>1351.03</ele>
        <time>2020-09-13T14:00:22.000Z</time>
      </trkpt>
      <trkpt lat="45.09174" lon="5.85432">
        <ele>1350.29</ele>
        <time>2020-09-13T14:00:27.000Z</time>
      </trkpt>
      <trkpt lat="45.09146" lon="5.85441">
        <ele>1352.18</ele>
        <time>2020-09-13T14:00:32.000Z</time>
      </trkpt>
      <trkpt lat="45.09128" lon="5.85454">
        <ele>1356.18</ele>
        <time>2020-09-13T14:00:37.000Z</time>
      </trkpt>
      <trkpt lat="45.09113" lon="5.85468">
        <ele>1357.62</ele>
        <time>2020-09-13T14:00:42.000Z</time>
      </trkpt>
      <trkpt lat="45.09099" lon="5.85485">
        <ele>1357.81</ele>
        <time>2020-09-13T14:00:47.000Z</time>
      </trkpt>
      <trkpt lat="45.09083" lon="5.85506">
        <ele>1360.38</ele>
        <time>2020-09-13T14:00:52.000Z</time>
      </trkpt>
      <trkpt lat="45.0907" lon="5.85528">
        <ele>1363.43</ele>
        <time>2020-09-13T14:00:57.000Z</time>
      </trkpt>
      <trkpt lat="45.09059" lon="5.85536">
        <ele>1366.43</ele>
        <time>2020-09-13T14:01:02.000Z</time>
      </trkpt>
      <trkpt lat="45.09046" lon="5.85559">
        <ele>1365.84</ele>
        <time>2020-09-13T14:01:07.000Z</time>
      </trkpt>
      <trkpt lat="45.09041" lon="5.85584">
        <ele>1364.66</ele>
        <time>2020-09-13T14:01:12.000Z</time>
      </trkpt>
      <trkpt lat="45.09032" lon="5.85604">
        <ele>1366.65</ele>
        <time>2020-09-13T14:01:17.000Z</time>
      </trkpt>
      <trkpt lat="45.09011" lon="5.85617">
        <ele>1368.17</ele>
        <time>2020-09-13T14:01:22.000Z</time>
      </trkpt>
      <trkpt lat="45.08999" lon="5.85645">
        <ele>1365.27</ele>
        <time>2020-09-13T14:01:27.000Z</time>
      </trkpt>
      <trkpt lat="45.08977" lon="5.85666">
        <ele>1355.66</ele>
        <time>2020-09-13T14:01:32.000Z</time>
      </trkpt>
      <trkpt lat="45.08959" lon="5.85685">
        <ele>1356.18</ele>
        <time>2020-09-13T14:01:37.000Z</time>
      </trkpt>
      <trkpt lat="45.0894" lon="5.85704">
        <ele>1358.58</ele>
        <time>2020-09-13T14:01:42.000Z</time>
      </trkpt>
      <trkpt lat="45.08919" lon="5.8572">
        <ele>1363.97</ele>
        <time>2020-09-13T14:01:47.000Z</time>
      </trkpt>
      <trkpt lat="45.08897" lon="5.85744">
        <ele>1366.41</ele>
        <time>2020-09-13T14:01:52.000Z</time>
      </trkpt>
      <trkpt lat="45.08899" lon="5.85777">
        <ele>1370.44</ele>
        <time>2020-09-13T14:01:57.000Z</time>
      </trkpt>
      <trkpt lat="45.08915" lon="5.85789">
        <ele>1377.58</ele>
        <time>2020-09-13T14:02:02.000Z</time>
      </trkpt>
      <trkpt lat="45.08932" lon="5.85777">
        <ele>1381.12</ele>
        <time>2020-09-13T14:02:07.000Z</time>
      </trkpt>
      <trkpt lat="45.08948" lon="5.85759">
        <ele>1381.95</ele>
        <time>2020-09-13T14:02:12.000Z</time>
      </trkpt>
      <trkpt lat="45.08972" lon="5.85752">
        <ele>1385.37</ele>
        <time>2020-09-13T14:02:17.000Z</time>
      </trkpt>
      <trkpt lat="45.08997" lon="5.85751">
        <ele>1386.09</ele>
        <time>2020-09-13T14:02:22.000Z</time>
      </trkpt>
      <trkpt lat="45.09015" lon="5.85747">
        <ele>1387.35</ele>
        <time>2020-09-13T14:02:27.000Z</time>
      </trkpt>
      <trkpt lat="45.09033" lon="5.85753">
        <ele>1388.59</ele>
        <time>2020-09-13T14:02:32.000Z</time>
      </trkpt>
      <trkpt lat="45.09053" lon="5.85753">
        <ele>1392.85</ele>
        <time>2020-09-13T14:02:37.000Z</time>
      </trkpt>
      <trkpt lat="45.09075" lon="5.85757">
        <ele>1395.88</ele>
        <time>2020-09-13T14:02:42.000Z</time>
      </trkpt>
      <trkpt lat="45.09099" lon="5.85759">
        <ele>1393.8</ele>
        <time>2020-09-13T14:02:47.000Z</time>
      </trkpt>
      <trkpt lat="45.09121" lon="5.85761">
        <ele>1393.45</ele>
        <time>2020-09-13T14:02:52.000Z</time>
      </trkpt>
      <trkpt lat="45.09139" lon="5.85768">
        <ele>1396.02</ele>
        <time>2020-09-13T14:02:57.000Z</time>
      </trkpt>
      <trkpt lat="45.09158" lon="5.85775">
        <ele>1397.46</ele>
        <time>2020-09-13T14:03:02.000Z</time>
      </trkpt>
      <trkpt lat="45.09179" lon="5.85779">
        <ele>1397.87</ele>
        <time>2020-09-13T14:03:07.000Z</time>
      </trkpt>
      <trkpt lat="45.092" lon="5.85783">
        <ele>1397.98</ele>
        <time>2020-09-13T14:03:12.000Z</time>
      </trkpt>
      <trkpt lat="45.09221" lon="5.85775">
        <ele>1400.76</ele>
        <time>2020-09-13T14:03:17.000Z</time>
      </trkpt>
      <trkpt lat="45.09246" lon="5.85776">
        <ele>1398.1</ele>
        <time>2020-09-13T14:03:22.000Z</time>
      </trkpt>
      <trkpt lat="45.09266" lon="5.85774">
        <ele>1395.01</ele>
        <time>2020-09-13T14:03:27.000Z</time>
      </trkpt>
      <trkpt lat="45.09289" lon="5.85774">
        <ele>1397.5</ele>
        <time>2020-09-13T14:03:32.000Z</time>
      </trkpt>
      <trkpt lat="45.09307" lon="5.85774">
        <ele>1401.61</ele>
        <time>2020-09-13T14:03:37.000Z</time>
      </trkpt>
      <trkpt lat="45.09327" lon="5.85782">
        <ele>1403.03</ele>
        <time>2020-09-13T14:03:42.000Z</time>
      </trkpt>
      <trkpt lat="45.09353" lon="5.85794">
        <ele>1403.02</ele>
        <time>2020-09-13T14:03:47.000Z</time>
      </trkpt>
      <trkpt lat="45.09374" lon="5.85802">
        <ele>1399.68</ele>
        <time>2020-09-13T14:03:52.000Z</time>
      </trkpt>
      <trkpt lat="45.09391" lon="5.85803">
        <ele>1402.37</ele>
        <time>2020-09-13T14:03:57.000Z</time>
      </trkpt>
      <trkpt lat="45.0941" lon="5.85802">
        <ele>1403.39</ele>
        <time>2020-09-13T14:04:02.000Z</time>
      </trkpt>
      <trkpt lat="45.09431" lon="5.85803">
        <ele>1404.75</ele>
        <time>2020-09-13T14:04:07.000Z</time>
      </trkpt>
      <trkpt lat="45.09451" lon="5.85805">
        <ele>1407.71</ele>
        <time>2020-09-13T14:04:12.000Z</time>
      </trkpt>
      <trkpt lat="45.09472" lon="5.85806">
        <ele>1407.28</ele>
        <time>2020-09-13T14:04:17.000Z</time>
      </trkpt>
      <trkpt lat="45.09495" lon="5.85806">
        <ele>1409.68</ele>
        <time>2020-09-13T14:04:22.000Z</time>
      </trkpt>
      <trkpt lat="45.09523" lon="5.85804">
        <ele>1407.94</ele>
        <time>2020-09-13T14:04:27.000Z</time>
      </trkpt>
      <trkpt lat="45.09543" lon="5.85802">
        <ele>1409.91</ele>
        <time>2020-09-13T14:04:32.000Z</time>
      </trkpt>
      <trkpt lat="45.09562" lon="5.85805">
        <ele>1411.81</ele>
        <time>2020-09-13T14:04:37.000Z</time>
      </trkpt>
      <trkpt lat="45.09583" lon="5.85804">
        <ele>1417.85</ele>
        <time>2020-09-13T14:04:42.000Z</time>
      </trkpt>
      <trkpt lat="45.09605" lon="5.85805">
        <ele>1422.12</ele>
        <time>2020-09-13T14:04:47.000Z</time>
      </trkpt>
      <trkpt lat="45.09628" lon="5.85809">
        <ele>1423.46</ele>
        <time>2020-09-13T14:04:52.000Z</time>
      </trkpt>
      <trkpt lat="45.09651" lon="5.85818">
        <ele>1422.57</ele>
        <time>2020-09-13T14:04:57.000Z</time>
      </trkpt>
      <trkpt lat="45.09671" lon="5.85831">
        <ele>1423.8</ele>
        <time>2020-09-13T14:05:02.000Z</time>
      </trkpt>
      <trkpt lat="45.09687" lon="5.85848">
        <ele>1426.05</ele>
        <time>2020-09-13T14:05:07.000Z</time>
      </trkpt>
      <trkpt lat="45.097" lon="5.8587">
        <ele>1428.01</ele>
        <time>2020-09-13T14:05:12.000Z</time>
      </trkpt>
      <trkpt lat="45.09716" lon="5.85893">
        <ele>1431.82</ele>
        <time>2020-09-13T14:05:17.000Z</time>
      </trkpt>
      <trkpt lat="45.09736" lon="5.8591">
        <ele>1438.27</ele>
        <time>2020-09-13T14:05:22.000Z</time>
      </trkpt>
      <trkpt lat="45.09753" lon="5.85929">
        <ele>1437.69</ele>
        <time>2020-09-13T14:05:27.000Z</time>
      </trkpt>
      <trkpt lat="45.09768" lon="5.85943">
        <ele>1438.99</ele>
        <time>2020-09-13T14:05:32.000Z</time>
      </trkpt>
      <trkpt lat="45.0979" lon="5.8595">
        <ele>1440.98</ele>
        <time>2020-09-13T14:05:37.000Z</time>
      </trkpt>
      <trkpt lat="45.09811" lon="5.85954">
        <ele>1441.38</ele>
        <time>2020-09-13T14:05:42.000Z</time>
      </trkpt>
      <trkpt lat="45.09832" lon="5.85957">
        <ele>1441</ele>
        <time>2020-09-13T14:05:47.000Z</time>
      </trkpt>
      <trkpt lat="45.09851" lon="5.85961">
        <ele>1441.82</ele>
        <time>2020-09-13T14:05:52.000Z</time>
      </trkpt>
      <trkpt lat="45.09873" lon="5.85964">
        <ele>1446.16</ele>
        <time>2020-09-13T14:05:57.000Z</time>
      </trkpt>
      <trkpt lat="45.09894" lon="5.85964">
        <ele>1444.39</ele>
        <time>2020-09-13T14:06:02.000Z</time>
      </trkpt>
      <trkpt lat="45.09915" lon="5.85947">
        <ele>1454.64</ele>
        <time>2020-09-13T14:06:07.000Z</time>
      </trkpt>
      <trkpt lat="45.09924" lon="5.85922">
        <ele>1458.07</ele>
        <time>2020-09-13T14:06:12.000Z</time>
      </trkpt>
      <trkpt lat="45.0992" lon="5.85903">
        <ele>1453.02</ele>
        <time>2020-09-13T14:06:17.000Z</time>
      </trkpt>
      <trkpt lat="45.09941" lon="5.85886">
        <ele>1453.71</ele>
        <time>2020-09-13T14:06:22.000Z</time>
      </trkpt>
      <trkpt lat="45.0996" lon="5.85882">
        <ele>1455.28</ele>
        <time>2020-09-13T14:06:27.000Z</time>
      </trkpt>
      <trkpt lat="45.0998" lon="5.85885">
        <ele>1457.93</ele>
        <time>2020-09-13T14:06:32.000Z</time>
      </trkpt>
      <trkpt lat="45.10003" lon="5.85886">
        <ele>1453.84</ele>
        <time>2020-09-13T14:06:37.000Z</time>
      </trkpt>
      <trkpt lat="45.10025" lon="5.85886">
        <ele>1454.1</ele>
        <time>2020-09-13T14:06:42.000Z</time>
      </trkpt>
      <trkpt lat="45.10045" lon="5.85883">
        <ele>1451.85</ele>
        <time>2020-09-13T14:06:47.000Z</time>
      </trkpt>
      <trkpt lat="45.10066" lon="5.85886">
        <ele>1456.75</ele>
        <time>2020-09-13T14:06:52.000Z</time>
      </trkpt>
      <trkpt lat="45.10087" lon="5.85894">
        <ele>1459.78</ele>
        <time>2020-09-13T14:06:57.000Z</time>
      </trkpt>
      <trkpt lat="45.10105" lon="5.85906">
        <ele>1461.37</ele>
        <time>2020-09-13T14:07:02.000Z</time>
      </trkpt>
      <trkpt lat="45.10124" lon="5.85921">
        <ele>1460.95</ele>
        <time>2020-09-13T14:07:07.000Z</time>
      </trkpt>
      <trkpt lat="45.10143" lon="5.85926">
        <ele>1463.19</ele>
        <time>2020-09-13T14:07:12.000Z</time>
      </trkpt>
      <trkpt lat="45.10164" lon="5.85936">
        <ele>1464.25</ele>
        <time>2020-09-13T14:07:17.000Z</time>
      </trkpt>
      <trkpt lat="45.10182" lon="5.85945">
        <ele>1468.51</ele>
        <time>2020-09-13T14:07:22.000Z</time>
      </trkpt>
      <trkpt lat="45.10199" lon="5.85965">
        <ele>1471.18</ele>
        <time>2020-09-13T14:07:27.000Z</time>
      </trkpt>
      <trkpt lat="45.10215" lon="5.85986">
        <ele>1471.63</ele>
        <time>2020-09-13T14:07:32.000Z</time>
      </trkpt>
      <trkpt lat="45.10235" lon="5.86003">
        <ele>1474.23</ele>
        <time>2020-09-13T14:07:37.000Z</time>
      </trkpt>
      <trkpt lat="45.10257" lon="5.86013">
        <ele>1478.35</ele>
        <time>2020-09-13T14:07:42.000Z</time>
      </trkpt>
      <trkpt lat="45.10273" lon="5.86013">
        <ele>1479.44</ele>
        <time>2020-09-13T14:07:47.000Z</time>
      </trkpt>
      <trkpt lat="45.10285" lon="5.86016">
        <ele>1482.45</ele>
        <time>2020-09-13T14:07:52.000Z</time>
      </trkpt>
      <trkpt lat="45.10295" lon="5.86014">
        <ele>1485.29</ele>
        <time>2020-09-13T14:08:07.000Z</time>
      </trkpt>
      <trkpt lat="45.10295" lon="5.86027">
        <ele>1493.73</ele>
        <time>2020-09-13T14:11:47.000Z</time>
      </trkpt>
      <trkpt lat="45.1029" lon="5.86045">
        <ele>1492.5</ele>
        <time>2020-09-13T14:11:52.000Z</time>
      </trkpt>
      <trkpt lat="45.10272" lon="5.86059">
        <ele>1491.6</ele>
        <time>2020-09-13T14:11:57.000Z</time>
      </trkpt>
      <trkpt lat="45.10253" lon="5.86065">
        <ele>1489.37</ele>
        <time>2020-09-13T14:12:02.000Z</time>
      </trkpt>
      <trkpt lat="45.10217" lon="5.86077">
        <ele>1490.04</ele>
        <time>2020-09-13T14:12:07.000Z</time>
      </trkpt>
      <trkpt lat="45.10196" lon="5.86065">
        <ele>1492.45</ele>
        <time>2020-09-13T14:12:12.000Z</time>
      </trkpt>
      <trkpt lat="45.10185" lon="5.86047">
        <ele>1493.88</ele>
        <time>2020-09-13T14:12:17.000Z</time>
      </trkpt>
      <trkpt lat="45.10172" lon="5.86038">
        <ele>1490.64</ele>
        <time>2020-09-13T14:12:22.000Z</time>
      </trkpt>
      <trkpt lat="45.10136" lon="5.86028">
        <ele>1492.37</ele>
        <time>2020-09-13T14:12:27.000Z</time>
      </trkpt>
      <trkpt lat="45.10115" lon="5.86041">
        <ele>1495.72</ele>
        <time>2020-09-13T14:12:32.000Z</time>
      </trkpt>
      <trkpt lat="45.10112" lon="5.86054">
        <ele>1499.56</ele>
        <time>2020-09-13T14:12:38.000Z</time>
      </trkpt>
      <trkpt lat="45.10114" lon="5.86096">
        <ele>1500.2</ele>
        <time>2020-09-13T14:12:43.000Z</time>
      </trkpt>
      <trkpt lat="45.10133" lon="5.86125">
        <ele>1506.21</ele>
        <time>2020-09-13T14:12:48.000Z</time>
      </trkpt>
      <trkpt lat="45.10122" lon="5.86161">
        <ele>1507.45</ele>
        <time>2020-09-13T14:12:53.000Z</time>
      </trkpt>
      <trkpt lat="45.10126" lon="5.86186">
        <ele>1508.05</ele>
        <time>2020-09-13T14:12:58.000Z</time>
      </trkpt>
      <trkpt lat="45.10124" lon="5.86217">
        <ele>1511.15</ele>
        <time>2020-09-13T14:13:03.000Z</time>
      </trkpt>
      <trkpt lat="45.10119" lon="5.86243">
        <ele>1511.84</ele>
        <time>2020-09-13T14:13:08.000Z</time>
      </trkpt>
      <trkpt lat="45.10108" lon="5.86265">
        <ele>1513.07</ele>
        <time>2020-09-13T14:13:13.000Z</time>
      </trkpt>
      <trkpt lat="45.1009" lon="5.86266">
        <ele>1510.58</ele>
        <time>2020-09-13T14:13:18.000Z</time>
      </trkpt>
      <trkpt lat="45.1007" lon="5.86259">
        <ele>1511.27</ele>
        <time>2020-09-13T14:13:23.000Z</time>
      </trkpt>
      <trkpt lat="45.10051" lon="5.86261">
        <ele>1511.67</ele>
        <time>2020-09-13T14:13:28.000Z</time>
      </trkpt>
      <trkpt lat="45.10036" lon="5.86274">
        <ele>1513.61</ele>
        <time>2020-09-13T14:13:33.000Z</time>
      </trkpt>
      <trkpt lat="45.10026" lon="5.86292">
        <ele>1510.54</ele>
        <time>2020-09-13T14:13:38.000Z</time>
      </trkpt>
      <trkpt lat="45.10012" lon="5.86306">
        <ele>1512.18</ele>
        <time>2020-09-13T14:13:43.000Z</time>
      </trkpt>
      <trkpt lat="45.0999" lon="5.86307">
        <ele>1514.68</ele>
        <time>2020-09-13T14:13:48.000Z</time>
      </trkpt>
      <trkpt lat="45.09969" lon="5.86309">
        <ele>1514.44</ele>
        <time>2020-09-13T14:13:53.000Z</time>
      </trkpt>
      <trkpt lat="45.09947" lon="5.86323">
        <ele>1515.5</ele>
        <time>2020-09-13T14:13:58.000Z</time>
      </trkpt>
      <trkpt lat="45.09936" lon="5.86344">
        <ele>1518.73</ele>
        <time>2020-09-13T14:14:03.000Z</time>
      </trkpt>
      <trkpt lat="45.09919" lon="5.86367">
        <ele>1519.54</ele>
        <time>2020-09-13T14:14:08.000Z</time>
      </trkpt>
      <trkpt lat="45.099" lon="5.86387">
        <ele>1520</ele>
        <time>2020-09-13T14:14:13.000Z</time>
      </trkpt>
      <trkpt lat="45.09882" lon="5.86404">
        <ele>1516.71</ele>
        <time>2020-09-13T14:14:18.000Z</time>
      </trkpt>
      <trkpt lat="45.09862" lon="5.86425">
        <ele>1518.28</ele>
        <time>2020-09-13T14:14:23.000Z</time>
      </trkpt>
      <trkpt lat="45.09844" lon="5.86439">
        <ele>1519.71</ele>
        <time>2020-09-13T14:14:28.000Z</time>
      </trkpt>
      <trkpt lat="45.09826" lon="5.86444">
        <ele>1521.61</ele>
        <time>2020-09-13T14:14:33.000Z</time>
      </trkpt>
      <trkpt lat="45.0981" lon="5.86455">
        <ele>1523.94</ele>
        <time>2020-09-13T14:14:38.000Z</time>
      </trkpt>
      <trkpt lat="45.09799" lon="5.86472">
        <ele>1523.15</ele>
        <time>2020-09-13T14:14:43.000Z</time>
      </trkpt>
      <trkpt lat="45.09787" lon="5.86497">
        <ele>1529.42</ele>
        <time>2020-09-13T14:14:48.000Z</time>
      </trkpt>
      <trkpt lat="45.09772" lon="5.86523">
        <ele>1532.91</ele>
        <time>2020-09-13T14:14:53.000Z</time>
      </trkpt>
      <trkpt lat="45.09757" lon="5.86544">
        <ele>1539.37</ele>
        <time>2020-09-13T14:14:58.000Z</time>
      </trkpt>
      <trkpt lat="45.09742" lon="5.86565">
        <ele>1537.67</ele>
        <time>2020-09-13T14:15:03.000Z</time>
      </trkpt>
      <trkpt lat="45.09724" lon="5.86579">
        <ele>1536.69</ele>
        <time>2020-09-13T14:15:08.000Z</time>
      </trkpt>
      <trkpt lat="45.09715" lon="5.86581">
        <ele>1537.65</ele>
        <time>2020-09-13T14:15:15.000Z</time>
      </trkpt>
      <trkpt lat="45.09704" lon="5.86588">
        <ele>1540.6</ele>
        <time>2020-09-13T14:15:22.000Z</time>
      </trkpt>
      <trkpt lat="45.09687" lon="5.86603">
        <ele>1543.75</ele>
        <time>2020-09-13T14:15:27.000Z</time>
      </trkpt>
      <trkpt lat="45.09678" lon="5.86628">
        <ele>1546.5</ele>
        <time>2020-09-13T14:15:32.000Z</time>
      </trkpt>
      <trkpt lat="45.09679" lon="5.86659">
        <ele>1547.42</ele>
        <time>2020-09-13T14:15:37.000Z</time>
      </trkpt>
      <trkpt lat="45.09687" lon="5.8669">
        <ele>1549.29</ele>
        <time>2020-09-13T14:15:42.000Z</time>
      </trkpt>
      <trkpt lat="45.0969" lon="5.86718">
        <ele>1551.47</ele>
        <time>2020-09-13T14:15:47.000Z</time>
      </trkpt>
      <trkpt lat="45.09699" lon="5.86746">
        <ele>1551.32</ele>
        <time>2020-09-13T14:15:52.000Z</time>
      </trkpt>
      <trkpt lat="45.09713" lon="5.86768">
        <ele>1554.81</ele>
        <time>2020-09-13T14:15:57.000Z</time>
      </trkpt>
      <trkpt lat="45.09722" lon="5.86793">
        <ele>1557.32</ele>
        <time>2020-09-13T14:16:02.000Z</time>
      </trkpt>
      <trkpt lat="45.09725" lon="5.86821">
        <ele>1558.07</ele>
        <time>2020-09-13T14:16:07.000Z</time>
      </trkpt>
      <trkpt lat="45.09721" lon="5.86848">
        <ele>1559.02</ele>
        <time>2020-09-13T14:16:12.000Z</time>
      </trkpt>
      <trkpt lat="45.09721" lon="5.86878">
        <ele>1560.12</ele>
        <time>2020-09-13T14:16:17.000Z</time>
      </trkpt>
      <trkpt lat="45.0974" lon="5.86893">
        <ele>1567.85</ele>
        <time>2020-09-13T14:16:22.000Z</time>
      </trkpt>
      <trkpt lat="45.09764" lon="5.86872">
        <ele>1568.24</ele>
        <time>2020-09-13T14:16:27.000Z</time>
      </trkpt>
      <trkpt lat="45.09784" lon="5.86854">
        <ele>1572.34</ele>
        <time>2020-09-13T14:16:32.000Z</time>
      </trkpt>
      <trkpt lat="45.09799" lon="5.86844">
        <ele>1573.2</ele>
        <time>2020-09-13T14:16:37.000Z</time>
      </trkpt>
      <trkpt lat="45.09816" lon="5.86831">
        <ele>1573.08</ele>
        <time>2020-09-13T14:16:42.000Z</time>
      </trkpt>
      <trkpt lat="45.0983" lon="5.86826">
        <ele>1575.29</ele>
        <time>2020-09-13T14:16:47.000Z</time>
      </trkpt>
      <trkpt lat="45.09843" lon="5.86803">
        <ele>1575.41</ele>
        <time>2020-09-13T14:16:52.000Z</time>
      </trkpt>
      <trkpt lat="45.09848" lon="5.86778">
        <ele>1578.74</ele>
        <time>2020-09-13T14:16:57.000Z</time>
      </trkpt>
      <trkpt lat="45.09858" lon="5.86757">
        <ele>1582.8</ele>
        <time>2020-09-13T14:17:02.000Z</time>
      </trkpt>
      <trkpt lat="45.09875" lon="5.86743">
        <ele>1583.4</ele>
        <time>2020-09-13T14:17:07.000Z</time>
      </trkpt>
      <trkpt lat="45.09895" lon="5.86745">
        <ele>1584.35</ele>
        <time>2020-09-13T14:17:12.000Z</time>
      </trkpt>
      <trkpt lat="45.09916" lon="5.86745">
        <ele>1586.96</ele>
        <time>2020-09-13T14:17:17.000Z</time>
      </trkpt>
      <trkpt lat="45.09936" lon="5.86749">
        <ele>1589.92</ele>
        <time>2020-09-13T14:17:22.000Z</time>
      </trkpt>
      <trkpt lat="45.09949" lon="5.8677">
        <ele>1588.87</ele>
        <time>2020-09-13T14:17:27.000Z</time>
      </trkpt>
      <trkpt lat="45.09956" lon="5.86799">
        <ele>1587.95</ele>
        <time>2020-09-13T14:17:32.000Z</time>
      </trkpt>
      <trkpt lat="45.09948" lon="5.86825">
        <ele>1589.24</ele>
        <time>2020-09-13T14:17:37.000Z</time>
      </trkpt>
      <trkpt lat="45.09941" lon="5.86852">
        <ele>1590.04</ele>
        <time>2020-09-13T14:17:42.000Z</time>
      </trkpt>
      <trkpt lat="45.09938" lon="5.86882">
        <ele>1594.1</ele>
        <time>2020-09-13T14:17:47.000Z</time>
      </trkpt>
      <trkpt lat="45.09937" lon="5.8691">
        <ele>1594.35</ele>
        <time>2020-09-13T14:17:52.000Z</time>
      </trkpt>
      <trkpt lat="45.09938" lon="5.86941">
        <ele>1595.59</ele>
        <time>2020-09-13T14:17:57.000Z</time>
      </trkpt>
      <trkpt lat="45.09942" lon="5.8697">
        <ele>1597.74</ele>
        <time>2020-09-13T14:18:02.000Z</time>
      </trkpt>
      <trkpt lat="45.09949" lon="5.86996">
        <ele>1594.18</ele>
        <time>2020-09-13T14:18:07.000Z</time>
      </trkpt>
      <trkpt lat="45.09958" lon="5.87019">
        <ele>1595.19</ele>
        <time>2020-09-13T14:18:12.000Z</time>
      </trkpt>
      <trkpt lat="45.09973" lon="5.87035">
        <ele>1597.7</ele>
        <time>2020-09-13T14:18:17.000Z</time>
      </trkpt>
      <trkpt lat="45.09994" lon="5.87047">
        <ele>1598.22</ele>
        <time>2020-09-13T14:18:22.000Z</time>
      </trkpt>
      <trkpt lat="45.10018" lon="5.87048">
        <ele>1604.99</ele>
        <time>2020-09-13T14:18:27.000Z</time>
      </trkpt>
      <trkpt lat="45.10043" lon="5.87048">
        <ele>1609.89</ele>
        <time>2020-09-13T14:18:32.000Z</time>
      </trkpt>
      <trkpt lat="45.10066" lon="5.87042">
        <ele>1613.6</ele>
        <time>2020-09-13T14:18:37.000Z</time>
      </trkpt>
      <trkpt lat="45.10087" lon="5.87039">
        <ele>1618.48</ele>
        <time>2020-09-13T14:18:42.000Z</time>
      </trkpt>
      <trkpt lat="45.10107" lon="5.8704">
        <ele>1618.11</ele>
        <time>2020-09-13T14:18:47.000Z</time>
      </trkpt>
      <trkpt lat="45.10127" lon="5.87046">
        <ele>1618.53</ele>
        <time>2020-09-13T14:18:52.000Z</time>
      </trkpt>
      <trkpt lat="45.10146" lon="5.87051">
        <ele>1619.94</ele>
        <time>2020-09-13T14:18:57.000Z</time>
      </trkpt>
      <trkpt lat="45.10165" lon="5.87059">
        <ele>1618.98</ele>
        <time>2020-09-13T14:19:02.000Z</time>
      </trkpt>
      <trkpt lat="45.10184" lon="5.87067">
        <ele>1618.66</ele>
        <time>2020-09-13T14:19:07.000Z</time>
      </trkpt>
      <trkpt lat="45.10204" lon="5.87076">
        <ele>1617.63</ele>
        <time>2020-09-13T14:19:12.000Z</time>
      </trkpt>
      <trkpt lat="45.10226" lon="5.87085">
        <ele>1617.94</ele>
        <time>2020-09-13T14:19:17.000Z</time>
      </trkpt>
      <trkpt lat="45.10245" lon="5.87091">
        <ele>1618.17</ele>
        <time>2020-09-13T14:19:22.000Z</time>
      </trkpt>
      <trkpt lat="45.10264" lon="5.871">
        <ele>1620.67</ele>
        <time>2020-09-13T14:19:27.000Z</time>
      </trkpt>
      <trkpt lat="45.10284" lon="5.87111">
        <ele>1619.22</ele>
        <time>2020-09-13T14:19:32.000Z</time>
      </trkpt>
      <trkpt lat="45.10302" lon="5.87118">
        <ele>1624.55</ele>
        <time>2020-09-13T14:19:37.000Z</time>
      </trkpt>
      <trkpt lat="45.10324" lon="5.8712">
        <ele>1625.21</ele>
        <time>2020-09-13T14:19:42.000Z</time>
      </trkpt>
      <trkpt lat="45.10346" lon="5.87113">
        <ele>1626.93</ele>
        <time>2020-09-13T14:19:47.000Z</time>
      </trkpt>
      <trkpt lat="45.10363" lon="5.87102">
        <ele>1629.13</ele>
        <time>2020-09-13T14:19:52.000Z</time>
      </trkpt>
      <trkpt lat="45.10381" lon="5.8709">
        <ele>1636.02</ele>
        <time>2020-09-13T14:19:57.000Z</time>
      </trkpt>
      <trkpt lat="45.104" lon="5.87081">
        <ele>1639.44</ele>
        <time>2020-09-13T14:20:02.000Z</time>
      </trkpt>
      <trkpt lat="45.1042" lon="5.87089">
        <ele>1640.25</ele>
        <time>2020-09-13T14:20:07.000Z</time>
      </trkpt>
      <trkpt lat="45.10438" lon="5.87107">
        <ele>1643.6</ele>
        <time>2020-09-13T14:20:12.000Z</time>
      </trkpt>
      <trkpt lat="45.10457" lon="5.87122">
        <ele>1646.45</ele>
        <time>2020-09-13T14:20:17.000Z</time>
      </trkpt>
      <trkpt lat="45.10475" lon="5.87134">
        <ele>1648.88</ele>
        <time>2020-09-13T14:20:22.000Z</time>
      </trkpt>
      <trkpt lat="45.10495" lon="5.87147">
        <ele>1650.59</ele>
        <time>2020-09-13T14:20:27.000Z</time>
      </trkpt>
      <trkpt lat="45.10516" lon="5.87152">
        <ele>1652.36</ele>
        <time>2020-09-13T14:20:32.000Z</time>
      </trkpt>
      <trkpt lat="45.10538" lon="5.87155">
        <ele>1652.65</ele>
        <time>2020-09-13T14:20:37.000Z</time>
      </trkpt>
      <trkpt lat="45.10557" lon="5.87159">
        <ele>1651.39</ele>
        <time>2020-09-13T14:20:42.000Z</time>
      </trkpt>
      <trkpt lat="45.10575" lon="5.87162">
        <ele>1655.56</ele>
        <time>2020-09-13T14:20:47.000Z</time>
      </trkpt>
      <trkpt lat="45.10593" lon="5.87157">
        <ele>1658.74</ele>
        <time>2020-09-13T14:20:52.000Z</time>
      </trkpt>
      <trkpt lat="45.10612" lon="5.8715">
        <ele>1660.35</ele>
        <time>2020-09-13T14:20:57.000Z</time>
      </trkpt>
      <trkpt lat="45.1063" lon="5.87136">
        <ele>1663.05</ele>
        <time>2020-09-13T14:21:02.000Z</time>
      </trkpt>
      <trkpt lat="45.10649" lon="5.8713">
        <ele>1664.09</ele>
        <time>2020-09-13T14:21:07.000Z</time>
      </trkpt>
      <trkpt lat="45.10669" lon="5.87136">
        <ele>1664.22</ele>
        <time>2020-09-13T14:21:12.000Z</time>
      </trkpt>
      <trkpt lat="45.10686" lon="5.87144">
        <ele>1668.36</ele>
        <time>2020-09-13T14:21:17.000Z</time>
      </trkpt>
      <trkpt lat="45.10707" lon="5.8716">
        <ele>1666.51</ele>
        <time>2020-09-13T14:21:22.000Z</time>
      </trkpt>
      <trkpt lat="45.10728" lon="5.87167">
        <ele>1669.39</ele>
        <time>2020-09-13T14:21:27.000Z</time>
      </trkpt>
      <trkpt lat="45.10747" lon="5.87181">
        <ele>1669.94</ele>
        <time>2020-09-13T14:21:32.000Z</time>
      </trkpt>
      <trkpt lat="45.10764" lon="5.87196">
        <ele>1671.97</ele>
        <time>2020-09-13T14:21:37.000Z</time>
      </trkpt>
      <trkpt lat="45.1078" lon="5.87212">
        <ele>1675.63</ele>
        <time>2020-09-13T14:21:42.000Z</time>
      </trkpt>
      <trkpt lat="45.10798" lon="5.87228">
        <ele>1679.35</ele>
        <time>2020-09-13T14:21:47.000Z</time>
      </trkpt>
      <trkpt lat="45.10814" lon="5.87244">
        <ele>1678.47</ele>
        <time>2020-09-13T14:21:52.000Z</time>
      </trkpt>
      <trkpt lat="45.10831" lon="5.87259">
        <ele>1681.22</ele>
        <time>2020-09-13T14:21:57.000Z</time>
      </trkpt>
      <trkpt lat="45.10848" lon="5.87276">
        <ele>1683.4</ele>
        <time>2020-09-13T14:22:02.000Z</time>
      </trkpt>
      <trkpt lat="45.10864" lon="5.87292">
        <ele>1684.5</ele>
        <time>2020-09-13T14:22:07.000Z</time>
      </trkpt>
      <trkpt lat="45.1088" lon="5.87307">
        <ele>1681.04</ele>
        <time>2020-09-13T14:22:12.000Z</time>
      </trkpt>
      <trkpt lat="45.10896" lon="5.87327">
        <ele>1681.63</ele>
        <time>2020-09-13T14:22:17.000Z</time>
      </trkpt>
      <trkpt lat="45.10913" lon="5.87342">
        <ele>1686.28</ele>
        <time>2020-09-13T14:22:22.000Z</time>
      </trkpt>
      <trkpt lat="45.10929" lon="5.87357">
        <ele>1688.54</ele>
        <time>2020-09-13T14:22:27.000Z</time>
      </trkpt>
      <trkpt lat="45.10946" lon="5.87372">
        <ele>1694.13</ele>
        <time>2020-09-13T14:22:32.000Z</time>
      </trkpt>
      <trkpt lat="45.10967" lon="5.87386">
        <ele>1694.7</ele>
        <time>2020-09-13T14:22:37.000Z</time>
      </trkpt>
      <trkpt lat="45.10988" lon="5.87398">
        <ele>1697.45</ele>
        <time>2020-09-13T14:22:42.000Z</time>
      </trkpt>
      <trkpt lat="45.11008" lon="5.8741">
        <ele>1703.09</ele>
        <time>2020-09-13T14:22:47.000Z</time>
      </trkpt>
      <trkpt lat="45.11026" lon="5.87425">
        <ele>1706.87</ele>
        <time>2020-09-13T14:22:52.000Z</time>
      </trkpt>
      <trkpt lat="45.11041" lon="5.87446">
        <ele>1708.54</ele>
        <time>2020-09-13T14:22:57.000Z</time>
      </trkpt>
      <trkpt lat="45.11053" lon="5.87464">
        <ele>1706.58</ele>
        <time>2020-09-13T14:23:02.000Z</time>
      </trkpt>
      <trkpt lat="45.11071" lon="5.8748">
        <ele>1710.93</ele>
        <time>2020-09-13T14:23:07.000Z</time>
      </trkpt>
      <trkpt lat="45.11094" lon="5.87493">
        <ele>1714.68</ele>
        <time>2020-09-13T14:23:12.000Z</time>
      </trkpt>
      <trkpt lat="45.1112" lon="5.87488">
        <ele>1714.01</ele>
        <time>2020-09-13T14:23:17.000Z</time>
      </trkpt>
      <trkpt lat="45.11137" lon="5.87499">
        <ele>1714.78</ele>
        <time>2020-09-13T14:23:22.000Z</time>
      </trkpt>
      <trkpt lat="45.11154" lon="5.87496">
        <ele>1715.66</ele>
        <time>2020-09-13T14:23:27.000Z</time>
      </trkpt>
      <trkpt lat="45.1115" lon="5.87509">
        <ele>1704.32</ele>
        <time>2020-09-13T14:25:58.000Z</time>
      </trkpt>
      <trkpt lat="45.11152" lon="5.87495">
        <ele>1709.13</ele>
        <time>2020-09-13T14:30:03.000Z</time>
      </trkpt>
      <trkpt lat="45.11167" lon="5.87487">
        <ele>1710.69</ele>
        <time>2020-09-13T14:30:08.000Z</time>
      </trkpt>
      <trkpt lat="45.11185" lon="5.87474">
        <ele>1711.49</ele>
        <time>2020-09-13T14:30:13.000Z</time>
      </trkpt>
      <trkpt lat="45.11208" lon="5.87474">
        <ele>1710.55</ele>
        <time>2020-09-13T14:30:18.000Z</time>
      </trkpt>
      <trkpt lat="45.11232" lon="5.87479">
        <ele>1715.44</ele>
        <time>2020-09-13T14:30:23.000Z</time>
      </trkpt>
      <trkpt lat="45.11254" lon="5.87485">
        <ele>1715.42</ele>
        <time>2020-09-13T14:30:28.000Z</time>
      </trkpt>
      <trkpt lat="45.11275" lon="5.87487">
        <ele>1715.69</ele>
        <time>2020-09-13T14:30:33.000Z</time>
      </trkpt>
      <trkpt lat="45.11298" lon="5.87493">
        <ele>1715</ele>
        <time>2020-09-13T14:30:38.000Z</time>
      </trkpt>
      <trkpt lat="45.11323" lon="5.87493">
        <ele>1713.21</ele>
        <time>2020-09-13T14:30:43.000Z</time>
      </trkpt>
      <trkpt lat="45.11348" lon="5.87482">
        <ele>1711.93</ele>
        <time>2020-09-13T14:30:48.000Z</time>
      </trkpt>
      <trkpt lat="45.11374" lon="5.8748">
        <ele>1710.41</ele>
        <time>2020-09-13T14:30:53.000Z</time>
      </trkpt>
      <trkpt lat="45.11399" lon="5.87479">
        <ele>1710.84</ele>
        <time>2020-09-13T14:30:58.000Z</time>
      </trkpt>
      <trkpt lat="45.11425" lon="5.8747">
        <ele>1709.46</ele>
        <time>2020-09-13T14:31:03.000Z</time>
      </trkpt>
      <trkpt lat="45.11449" lon="5.87458">
        <ele>1707.77</ele>
        <time>2020-09-13T14:31:08.000Z</time>
      </trkpt>
      <trkpt lat="45.11478" lon="5.8744">
        <ele>1706.48</ele>
        <time>2020-09-13T14:31:13.000Z</time>
      </trkpt>
      <trkpt lat="45.1151" lon="5.87439">
        <ele>1705.8</ele>
        <time>2020-09-13T14:31:18.000Z</time>
      </trkpt>
      <trkpt lat="45.1154" lon="5.8738">
        <ele>1705.88</ele>
        <time>2020-09-13T14:31:23.000Z</time>
      </trkpt>
      <trkpt lat="45.11564" lon="5.87335">
        <ele>1702.62</ele>
        <time>2020-09-13T14:31:28.000Z</time>
      </trkpt>
      <trkpt lat="45.116" lon="5.87306">
        <ele>1696.81</ele>
        <time>2020-09-13T14:31:33.000Z</time>
      </trkpt>
      <trkpt lat="45.11646" lon="5.87326">
        <ele>1695.05</ele>
        <time>2020-09-13T14:31:38.000Z</time>
      </trkpt>
      <trkpt lat="45.11698" lon="5.87353">
        <ele>1691.7</ele>
        <time>2020-09-13T14:31:43.000Z</time>
      </trkpt>
      <trkpt lat="45.11739" lon="5.87403">
        <ele>1689.72</ele>
        <time>2020-09-13T14:31:48.000Z</time>
      </trkpt>
      <trkpt lat="45.11775" lon="5.87468">
        <ele>1686.75</ele>
        <time>2020-09-13T14:31:53.000Z</time>
      </trkpt>
      <trkpt lat="45.11832" lon="5.87493">
        <ele>1681.26</ele>
        <time>2020-09-13T14:31:58.000Z</time>
      </trkpt>
      <trkpt lat="45.11892" lon="5.87534">
        <ele>1676.08</ele>
        <time>2020-09-13T14:32:03.000Z</time>
      </trkpt>
      <trkpt lat="45.11954" lon="5.87571">
        <ele>1672.5</ele>
        <time>2020-09-13T14:32:08.000Z</time>
      </trkpt>
      <trkpt lat="45.12016" lon="5.87587">
        <ele>1667.29</ele>
        <time>2020-09-13T14:32:13.000Z</time>
      </trkpt>
      <trkpt lat="45.12079" lon="5.87574">
        <ele>1660.43</ele>
        <time>2020-09-13T14:32:18.000Z</time>
      </trkpt>
      <trkpt lat="45.12129" lon="5.87625">
        <ele>1659.02</ele>
        <time>2020-09-13T14:32:23.000Z</time>
      </trkpt>
      <trkpt lat="45.12173" lon="5.87675">
        <ele>1658.21</ele>
        <time>2020-09-13T14:32:28.000Z</time>
      </trkpt>
      <trkpt lat="45.12216" lon="5.87724">
        <ele>1656.69</ele>
        <time>2020-09-13T14:32:33.000Z</time>
      </trkpt>
      <trkpt lat="45.12259" lon="5.87766">
        <ele>1653.01</ele>
        <time>2020-09-13T14:32:38.000Z</time>
      </trkpt>
      <trkpt lat="45.123" lon="5.87797">
        <ele>1650.27</ele>
        <time>2020-09-13T14:32:43.000Z</time>
      </trkpt>
      <trkpt lat="45.12332" lon="5.87817">
        <ele>1648.62</ele>
        <time>2020-09-13T14:32:48.000Z</time>
      </trkpt>
      <trkpt lat="45.12339" lon="5.87826">
        <ele>1647.78</ele>
        <time>2020-09-13T14:32:57.000Z</time>
      </trkpt>
      <trkpt lat="45.12345" lon="5.87813">
        <ele>1651.7</ele>
        <time>2020-09-13T14:35:02.000Z</time>
      </trkpt>
      <trkpt lat="45.1236" lon="5.87815">
        <ele>1650.71</ele>
        <time>2020-09-13T14:35:07.000Z</time>
      </trkpt>
      <trkpt lat="45.12378" lon="5.87808">
        <ele>1650.2</ele>
        <time>2020-09-13T14:35:12.000Z</time>
      </trkpt>
      <trkpt lat="45.12398" lon="5.87791">
        <ele>1647.77</ele>
        <time>2020-09-13T14:35:17.000Z</time>
      </trkpt>
      <trkpt lat="45.12426" lon="5.87777">
        <ele>1641.99</ele>
        <time>2020-09-13T14:35:22.000Z</time>
      </trkpt>
      <trkpt lat="45.12457" lon="5.87741">
        <ele>1639.78</ele>
        <time>2020-09-13T14:35:27.000Z</time>
      </trkpt>
      <trkpt lat="45.12484" lon="5.87696">
        <ele>1635.7</ele>
        <time>2020-09-13T14:35:32.000Z</time>
      </trkpt>
      <trkpt lat="45.12509" lon="5.87649">
        <ele>1636.44</ele>
        <time>2020-09-13T14:35:37.000Z</time>
      </trkpt>
      <trkpt lat="45.12527" lon="5.87613">
        <ele>1635.02</ele>
        <time>2020-09-13T14:35:42.000Z</time>
      </trkpt>
      <trkpt lat="45.12542" lon="5.87586">
        <ele>1634.57</ele>
        <time>2020-09-13T14:35:47.000Z</time>
      </trkpt>
      <trkpt lat="45.12558" lon="5.87567">
        <ele>1638.03</ele>
        <time>2020-09-13T14:35:52.000Z</time>
      </trkpt>
      <trkpt lat="45.12562" lon="5.87545">
        <ele>1638.98</ele>
        <time>2020-09-13T14:35:57.000Z</time>
      </trkpt>
      <trkpt lat="45.1256" lon="5.87528">
        <ele>1639.56</ele>
        <time>2020-09-13T14:36:02.000Z</time>
      </trkpt>
      <trkpt lat="45.12555" lon="5.87509">
        <ele>1641.02</ele>
        <time>2020-09-13T14:36:07.000Z</time>
      </trkpt>
      <trkpt lat="45.12546" lon="5.87493">
        <ele>1639.8</ele>
        <time>2020-09-13T14:36:12.000Z</time>
      </trkpt>
      <trkpt lat="45.12539" lon="5.87471">
        <ele>1638.11</ele>
        <time>2020-09-13T14:36:17.000Z</time>
      </trkpt>
      <trkpt lat="45.12532" lon="5.87456">
        <ele>1636.61</ele>
        <time>2020-09-13T14:36:22.000Z</time>
      </trkpt>
      <trkpt lat="45.12528" lon="5.87441">
        <ele>1631.33</ele>
        <time>2020-09-13T14:36:28.000Z</time>
      </trkpt>
      <trkpt lat="45.1252" lon="5.87411">
        <ele>1632.31</ele>
        <time>2020-09-13T14:36:33.000Z</time>
      </trkpt>
      <trkpt lat="45.12501" lon="5.87371">
        <ele>1634.94</ele>
        <time>2020-09-13T14:36:38.000Z</time>
      </trkpt>
      <trkpt lat="45.12478" lon="5.87328">
        <ele>1632.59</ele>
        <time>2020-09-13T14:36:43.000Z</time>
      </trkpt>
      <trkpt lat="45.12443" lon="5.87276">
        <ele>1632.97</ele>
        <time>2020-09-13T14:36:48.000Z</time>
      </trkpt>
      <trkpt lat="45.1241" lon="5.87215">
        <ele>1633.73</ele>
        <time>2020-09-13T14:36:53.000Z</time>
      </trkpt>
      <trkpt lat="45.12426" lon="5.87142">
        <ele>1629.16</ele>
        <time>2020-09-13T14:36:58.000Z</time>
      </trkpt>
      <trkpt lat="45.12477" lon="5.87111">
        <ele>1618.83</ele>
        <time>2020-09-13T14:37:03.000Z</time>
      </trkpt>
      <trkpt lat="45.12535" lon="5.87089">
        <ele>1620.62</ele>
        <time>2020-09-13T14:37:08.000Z</time>
      </trkpt>
      <trkpt lat="45.12591" lon="5.87107">
        <ele>1618.98</ele>
        <time>2020-09-13T14:37:13.000Z</time>
      </trkpt>
      <trkpt lat="45.12648" lon="5.87121">
        <ele>1614.54</ele>
        <time>2020-09-13T14:37:18.000Z</time>
      </trkpt>
      <trkpt lat="45.12699" lon="5.87133">
        <ele>1611.86</ele>
        <time>2020-09-13T14:37:23.000Z</time>
      </trkpt>
      <trkpt lat="45.12737" lon="5.87184">
        <ele>1612.24</ele>
        <time>2020-09-13T14:37:28.000Z</time>
      </trkpt>
      <trkpt lat="45.12772" lon="5.87242">
        <ele>1609.79</ele>
        <time>2020-09-13T14:37:33.000Z</time>
      </trkpt>
      <trkpt lat="45.12825" lon="5.87239">
        <ele>1605.29</ele>
        <time>2020-09-13T14:37:38.000Z</time>
      </trkpt>
      <trkpt lat="45.12877" lon="5.87214">
        <ele>1601.22</ele>
        <time>2020-09-13T14:37:43.000Z</time>
      </trkpt>
      <trkpt lat="45.12926" lon="5.87246">
        <ele>1597.71</ele>
        <time>2020-09-13T14:37:48.000Z</time>
      </trkpt>
      <trkpt lat="45.12978" lon="5.8728">
        <ele>1595.08</ele>
        <time>2020-09-13T14:37:53.000Z</time>
      </trkpt>
      <trkpt lat="45.13032" lon="5.87302">
        <ele>1591.3</ele>
        <time>2020-09-13T14:37:58.000Z</time>
      </trkpt>
      <trkpt lat="45.13062" lon="5.87377">
        <ele>1582.76</ele>
        <time>2020-09-13T14:38:03.000Z</time>
      </trkpt>
      <trkpt lat="45.13102" lon="5.87423">
        <ele>1581.13</ele>
        <time>2020-09-13T14:38:08.000Z</time>
      </trkpt>
      <trkpt lat="45.13142" lon="5.8744">
        <ele>1574.02</ele>
        <time>2020-09-13T14:38:13.000Z</time>
      </trkpt>
      <trkpt lat="45.13168" lon="5.87504">
        <ele>1569.2</ele>
        <time>2020-09-13T14:38:18.000Z</time>
      </trkpt>
      <trkpt lat="45.13193" lon="5.87574">
        <ele>1565.41</ele>
        <time>2020-09-13T14:38:23.000Z</time>
      </trkpt>
      <trkpt lat="45.13224" lon="5.87625">
        <ele>1558.24</ele>
        <time>2020-09-13T14:38:28.000Z</time>
      </trkpt>
      <trkpt lat="45.13271" lon="5.87628">
        <ele>1557.23</ele>
        <time>2020-09-13T14:38:33.000Z</time>
      </trkpt>
      <trkpt lat="45.13328" lon="5.87615">
        <ele>1559.51</ele>
        <time>2020-09-13T14:38:38.000Z</time>
      </trkpt>
      <trkpt lat="45.13374" lon="5.87583">
        <ele>1559.26</ele>
        <time>2020-09-13T14:38:43.000Z</time>
      </trkpt>
      <trkpt lat="45.13408" lon="5.87656">
        <ele>1548.9</ele>
        <time>2020-09-13T14:38:48.000Z</time>
      </trkpt>
      <trkpt lat="45.13421" lon="5.87719">
        <ele>1544.51</ele>
        <time>2020-09-13T14:38:53.000Z</time>
      </trkpt>
      <trkpt lat="45.13413" lon="5.87785">
        <ele>1543.19</ele>
        <time>2020-09-13T14:38:58.000Z</time>
      </trkpt>
      <trkpt lat="45.13394" lon="5.87849">
        <ele>1541.87</ele>
        <time>2020-09-13T14:39:03.000Z</time>
      </trkpt>
      <trkpt lat="45.1341" lon="5.87904">
        <ele>1541.01</ele>
        <time>2020-09-13T14:39:08.000Z</time>
      </trkpt>
      <trkpt lat="45.13429" lon="5.87944">
        <ele>1539.14</ele>
        <time>2020-09-13T14:39:13.000Z</time>
      </trkpt>
      <trkpt lat="45.13444" lon="5.87956">
        <ele>1537.99</ele>
        <time>2020-09-13T14:39:18.000Z</time>
      </trkpt>
      <trkpt lat="45.1343" lon="5.87947">
        <ele>1529.17</ele>
        <time>2020-09-13T14:39:23.000Z</time>
      </trkpt>
      <trkpt lat="45.13452" lon="5.87976">
        <ele>1525.47</ele>
        <time>2020-09-13T14:40:48.000Z</time>
      </trkpt>
      <trkpt lat="45.13484" lon="5.88002">
        <ele>1524.96</ele>
        <time>2020-09-13T14:40:53.000Z</time>
      </trkpt>
      <trkpt lat="45.13528" lon="5.88004">
        <ele>1523.55</ele>
        <time>2020-09-13T14:40:58.000Z</time>
      </trkpt>
      <trkpt lat="45.13573" lon="5.88031">
        <ele>1521.31</ele>
        <time>2020-09-13T14:41:03.000Z</time>
      </trkpt>
      <trkpt lat="45.13623" lon="5.8807">
        <ele>1514.24</ele>
        <time>2020-09-13T14:41:08.000Z</time>
      </trkpt>
      <trkpt lat="45.13678" lon="5.88078">
        <ele>1511.37</ele>
        <time>2020-09-13T14:41:13.000Z</time>
      </trkpt>
      <trkpt lat="45.13743" lon="5.88068">
        <ele>1511.84</ele>
        <time>2020-09-13T14:41:18.000Z</time>
      </trkpt>
      <trkpt lat="45.13805" lon="5.88052">
        <ele>1507.92</ele>
        <time>2020-09-13T14:41:23.000Z</time>
      </trkpt>
      <trkpt lat="45.13872" lon="5.88028">
        <ele>1509.72</ele>
        <time>2020-09-13T14:41:28.000Z</time>
      </trkpt>
      <trkpt lat="45.13941" lon="5.88008">
        <ele>1508.75</ele>
        <time>2020-09-13T14:41:33.000Z</time>
      </trkpt>
      <trkpt lat="45.14004" lon="5.87987">
        <ele>1500.07</ele>
        <time>2020-09-13T14:41:38.000Z</time>
      </trkpt>
      <trkpt lat="45.14072" lon="5.87962">
        <ele>1492.43</ele>
        <time>2020-09-13T14:41:43.000Z</time>
      </trkpt>
      <trkpt lat="45.14131" lon="5.87938">
        <ele>1478.1</ele>
        <time>2020-09-13T14:41:48.000Z</time>
      </trkpt>
      <trkpt lat="45.14196" lon="5.87926">
        <ele>1476.21</ele>
        <time>2020-09-13T14:41:53.000Z</time>
      </trkpt>
      <trkpt lat="45.14263" lon="5.87944">
        <ele>1478.14</ele>
        <time>2020-09-13T14:41:58.000Z</time>
      </trkpt>
      <trkpt lat="45.1433" lon="5.87959">
        <ele>1476.99</ele>
        <time>2020-09-13T14:42:03.000Z</time>
      </trkpt>
      <trkpt lat="45.14394" lon="5.87997">
        <ele>1465.23</ele>
        <time>2020-09-13T14:42:08.000Z</time>
      </trkpt>
      <trkpt lat="45.14454" lon="5.88037">
        <ele>1458.44</ele>
        <time>2020-09-13T14:42:13.000Z</time>
      </trkpt>
      <trkpt lat="45.14498" lon="5.88112">
        <ele>1456.21</ele>
        <time>2020-09-13T14:42:18.000Z</time>
      </trkpt>
      <trkpt lat="45.14522" lon="5.88196">
        <ele>1454.55</ele>
        <time>2020-09-13T14:42:23.000Z</time>
      </trkpt>
      <trkpt lat="45.14513" lon="5.88289">
        <ele>1443.13</ele>
        <time>2020-09-13T14:42:28.000Z</time>
      </trkpt>
      <trkpt lat="45.14472" lon="5.88373">
        <ele>1428.6</ele>
        <time>2020-09-13T14:42:33.000Z</time>
      </trkpt>
      <trkpt lat="45.14458" lon="5.88453">
        <ele>1424.63</ele>
        <time>2020-09-13T14:42:38.000Z</time>
      </trkpt>
      <trkpt lat="45.14437" lon="5.88533">
        <ele>1419.65</ele>
        <time>2020-09-13T14:42:43.000Z</time>
      </trkpt>
      <trkpt lat="45.14409" lon="5.88617">
        <ele>1418.52</ele>
        <time>2020-09-13T14:42:48.000Z</time>
      </trkpt>
      <trkpt lat="45.14366" lon="5.88677">
        <ele>1416.18</ele>
        <time>2020-09-13T14:42:53.000Z</time>
      </trkpt>
      <trkpt lat="45.14299" lon="5.88727">
        <ele>1413.88</ele>
        <time>2020-09-13T14:42:58.000Z</time>
      </trkpt>
      <trkpt lat="45.14241" lon="5.88756">
        <ele>1408.19</ele>
        <time>2020-09-13T14:43:03.000Z</time>
      </trkpt>
      <trkpt lat="45.14177" lon="5.88763">
        <ele>1394.6</ele>
        <time>2020-09-13T14:43:08.000Z</time>
      </trkpt>
      <trkpt lat="45.14124" lon="5.88783">
        <ele>1390.67</ele>
        <time>2020-09-13T14:43:13.000Z</time>
      </trkpt>
      <trkpt lat="45.14116" lon="5.88817">
        <ele>1387.39</ele>
        <time>2020-09-13T14:43:18.000Z</time>
      </trkpt>
      <trkpt lat="45.14141" lon="5.88822">
        <ele>1386.22</ele>
        <time>2020-09-13T14:43:23.000Z</time>
      </trkpt>
      <trkpt lat="45.14174" lon="5.88799">
        <ele>1380.99</ele>
        <time>2020-09-13T14:43:28.000Z</time>
      </trkpt>
      <trkpt lat="45.14217" lon="5.88782">
        <ele>1378.33</ele>
        <time>2020-09-13T14:43:33.000Z</time>
      </trkpt>
      <trkpt lat="45.14265" lon="5.8877">
        <ele>1375.77</ele>
        <time>2020-09-13T14:43:38.000Z</time>
      </trkpt>
      <trkpt lat="45.14316" lon="5.88747">
        <ele>1373.59</ele>
        <time>2020-09-13T14:43:43.000Z</time>
      </trkpt>
      <trkpt lat="45.14373" lon="5.88736">
        <ele>1373.37</ele>
        <time>2020-09-13T14:43:48.000Z</time>
      </trkpt>
      <trkpt lat="45.14427" lon="5.88739">
        <ele>1371.35</ele>
        <time>2020-09-13T14:43:53.000Z</time>
      </trkpt>
      <trkpt lat="45.14474" lon="5.88667">
        <ele>1365.72</ele>
        <time>2020-09-13T14:43:58.000Z</time>
      </trkpt>
      <trkpt lat="45.14505" lon="5.88598">
        <ele>1360.78</ele>
        <time>2020-09-13T14:44:03.000Z</time>
      </trkpt>
      <trkpt lat="45.14538" lon="5.88532">
        <ele>1360.08</ele>
        <time>2020-09-13T14:44:08.000Z</time>
      </trkpt>
      <trkpt lat="45.14582" lon="5.88477">
        <ele>1358.53</ele>
        <time>2020-09-13T14:44:13.000Z</time>
      </trkpt>
      <trkpt lat="45.14605" lon="5.88401">
        <ele>1354.71</ele>
        <time>2020-09-13T14:44:18.000Z</time>
      </trkpt>
      <trkpt lat="45.14619" lon="5.88318">
        <ele>1354.88</ele>
        <time>2020-09-13T14:44:23.000Z</time>
      </trkpt>
      <trkpt lat="45.14634" lon="5.88232">
        <ele>1356.37</ele>
        <time>2020-09-13T14:44:28.000Z</time>
      </trkpt>
      <trkpt lat="45.14647" lon="5.88156">
        <ele>1354.26</ele>
        <time>2020-09-13T14:44:33.000Z</time>
      </trkpt>
      <trkpt lat="45.14644" lon="5.88071">
        <ele>1353.75</ele>
        <time>2020-09-13T14:44:38.000Z</time>
      </trkpt>
      <trkpt lat="45.14629" lon="5.87986">
        <ele>1351.79</ele>
        <time>2020-09-13T14:44:43.000Z</time>
      </trkpt>
      <trkpt lat="45.14621" lon="5.87898">
        <ele>1348.97</ele>
        <time>2020-09-13T14:44:48.000Z</time>
      </trkpt>
      <trkpt lat="45.14594" lon="5.87827">
        <ele>1342.66</ele>
        <time>2020-09-13T14:44:53.000Z</time>
      </trkpt>
      <trkpt lat="45.14538" lon="5.878">
        <ele>1334.06</ele>
        <time>2020-09-13T14:44:58.000Z</time>
      </trkpt>
      <trkpt lat="45.14478" lon="5.87771">
        <ele>1331.02</ele>
        <time>2020-09-13T14:45:03.000Z</time>
      </trkpt>
      <trkpt lat="45.14428" lon="5.87721">
        <ele>1327.83</ele>
        <time>2020-09-13T14:45:08.000Z</time>
      </trkpt>
      <trkpt lat="45.1438" lon="5.87673">
        <ele>1325.77</ele>
        <time>2020-09-13T14:45:13.000Z</time>
      </trkpt>
      <trkpt lat="45.1433" lon="5.87639">
        <ele>1323.17</ele>
        <time>2020-09-13T14:45:18.000Z</time>
      </trkpt>
      <trkpt lat="45.14283" lon="5.87612">
        <ele>1319.95</ele>
        <time>2020-09-13T14:45:23.000Z</time>
      </trkpt>
      <trkpt lat="45.14225" lon="5.87577">
        <ele>1320.16</ele>
        <time>2020-09-13T14:45:28.000Z</time>
      </trkpt>
      <trkpt lat="45.14152" lon="5.87567">
        <ele>1314.39</ele>
        <time>2020-09-13T14:45:33.000Z</time>
      </trkpt>
      <trkpt lat="45.14098" lon="5.87572">
        <ele>1312.28</ele>
        <time>2020-09-13T14:45:38.000Z</time>
      </trkpt>
      <trkpt lat="45.14063" lon="5.87573">
        <ele>1310.53</ele>
        <time>2020-09-13T14:45:43.000Z</time>
      </trkpt>
      <trkpt lat="45.13995" lon="5.87608">
        <ele>1311.86</ele>
        <time>2020-09-13T14:45:48.000Z</time>
      </trkpt>
      <trkpt lat="45.13935" lon="5.87596">
        <ele>1312.26</ele>
        <time>2020-09-13T14:45:53.000Z</time>
      </trkpt>
      <trkpt lat="45.13928" lon="5.87523">
        <ele>1310.67</ele>
        <time>2020-09-13T14:45:58.000Z</time>
      </trkpt>
      <trkpt lat="45.13897" lon="5.87441">
        <ele>1307.92</ele>
        <time>2020-09-13T14:46:03.000Z</time>
      </trkpt>
      <trkpt lat="45.13856" lon="5.87414">
        <ele>1307.43</ele>
        <time>2020-09-13T14:46:08.000Z</time>
      </trkpt>
      <trkpt lat="45.13806" lon="5.87401">
        <ele>1304.84</ele>
        <time>2020-09-13T14:46:13.000Z</time>
      </trkpt>
      <trkpt lat="45.13808" lon="5.87368">
        <ele>1299.93</ele>
        <time>2020-09-13T14:46:18.000Z</time>
      </trkpt>
      <trkpt lat="45.13816" lon="5.87361">
        <ele>1297.47</ele>
        <time>2020-09-13T14:46:24.000Z</time>
      </trkpt>
      <trkpt lat="45.13826" lon="5.87359">
        <ele>1297.16</ele>
        <time>2020-09-13T14:47:10.000Z</time>
      </trkpt>
      <trkpt lat="45.13856" lon="5.87363">
        <ele>1292.48</ele>
        <time>2020-09-13T14:47:15.000Z</time>
      </trkpt>
      <trkpt lat="45.1389" lon="5.87389">
        <ele>1290.16</ele>
        <time>2020-09-13T14:47:20.000Z</time>
      </trkpt>
      <trkpt lat="45.1393" lon="5.87439">
        <ele>1285.91</ele>
        <time>2020-09-13T14:47:25.000Z</time>
      </trkpt>
      <trkpt lat="45.13958" lon="5.87507">
        <ele>1283.79</ele>
        <time>2020-09-13T14:47:30.000Z</time>
      </trkpt>
      <trkpt lat="45.14003" lon="5.87547">
        <ele>1284.03</ele>
        <time>2020-09-13T14:47:35.000Z</time>
      </trkpt>
      <trkpt lat="45.14064" lon="5.87526">
        <ele>1278.4</ele>
        <time>2020-09-13T14:47:40.000Z</time>
      </trkpt>
      <trkpt lat="45.14121" lon="5.87472">
        <ele>1280.21</ele>
        <time>2020-09-13T14:47:45.000Z</time>
      </trkpt>
      <trkpt lat="45.14179" lon="5.87434">
        <ele>1285.06</ele>
        <time>2020-09-13T14:47:50.000Z</time>
      </trkpt>
      <trkpt lat="45.14244" lon="5.87401">
        <ele>1292.25</ele>
        <time>2020-09-13T14:47:55.000Z</time>
      </trkpt>
      <trkpt lat="45.14298" lon="5.87387">
        <ele>1283.24</ele>
        <time>2020-09-13T14:48:00.000Z</time>
      </trkpt>
      <trkpt lat="45.14353" lon="5.87367">
        <ele>1277.15</ele>
        <time>2020-09-13T14:48:05.000Z</time>
      </trkpt>
      <trkpt lat="45.14411" lon="5.87356">
        <ele>1274.4</ele>
        <time>2020-09-13T14:48:10.000Z</time>
      </trkpt>
      <trkpt lat="45.14477" lon="5.87385">
        <ele>1270.95</ele>
        <time>2020-09-13T14:48:15.000Z</time>
      </trkpt>
      <trkpt lat="45.14527" lon="5.87434">
        <ele>1263.06</ele>
        <time>2020-09-13T14:48:20.000Z</time>
      </trkpt>
      <trkpt lat="45.1459" lon="5.87443">
        <ele>1260.69</ele>
        <time>2020-09-13T14:48:25.000Z</time>
      </trkpt>
      <trkpt lat="45.14651" lon="5.87477">
        <ele>1256.94</ele>
        <time>2020-09-13T14:48:30.000Z</time>
      </trkpt>
      <trkpt lat="45.14715" lon="5.87489">
        <ele>1248.69</ele>
        <time>2020-09-13T14:48:35.000Z</time>
      </trkpt>
      <trkpt lat="45.14789" lon="5.87506">
        <ele>1249.16</ele>
        <time>2020-09-13T14:48:40.000Z</time>
      </trkpt>
      <trkpt lat="45.14862" lon="5.87519">
        <ele>1246.29</ele>
        <time>2020-09-13T14:48:45.000Z</time>
      </trkpt>
      <trkpt lat="45.14932" lon="5.87504">
        <ele>1243.83</ele>
        <time>2020-09-13T14:48:50.000Z</time>
      </trkpt>
      <trkpt lat="45.15001" lon="5.87454">
        <ele>1240.32</ele>
        <time>2020-09-13T14:48:55.000Z</time>
      </trkpt>
      <trkpt lat="45.15055" lon="5.87425">
        <ele>1232.31</ele>
        <time>2020-09-13T14:49:00.000Z</time>
      </trkpt>
      <trkpt lat="45.15087" lon="5.87502">
        <ele>1224.82</ele>
        <time>2020-09-13T14:49:05.000Z</time>
      </trkpt>
      <trkpt lat="45.15088" lon="5.8759">
        <ele>1217.94</ele>
        <time>2020-09-13T14:49:10.000Z</time>
      </trkpt>
      <trkpt lat="45.15092" lon="5.87692">
        <ele>1204.52</ele>
        <time>2020-09-13T14:49:15.000Z</time>
      </trkpt>
      <trkpt lat="45.15119" lon="5.87768">
        <ele>1197.5</ele>
        <time>2020-09-13T14:49:20.000Z</time>
      </trkpt>
      <trkpt lat="45.15147" lon="5.87848">
        <ele>1186.86</ele>
        <time>2020-09-13T14:49:25.000Z</time>
      </trkpt>
      <trkpt lat="45.15172" lon="5.87935">
        <ele>1185.19</ele>
        <time>2020-09-13T14:49:30.000Z</time>
      </trkpt>
      <trkpt lat="45.15219" lon="5.88169">
        <ele>1177.94</ele>
        <time>2020-09-13T14:49:42.000Z</time>
      </trkpt>
      <trkpt lat="45.15224" lon="5.88276">
        <ele>1170.27</ele>
        <time>2020-09-13T14:49:47.000Z</time>
      </trkpt>
      <trkpt lat="45.15226" lon="5.88376">
        <ele>1164.9</ele>
        <time>2020-09-13T14:49:52.000Z</time>
      </trkpt>
      <trkpt lat="45.15202" lon="5.88474">
        <ele>1156.51</ele>
        <time>2020-09-13T14:49:57.000Z</time>
      </trkpt>
      <trkpt lat="45.15189" lon="5.88591">
        <ele>1150.31</ele>
        <time>2020-09-13T14:50:02.000Z</time>
      </trkpt>
      <trkpt lat="45.15174" lon="5.88675">
        <ele>1148.13</ele>
        <time>2020-09-13T14:50:07.000Z</time>
      </trkpt>
      <trkpt lat="45.15174" lon="5.88708">
        <ele>1141.69</ele>
        <time>2020-09-13T14:50:12.000Z</time>
      </trkpt>
      <trkpt lat="45.15183" lon="5.88701">
        <ele>1138.09</ele>
        <time>2020-09-13T14:50:18.000Z</time>
      </trkpt>
      <trkpt lat="45.15183" lon="5.88684">
        <ele>1134.43</ele>
        <time>2020-09-13T14:50:24.000Z</time>
      </trkpt>
      <trkpt lat="45.15182" lon="5.88665">
        <ele>1134.3</ele>
        <time>2020-09-13T14:50:29.000Z</time>
      </trkpt>
      <trkpt lat="45.1519" lon="5.8865">
        <ele>1134.55</ele>
        <time>2020-09-13T14:50:34.000Z</time>
      </trkpt>
      <trkpt lat="45.15183" lon="5.88627">
        <ele>1133.36</ele>
        <time>2020-09-13T14:50:39.000Z</time>
      </trkpt>
      <trkpt lat="45.1516" lon="5.88583">
        <ele>1129.69</ele>
        <time>2020-09-13T14:50:44.000Z</time>
      </trkpt>
      <trkpt lat="45.15172" lon="5.8868">
        <ele>1124.63</ele>
        <time>2020-09-13T14:50:49.000Z</time>
      </trkpt>
      <trkpt lat="45.15179" lon="5.88661">
        <ele>1120.82</ele>
        <time>2020-09-13T14:50:54.000Z</time>
      </trkpt>
      <trkpt lat="45.15186" lon="5.88647">
        <ele>1125.13</ele>
        <time>2020-09-13T14:52:06.000Z</time>
      </trkpt>
      <trkpt lat="45.15197" lon="5.88599">
        <ele>1124.92</ele>
        <time>2020-09-13T14:52:11.000Z</time>
      </trkpt>
      <trkpt lat="45.15218" lon="5.88557">
        <ele>1111.89</ele>
        <time>2020-09-13T14:52:16.000Z</time>
      </trkpt>
      <trkpt lat="45.1524" lon="5.88504">
        <ele>1112</ele>
        <time>2020-09-13T14:52:21.000Z</time>
      </trkpt>
      <trkpt lat="45.15273" lon="5.88463">
        <ele>1113.58</ele>
        <time>2020-09-13T14:52:26.000Z</time>
      </trkpt>
      <trkpt lat="45.15314" lon="5.88415">
        <ele>1112.02</ele>
        <time>2020-09-13T14:52:31.000Z</time>
      </trkpt>
      <trkpt lat="45.15332" lon="5.88334">
        <ele>1108.87</ele>
        <time>2020-09-13T14:52:36.000Z</time>
      </trkpt>
      <trkpt lat="45.15348" lon="5.88248">
        <ele>1105.88</ele>
        <time>2020-09-13T14:52:41.000Z</time>
      </trkpt>
      <trkpt lat="45.15368" lon="5.88171">
        <ele>1113.58</ele>
        <time>2020-09-13T14:52:46.000Z</time>
      </trkpt>
      <trkpt lat="45.15375" lon="5.88073">
        <ele>1115</ele>
        <time>2020-09-13T14:52:51.000Z</time>
      </trkpt>
      <trkpt lat="45.15419" lon="5.88016">
        <ele>1111.8</ele>
        <time>2020-09-13T14:52:56.000Z</time>
      </trkpt>
      <trkpt lat="45.15437" lon="5.87946">
        <ele>1104.08</ele>
        <time>2020-09-13T14:53:01.000Z</time>
      </trkpt>
      <trkpt lat="45.15436" lon="5.87858">
        <ele>1102.63</ele>
        <time>2020-09-13T14:53:06.000Z</time>
      </trkpt>
      <trkpt lat="45.1544" lon="5.87767">
        <ele>1103.26</ele>
        <time>2020-09-13T14:53:11.000Z</time>
      </trkpt>
      <trkpt lat="45.15437" lon="5.87682">
        <ele>1101.9</ele>
        <time>2020-09-13T14:53:16.000Z</time>
      </trkpt>
      <trkpt lat="45.15425" lon="5.87596">
        <ele>1099.29</ele>
        <time>2020-09-13T14:53:21.000Z</time>
      </trkpt>
      <trkpt lat="45.15406" lon="5.87505">
        <ele>1097.92</ele>
        <time>2020-09-13T14:53:26.000Z</time>
      </trkpt>
      <trkpt lat="45.15392" lon="5.87413">
        <ele>1097.56</ele>
        <time>2020-09-13T14:53:31.000Z</time>
      </trkpt>
      <trkpt lat="45.15421" lon="5.87322">
        <ele>1096.69</ele>
        <time>2020-09-13T14:53:36.000Z</time>
      </trkpt>
      <trkpt lat="45.15419" lon="5.87228">
        <ele>1096.36</ele>
        <time>2020-09-13T14:53:41.000Z</time>
      </trkpt>
      <trkpt lat="45.15424" lon="5.87147">
        <ele>1096.99</ele>
        <time>2020-09-13T14:53:46.000Z</time>
      </trkpt>
      <trkpt lat="45.15451" lon="5.8712">
        <ele>1079.83</ele>
        <time>2020-09-13T14:53:51.000Z</time>
      </trkpt>
      <trkpt lat="45.15464" lon="5.87101">
        <ele>1074.73</ele>
        <time>2020-09-13T14:53:56.000Z</time>
      </trkpt>
      <trkpt lat="45.15469" lon="5.87111">
        <ele>1069.8</ele>
        <time>2020-09-13T14:54:01.000Z</time>
      </trkpt>
      <trkpt lat="45.15473" lon="5.87124">
        <ele>1063.93</ele>
        <time>2020-09-13T14:54:08.000Z</time>
      </trkpt>
      <trkpt lat="45.15477" lon="5.87138">
        <ele>1064.91</ele>
        <time>2020-09-13T14:54:13.000Z</time>
      </trkpt>
      <trkpt lat="45.15485" lon="5.87157">
        <ele>1063.3</ele>
        <time>2020-09-13T14:54:18.000Z</time>
      </trkpt>
      <trkpt lat="45.15499" lon="5.87187">
        <ele>1062.22</ele>
        <time>2020-09-13T14:54:23.000Z</time>
      </trkpt>
      <trkpt lat="45.15501" lon="5.87226">
        <ele>1063.16</ele>
        <time>2020-09-13T14:54:28.000Z</time>
      </trkpt>
      <trkpt lat="45.15495" lon="5.87272">
        <ele>1062.25</ele>
        <time>2020-09-13T14:54:33.000Z</time>
      </trkpt>
      <trkpt lat="45.15484" lon="5.87321">
        <ele>1061.57</ele>
        <time>2020-09-13T14:54:38.000Z</time>
      </trkpt>
      <trkpt lat="45.15515" lon="5.8736">
        <ele>1058.12</ele>
        <time>2020-09-13T14:54:43.000Z</time>
      </trkpt>
      <trkpt lat="45.15561" lon="5.87372">
        <ele>1055.3</ele>
        <time>2020-09-13T14:54:48.000Z</time>
      </trkpt>
      <trkpt lat="45.15611" lon="5.87375">
        <ele>1050.99</ele>
        <time>2020-09-13T14:54:53.000Z</time>
      </trkpt>
      <trkpt lat="45.1565" lon="5.87381">
        <ele>1045.43</ele>
        <time>2020-09-13T14:54:58.000Z</time>
      </trkpt>
      <trkpt lat="45.15694" lon="5.87357">
        <ele>1043.91</ele>
        <time>2020-09-13T14:55:03.000Z</time>
      </trkpt>
      <trkpt lat="45.15728" lon="5.87356">
        <ele>1039.88</ele>
        <time>2020-09-13T14:55:08.000Z</time>
      </trkpt>
      <trkpt lat="45.15763" lon="5.87354">
        <ele>1038.92</ele>
        <time>2020-09-13T14:55:13.000Z</time>
      </trkpt>
      <trkpt lat="45.15809" lon="5.87351">
        <ele>1038.93</ele>
        <time>2020-09-13T14:55:18.000Z</time>
      </trkpt>
      <trkpt lat="45.15856" lon="5.87378">
        <ele>1036.39</ele>
        <time>2020-09-13T14:55:23.000Z</time>
      </trkpt>
      <trkpt lat="45.15909" lon="5.87425">
        <ele>1033.05</ele>
        <time>2020-09-13T14:55:28.000Z</time>
      </trkpt>
      <trkpt lat="45.1593" lon="5.87471">
        <ele>1031.01</ele>
        <time>2020-09-13T14:55:33.000Z</time>
      </trkpt>
      <trkpt lat="45.15974" lon="5.87503">
        <ele>1031.72</ele>
        <time>2020-09-13T14:55:38.000Z</time>
      </trkpt>
      <trkpt lat="45.15992" lon="5.87537">
        <ele>1024.14</ele>
        <time>2020-09-13T14:55:43.000Z</time>
      </trkpt>
      <trkpt lat="45.16004" lon="5.87612">
        <ele>1021.43</ele>
        <time>2020-09-13T14:55:54.000Z</time>
      </trkpt>
      <trkpt lat="45.16005" lon="5.87656">
        <ele>1022.38</ele>
        <time>2020-09-13T14:55:59.000Z</time>
      </trkpt>
      <trkpt lat="45.16008" lon="5.87692">
        <ele>1011.71</ele>
        <time>2020-09-13T14:56:04.000Z</time>
      </trkpt>
      <trkpt lat="45.15997" lon="5.87734">
        <ele>1009.01</ele>
        <time>2020-09-13T14:56:09.000Z</time>
      </trkpt>
      <trkpt lat="45.15977" lon="5.87767">
        <ele>1007.02</ele>
        <time>2020-09-13T14:56:14.000Z</time>
      </trkpt>
      <trkpt lat="45.15971" lon="5.87807">
        <ele>1002.22</ele>
        <time>2020-09-13T14:56:19.000Z</time>
      </trkpt>
      <trkpt lat="45.15958" lon="5.87841">
        <ele>995.87</ele>
        <time>2020-09-13T14:56:24.000Z</time>
      </trkpt>
      <trkpt lat="45.1594" lon="5.87886">
        <ele>992.25</ele>
        <time>2020-09-13T14:56:29.000Z</time>
      </trkpt>
      <trkpt lat="45.15953" lon="5.87928">
        <ele>988.02</ele>
        <time>2020-09-13T14:56:34.000Z</time>
      </trkpt>
      <trkpt lat="45.15972" lon="5.8795">
        <ele>985.46</ele>
        <time>2020-09-13T14:56:39.000Z</time>
      </trkpt>
      <trkpt lat="45.15995" lon="5.87966">
        <ele>988.09</ele>
        <time>2020-09-13T14:56:44.000Z</time>
      </trkpt>
      <trkpt lat="45.16019" lon="5.87936">
        <ele>986.38</ele>
        <time>2020-09-13T14:56:49.000Z</time>
      </trkpt>
      <trkpt lat="45.1605" lon="5.87895">
        <ele>985.49</ele>
        <time>2020-09-13T14:56:54.000Z</time>
      </trkpt>
      <trkpt lat="45.16082" lon="5.87866">
        <ele>985.22</ele>
        <time>2020-09-13T14:56:59.000Z</time>
      </trkpt>
      <trkpt lat="45.16111" lon="5.87823">
        <ele>982.9</ele>
        <time>2020-09-13T14:57:04.000Z</time>
      </trkpt>
      <trkpt lat="45.16159" lon="5.87815">
        <ele>976.02</ele>
        <time>2020-09-13T14:57:09.000Z</time>
      </trkpt>
      <trkpt lat="45.16181" lon="5.87838">
        <ele>971.05</ele>
        <time>2020-09-13T14:57:14.000Z</time>
      </trkpt>
      <trkpt lat="45.16199" lon="5.8783">
        <ele>977</ele>
        <time>2020-09-13T14:57:19.000Z</time>
      </trkpt>
      <trkpt lat="45.16205" lon="5.8778">
        <ele>975.31</ele>
        <time>2020-09-13T14:57:24.000Z</time>
      </trkpt>
      <trkpt lat="45.1622" lon="5.87761">
        <ele>972.83</ele>
        <time>2020-09-13T14:57:29.000Z</time>
      </trkpt>
      <trkpt lat="45.16234" lon="5.87754">
        <ele>975.27</ele>
        <time>2020-09-13T14:57:34.000Z</time>
      </trkpt>
      <trkpt lat="45.16251" lon="5.87753">
        <ele>977.55</ele>
        <time>2020-09-13T14:57:39.000Z</time>
      </trkpt>
      <trkpt lat="45.16272" lon="5.87746">
        <ele>972.52</ele>
        <time>2020-09-13T14:57:44.000Z</time>
      </trkpt>
      <trkpt lat="45.16297" lon="5.87748">
        <ele>970.69</ele>
        <time>2020-09-13T14:57:49.000Z</time>
      </trkpt>
      <trkpt lat="45.16312" lon="5.87754">
        <ele>968.52</ele>
        <time>2020-09-13T14:57:54.000Z</time>
      </trkpt>
      <trkpt lat="45.16338" lon="5.87751">
        <ele>968.52</ele>
        <time>2020-09-13T14:57:59.000Z</time>
      </trkpt>
      <trkpt lat="45.16355" lon="5.87743">
        <ele>970.05</ele>
        <time>2020-09-13T14:58:04.000Z</time>
      </trkpt>
      <trkpt lat="45.16358" lon="5.87727">
        <ele>970.18</ele>
        <time>2020-09-13T14:58:09.000Z</time>
      </trkpt>
      <trkpt lat="45.16364" lon="5.87718">
        <ele>970.46</ele>
        <time>2020-09-13T14:58:15.000Z</time>
      </trkpt>
      <trkpt lat="45.16371" lon="5.87698">
        <ele>968.15</ele>
        <time>2020-09-13T14:58:20.000Z</time>
      </trkpt>
      <trkpt lat="45.16371" lon="5.87681">
        <ele>969.11</ele>
        <time>2020-09-13T14:58:25.000Z</time>
      </trkpt>
      <trkpt lat="45.16377" lon="5.87671">
        <ele>967.07</ele>
        <time>2020-09-13T14:58:30.000Z</time>
      </trkpt>
      <trkpt lat="45.16391" lon="5.87658">
        <ele>965.14</ele>
        <time>2020-09-13T14:58:35.000Z</time>
      </trkpt>
      <trkpt lat="45.16401" lon="5.87655">
        <ele>957.93</ele>
        <time>2020-09-13T14:58:41.000Z</time>
      </trkpt>
      <trkpt lat="45.16415" lon="5.87661">
        <ele>954.33</ele>
        <time>2020-09-13T14:58:46.000Z</time>
      </trkpt>
      <trkpt lat="45.16434" lon="5.87665">
        <ele>952.78</ele>
        <time>2020-09-13T14:58:51.000Z</time>
      </trkpt>
      <trkpt lat="45.16448" lon="5.87653">
        <ele>953.46</ele>
        <time>2020-09-13T14:58:56.000Z</time>
      </trkpt>
      <trkpt lat="45.16457" lon="5.87652">
        <ele>956.92</ele>
        <time>2020-09-13T14:59:18.000Z</time>
      </trkpt>
      <trkpt lat="45.16464" lon="5.87643">
        <ele>954.12</ele>
        <time>2020-09-13T14:59:50.000Z</time>
      </trkpt>
      <trkpt lat="45.16473" lon="5.87625">
        <ele>948.44</ele>
        <time>2020-09-13T14:59:55.000Z</time>
      </trkpt>
      <trkpt lat="45.16483" lon="5.87604">
        <ele>948.92</ele>
        <time>2020-09-13T15:00:00.000Z</time>
      </trkpt>
      <trkpt lat="45.16492" lon="5.87577">
        <ele>947.06</ele>
        <time>2020-09-13T15:00:05.000Z</time>
      </trkpt>
      <trkpt lat="45.16506" lon="5.87563">
        <ele>949.75</ele>
        <time>2020-09-13T15:00:10.000Z</time>
      </trkpt>
      <trkpt lat="45.16524" lon="5.87556">
        <ele>952.23</ele>
        <time>2020-09-13T15:00:15.000Z</time>
      </trkpt>
      <trkpt lat="45.16557" lon="5.87548">
        <ele>950.95</ele>
        <time>2020-09-13T15:00:20.000Z</time>
      </trkpt>
      <trkpt lat="45.16583" lon="5.87538">
        <ele>952.43</ele>
        <time>2020-09-13T15:00:25.000Z</time>
      </trkpt>
      <trkpt lat="45.16603" lon="5.87525">
        <ele>955.77</ele>
        <time>2020-09-13T15:00:30.000Z</time>
      </trkpt>
      <trkpt lat="45.16617" lon="5.87516">
        <ele>955.99</ele>
        <time>2020-09-13T15:00:35.000Z</time>
      </trkpt>
      <trkpt lat="45.16638" lon="5.87512">
        <ele>956.3</ele>
        <time>2020-09-13T15:00:40.000Z</time>
      </trkpt>
      <trkpt lat="45.16663" lon="5.87493">
        <ele>957.05</ele>
        <time>2020-09-13T15:00:45.000Z</time>
      </trkpt>
      <trkpt lat="45.16664" lon="5.8747">
        <ele>953.84</ele>
        <time>2020-09-13T15:00:50.000Z</time>
      </trkpt>
      <trkpt lat="45.16667" lon="5.87441">
        <ele>950.33</ele>
        <time>2020-09-13T15:00:55.000Z</time>
      </trkpt>
      <trkpt lat="45.16668" lon="5.87408">
        <ele>950.61</ele>
        <time>2020-09-13T15:01:00.000Z</time>
      </trkpt>
      <trkpt lat="45.16681" lon="5.87384">
        <ele>952.18</ele>
        <time>2020-09-13T15:01:05.000Z</time>
      </trkpt>
      <trkpt lat="45.16681" lon="5.87353">
        <ele>951.06</ele>
        <time>2020-09-13T15:01:10.000Z</time>
      </trkpt>
      <trkpt lat="45.16685" lon="5.87322">
        <ele>951.37</ele>
        <time>2020-09-13T15:01:15.000Z</time>
      </trkpt>
      <trkpt lat="45.16694" lon="5.87289">
        <ele>952.19</ele>
        <time>2020-09-13T15:01:20.000Z</time>
      </trkpt>
      <trkpt lat="45.16692" lon="5.87246">
        <ele>952.76</ele>
        <time>2020-09-13T15:01:25.000Z</time>
      </trkpt>
      <trkpt lat="45.16684" lon="5.87209">
        <ele>948.83</ele>
        <time>2020-09-13T15:01:30.000Z</time>
      </trkpt>
      <trkpt lat="45.16677" lon="5.87154">
        <ele>948.3</ele>
        <time>2020-09-13T15:01:35.000Z</time>
      </trkpt>
      <trkpt lat="45.16673" lon="5.87121">
        <ele>946.31</ele>
        <time>2020-09-13T15:01:40.000Z</time>
      </trkpt>
      <trkpt lat="45.16673" lon="5.87107">
        <ele>948.15</ele>
        <time>2020-09-13T15:01:54.000Z</time>
      </trkpt>
      <trkpt lat="45.1667" lon="5.87094">
        <ele>951.1</ele>
        <time>2020-09-13T15:01:59.000Z</time>
      </trkpt>
      <trkpt lat="45.16658" lon="5.87077">
        <ele>945.37</ele>
        <time>2020-09-13T15:02:04.000Z</time>
      </trkpt>
      <trkpt lat="45.16638" lon="5.87023">
        <ele>943.99</ele>
        <time>2020-09-13T15:02:09.000Z</time>
      </trkpt>
      <trkpt lat="45.16627" lon="5.86966">
        <ele>941.86</ele>
        <time>2020-09-13T15:02:14.000Z</time>
      </trkpt>
      <trkpt lat="45.16612" lon="5.86895">
        <ele>938.74</ele>
        <time>2020-09-13T15:02:19.000Z</time>
      </trkpt>
      <trkpt lat="45.16595" lon="5.86823">
        <ele>940.1</ele>
        <time>2020-09-13T15:02:24.000Z</time>
      </trkpt>
      <trkpt lat="45.16578" lon="5.86745">
        <ele>941.73</ele>
        <time>2020-09-13T15:02:29.000Z</time>
      </trkpt>
      <trkpt lat="45.1654" lon="5.86683">
        <ele>944.29</ele>
        <time>2020-09-13T15:02:34.000Z</time>
      </trkpt>
      <trkpt lat="45.16506" lon="5.86603">
        <ele>942.82</ele>
        <time>2020-09-13T15:02:39.000Z</time>
      </trkpt>
      <trkpt lat="45.16478" lon="5.86526">
        <ele>940.12</ele>
        <time>2020-09-13T15:02:44.000Z</time>
      </trkpt>
      <trkpt lat="45.16455" lon="5.86474">
        <ele>937.24</ele>
        <time>2020-09-13T15:02:49.000Z</time>
      </trkpt>
      <trkpt lat="45.16466" lon="5.8649">
        <ele>925.04</ele>
        <time>2020-09-13T15:02:54.000Z</time>
      </trkpt>
      <trkpt lat="45.16499" lon="5.86512">
        <ele>921.18</ele>
        <time>2020-09-13T15:02:59.000Z</time>
      </trkpt>
      <trkpt lat="45.16531" lon="5.86556">
        <ele>914.6</ele>
        <time>2020-09-13T15:03:04.000Z</time>
      </trkpt>
      <trkpt lat="45.16552" lon="5.86564">
        <ele>909.4</ele>
        <time>2020-09-13T15:03:09.000Z</time>
      </trkpt>
      <trkpt lat="45.16552" lon="5.86524">
        <ele>904.02</ele>
        <time>2020-09-13T15:03:14.000Z</time>
      </trkpt>
      <trkpt lat="45.16559" lon="5.86474">
        <ele>901.97</ele>
        <time>2020-09-13T15:03:19.000Z</time>
      </trkpt>
      <trkpt lat="45.16547" lon="5.86414">
        <ele>901.33</ele>
        <time>2020-09-13T15:03:24.000Z</time>
      </trkpt>
      <trkpt lat="45.16541" lon="5.86355">
        <ele>891.29</ele>
        <time>2020-09-13T15:03:29.000Z</time>
      </trkpt>
      <trkpt lat="45.16555" lon="5.86308">
        <ele>883.64</ele>
        <time>2020-09-13T15:03:34.000Z</time>
      </trkpt>
      <trkpt lat="45.16573" lon="5.86244">
        <ele>881.43</ele>
        <time>2020-09-13T15:03:39.000Z</time>
      </trkpt>
      <trkpt lat="45.16594" lon="5.86207">
        <ele>881.04</ele>
        <time>2020-09-13T15:03:44.000Z</time>
      </trkpt>
      <trkpt lat="45.16606" lon="5.86162">
        <ele>878.73</ele>
        <time>2020-09-13T15:03:49.000Z</time>
      </trkpt>
      <trkpt lat="45.16622" lon="5.86103">
        <ele>874.97</ele>
        <time>2020-09-13T15:03:54.000Z</time>
      </trkpt>
      <trkpt lat="45.16642" lon="5.86045">
        <ele>875.99</ele>
        <time>2020-09-13T15:03:59.000Z</time>
      </trkpt>
      <trkpt lat="45.16644" lon="5.85978">
        <ele>873.51</ele>
        <time>2020-09-13T15:04:04.000Z</time>
      </trkpt>
      <trkpt lat="45.16629" lon="5.85922">
        <ele>867.67</ele>
        <time>2020-09-13T15:04:09.000Z</time>
      </trkpt>
      <trkpt lat="45.16611" lon="5.85875">
        <ele>851.31</ele>
        <time>2020-09-13T15:04:14.000Z</time>
      </trkpt>
      <trkpt lat="45.16594" lon="5.85808">
        <ele>847.22</ele>
        <time>2020-09-13T15:04:19.000Z</time>
      </trkpt>
      <trkpt lat="45.16576" lon="5.85729">
        <ele>842.55</ele>
        <time>2020-09-13T15:04:24.000Z</time>
      </trkpt>
      <trkpt lat="45.16565" lon="5.85659">
        <ele>843.22</ele>
        <time>2020-09-13T15:04:29.000Z</time>
      </trkpt>
      <trkpt lat="45.16542" lon="5.85593">
        <ele>841.18</ele>
        <time>2020-09-13T15:04:34.000Z</time>
      </trkpt>
      <trkpt lat="45.16512" lon="5.85538">
        <ele>835.38</ele>
        <time>2020-09-13T15:04:39.000Z</time>
      </trkpt>
      <trkpt lat="45.16486" lon="5.85479">
        <ele>834.95</ele>
        <time>2020-09-13T15:04:44.000Z</time>
      </trkpt>
      <trkpt lat="45.1648" lon="5.85424">
        <ele>834.69</ele>
        <time>2020-09-13T15:04:49.000Z</time>
      </trkpt>
      <trkpt lat="45.16476" lon="5.85369">
        <ele>837.5</ele>
        <time>2020-09-13T15:04:54.000Z</time>
      </trkpt>
      <trkpt lat="45.16482" lon="5.85316">
        <ele>837.98</ele>
        <time>2020-09-13T15:04:59.000Z</time>
      </trkpt>
      <trkpt lat="45.16479" lon="5.85255">
        <ele>838.18</ele>
        <time>2020-09-13T15:05:04.000Z</time>
      </trkpt>
      <trkpt lat="45.16467" lon="5.85185">
        <ele>837.13</ele>
        <time>2020-09-13T15:05:09.000Z</time>
      </trkpt>
      <trkpt lat="45.16477" lon="5.85116">
        <ele>828.46</ele>
        <time>2020-09-13T15:05:14.000Z</time>
      </trkpt>
      <trkpt lat="45.16501" lon="5.85051">
        <ele>822.57</ele>
        <time>2020-09-13T15:05:19.000Z</time>
      </trkpt>
      <trkpt lat="45.16513" lon="5.84996">
        <ele>816.43</ele>
        <time>2020-09-13T15:05:24.000Z</time>
      </trkpt>
      <trkpt lat="45.16534" lon="5.84981">
        <ele>814.8</ele>
        <time>2020-09-13T15:05:29.000Z</time>
      </trkpt>
      <trkpt lat="45.16539" lon="5.84992">
        <ele>808.4</ele>
        <time>2020-09-13T15:05:34.000Z</time>
      </trkpt>
      <trkpt lat="45.16539" lon="5.85007">
        <ele>807.56</ele>
        <time>2020-09-13T15:06:34.000Z</time>
      </trkpt>
      <trkpt lat="45.16541" lon="5.85036">
        <ele>804.43</ele>
        <time>2020-09-13T15:06:39.000Z</time>
      </trkpt>
      <trkpt lat="45.16543" lon="5.85075">
        <ele>800.46</ele>
        <time>2020-09-13T15:06:44.000Z</time>
      </trkpt>
      <trkpt lat="45.16559" lon="5.85115">
        <ele>797.65</ele>
        <time>2020-09-13T15:06:49.000Z</time>
      </trkpt>
      <trkpt lat="45.1658" lon="5.85157">
        <ele>796.98</ele>
        <time>2020-09-13T15:06:54.000Z</time>
      </trkpt>
      <trkpt lat="45.16608" lon="5.85204">
        <ele>796.15</ele>
        <time>2020-09-13T15:06:59.000Z</time>
      </trkpt>
      <trkpt lat="45.16634" lon="5.85254">
        <ele>793.75</ele>
        <time>2020-09-13T15:07:04.000Z</time>
      </trkpt>
      <trkpt lat="45.16664" lon="5.85295">
        <ele>792.44</ele>
        <time>2020-09-13T15:07:09.000Z</time>
      </trkpt>
      <trkpt lat="45.16688" lon="5.85353">
        <ele>789.86</ele>
        <time>2020-09-13T15:07:14.000Z</time>
      </trkpt>
      <trkpt lat="45.16706" lon="5.85416">
        <ele>785.57</ele>
        <time>2020-09-13T15:07:19.000Z</time>
      </trkpt>
      <trkpt lat="45.16718" lon="5.85474">
        <ele>783.68</ele>
        <time>2020-09-13T15:07:24.000Z</time>
      </trkpt>
      <trkpt lat="45.16721" lon="5.85528">
        <ele>780.88</ele>
        <time>2020-09-13T15:07:29.000Z</time>
      </trkpt>
      <trkpt lat="45.16724" lon="5.85571">
        <ele>780.98</ele>
        <time>2020-09-13T15:07:34.000Z</time>
      </trkpt>
      <trkpt lat="45.16735" lon="5.85609">
        <ele>778.61</ele>
        <time>2020-09-13T15:07:39.000Z</time>
      </trkpt>
      <trkpt lat="45.16746" lon="5.85654">
        <ele>778.85</ele>
        <time>2020-09-13T15:07:44.000Z</time>
      </trkpt>
      <trkpt lat="45.1675" lon="5.85694">
        <ele>781.62</ele>
        <time>2020-09-13T15:07:49.000Z</time>
      </trkpt>
      <trkpt lat="45.1675" lon="5.85733">
        <ele>788.45</ele>
        <time>2020-09-13T15:07:54.000Z</time>
      </trkpt>
      <trkpt lat="45.16747" lon="5.85777">
        <ele>787</ele>
        <time>2020-09-13T15:07:59.000Z</time>
      </trkpt>
      <trkpt lat="45.16747" lon="5.85813">
        <ele>785.33</ele>
        <time>2020-09-13T15:08:04.000Z</time>
      </trkpt>
      <trkpt lat="45.16753" lon="5.85847">
        <ele>785.94</ele>
        <time>2020-09-13T15:08:09.000Z</time>
      </trkpt>
      <trkpt lat="45.16757" lon="5.85882">
        <ele>786.98</ele>
        <time>2020-09-13T15:08:14.000Z</time>
      </trkpt>
      <trkpt lat="45.16766" lon="5.85916">
        <ele>788.17</ele>
        <time>2020-09-13T15:08:19.000Z</time>
      </trkpt>
      <trkpt lat="45.16775" lon="5.85946">
        <ele>786.52</ele>
        <time>2020-09-13T15:08:24.000Z</time>
      </trkpt>
      <trkpt lat="45.16775" lon="5.85979">
        <ele>785.57</ele>
        <time>2020-09-13T15:08:29.000Z</time>
      </trkpt>
      <trkpt lat="45.16771" lon="5.86016">
        <ele>783.95</ele>
        <time>2020-09-13T15:08:34.000Z</time>
      </trkpt>
      <trkpt lat="45.16763" lon="5.86048">
        <ele>783.04</ele>
        <time>2020-09-13T15:08:39.000Z</time>
      </trkpt>
      <trkpt lat="45.16768" lon="5.8609">
        <ele>786.08</ele>
        <time>2020-09-13T15:08:44.000Z</time>
      </trkpt>
      <trkpt lat="45.16764" lon="5.86125">
        <ele>784.53</ele>
        <time>2020-09-13T15:08:49.000Z</time>
      </trkpt>
      <trkpt lat="45.16757" lon="5.86157">
        <ele>786.45</ele>
        <time>2020-09-13T15:08:54.000Z</time>
      </trkpt>
      <trkpt lat="45.1675" lon="5.8619">
        <ele>785.52</ele>
        <time>2020-09-13T15:08:59.000Z</time>
      </trkpt>
      <trkpt lat="45.16747" lon="5.86227">
        <ele>786.51</ele>
        <time>2020-09-13T15:09:04.000Z</time>
      </trkpt>
      <trkpt lat="45.16759" lon="5.86264">
        <ele>788.12</ele>
        <time>2020-09-13T15:09:09.000Z</time>
      </trkpt>
      <trkpt lat="45.1678" lon="5.86296">
        <ele>786.97</ele>
        <time>2020-09-13T15:09:14.000Z</time>
      </trkpt>
      <trkpt lat="45.16798" lon="5.86333">
        <ele>787.99</ele>
        <time>2020-09-13T15:09:19.000Z</time>
      </trkpt>
      <trkpt lat="45.1683" lon="5.86359">
        <ele>788.66</ele>
        <time>2020-09-13T15:09:24.000Z</time>
      </trkpt>
      <trkpt lat="45.16846" lon="5.86387">
        <ele>789.49</ele>
        <time>2020-09-13T15:09:29.000Z</time>
      </trkpt>
      <trkpt lat="45.16854" lon="5.86417">
        <ele>787.96</ele>
        <time>2020-09-13T15:09:34.000Z</time>
      </trkpt>
      <trkpt lat="45.16868" lon="5.86445">
        <ele>789.42</ele>
        <time>2020-09-13T15:09:39.000Z</time>
      </trkpt>
      <trkpt lat="45.16867" lon="5.8643">
        <ele>798.71</ele>
        <time>2020-09-13T15:10:26.000Z</time>
      </trkpt>
      <trkpt lat="45.16862" lon="5.86411">
        <ele>802.85</ele>
        <time>2020-09-13T15:10:31.000Z</time>
      </trkpt>
      <trkpt lat="45.16857" lon="5.86397">
        <ele>805.51</ele>
        <time>2020-09-13T15:10:36.000Z</time>
      </trkpt>
      <trkpt lat="45.16853" lon="5.86385">
        <ele>805.32</ele>
        <time>2020-09-13T15:10:46.000Z</time>
      </trkpt>
      <trkpt lat="45.16857" lon="5.864">
        <ele>802.61</ele>
        <time>2020-09-13T15:11:20.000Z</time>
      </trkpt>
      <trkpt lat="45.16866" lon="5.86432">
        <ele>801.67</ele>
        <time>2020-09-13T15:11:25.000Z</time>
      </trkpt>
      <trkpt lat="45.16874" lon="5.86461">
        <ele>802.73</ele>
        <time>2020-09-13T15:11:30.000Z</time>
      </trkpt>
      <trkpt lat="45.16882" lon="5.86488">
        <ele>802.93</ele>
        <time>2020-09-13T15:11:35.000Z</time>
      </trkpt>
      <trkpt lat="45.16888" lon="5.86514">
        <ele>801.02</ele>
        <time>2020-09-13T15:11:40.000Z</time>
      </trkpt>
      <trkpt lat="45.16892" lon="5.86536">
        <ele>799.55</ele>
        <time>2020-09-13T15:11:45.000Z</time>
      </trkpt>
      <trkpt lat="45.16903" lon="5.86554">
        <ele>796.3</ele>
        <time>2020-09-13T15:11:50.000Z</time>
      </trkpt>
      <trkpt lat="45.16914" lon="5.86574">
        <ele>798.12</ele>
        <time>2020-09-13T15:11:55.000Z</time>
      </trkpt>
      <trkpt lat="45.1692" lon="5.86602">
        <ele>794.57</ele>
        <time>2020-09-13T15:12:00.000Z</time>
      </trkpt>
      <trkpt lat="45.16931" lon="5.86627">
        <ele>798.36</ele>
        <time>2020-09-13T15:12:05.000Z</time>
      </trkpt>
      <trkpt lat="45.16952" lon="5.8665">
        <ele>797.15</ele>
        <time>2020-09-13T15:12:10.000Z</time>
      </trkpt>
      <trkpt lat="45.16962" lon="5.86677">
        <ele>799.28</ele>
        <time>2020-09-13T15:12:15.000Z</time>
      </trkpt>
      <trkpt lat="45.16963" lon="5.86705">
        <ele>795</ele>
        <time>2020-09-13T15:12:20.000Z</time>
      </trkpt>
      <trkpt lat="45.16978" lon="5.86727">
        <ele>796.7</ele>
        <time>2020-09-13T15:12:25.000Z</time>
      </trkpt>
      <trkpt lat="45.16988" lon="5.8675">
        <ele>793.62</ele>
        <time>2020-09-13T15:12:30.000Z</time>
      </trkpt>
      <trkpt lat="45.16997" lon="5.86771">
        <ele>795.75</ele>
        <time>2020-09-13T15:12:35.000Z</time>
      </trkpt>
      <trkpt lat="45.17005" lon="5.86789">
        <ele>794.86</ele>
        <time>2020-09-13T15:12:40.000Z</time>
      </trkpt>
      <trkpt lat="45.17013" lon="5.86813">
        <ele>794.66</ele>
        <time>2020-09-13T15:12:45.000Z</time>
      </trkpt>
      <trkpt lat="45.17022" lon="5.86837">
        <ele>795.55</ele>
        <time>2020-09-13T15:12:50.000Z</time>
      </trkpt>
      <trkpt lat="45.17028" lon="5.86859">
        <ele>796.62</ele>
        <time>2020-09-13T15:12:55.000Z</time>
      </trkpt>
      <trkpt lat="45.17035" lon="5.86881">
        <ele>798.31</ele>
        <time>2020-09-13T15:13:00.000Z</time>
      </trkpt>
      <trkpt lat="45.17042" lon="5.86905">
        <ele>798.6</ele>
        <time>2020-09-13T15:13:05.000Z</time>
      </trkpt>
      <trkpt lat="45.17056" lon="5.86932">
        <ele>798.29</ele>
        <time>2020-09-13T15:13:10.000Z</time>
      </trkpt>
      <trkpt lat="45.17071" lon="5.86954">
        <ele>802.39</ele>
        <time>2020-09-13T15:13:15.000Z</time>
      </trkpt>
      <trkpt lat="45.17081" lon="5.86976">
        <ele>805.26</ele>
        <time>2020-09-13T15:13:20.000Z</time>
      </trkpt>
      <trkpt lat="45.17093" lon="5.87007">
        <ele>807.48</ele>
        <time>2020-09-13T15:13:25.000Z</time>
      </trkpt>
      <trkpt lat="45.17105" lon="5.87036">
        <ele>804.94</ele>
        <time>2020-09-13T15:13:30.000Z</time>
      </trkpt>
      <trkpt lat="45.17123" lon="5.87066">
        <ele>809.72</ele>
        <time>2020-09-13T15:13:35.000Z</time>
      </trkpt>
      <trkpt lat="45.17138" lon="5.87088">
        <ele>812.68</ele>
        <time>2020-09-13T15:13:40.000Z</time>
      </trkpt>
      <trkpt lat="45.17144" lon="5.87116">
        <ele>811.07</ele>
        <time>2020-09-13T15:13:45.000Z</time>
      </trkpt>
      <trkpt lat="45.17155" lon="5.87144">
        <ele>812.06</ele>
        <time>2020-09-13T15:13:50.000Z</time>
      </trkpt>
      <trkpt lat="45.17163" lon="5.8717">
        <ele>814.4</ele>
        <time>2020-09-13T15:13:55.000Z</time>
      </trkpt>
      <trkpt lat="45.17173" lon="5.87201">
        <ele>817.38</ele>
        <time>2020-09-13T15:14:00.000Z</time>
      </trkpt>
      <trkpt lat="45.17183" lon="5.87231">
        <ele>816.85</ele>
        <time>2020-09-13T15:14:05.000Z</time>
      </trkpt>
      <trkpt lat="45.17184" lon="5.87263">
        <ele>814.56</ele>
        <time>2020-09-13T15:14:10.000Z</time>
      </trkpt>
      <trkpt lat="45.17185" lon="5.87297">
        <ele>816.75</ele>
        <time>2020-09-13T15:14:15.000Z</time>
      </trkpt>
      <trkpt lat="45.17193" lon="5.8733">
        <ele>819.1</ele>
        <time>2020-09-13T15:14:20.000Z</time>
      </trkpt>
      <trkpt lat="45.17211" lon="5.87362">
        <ele>818.75</ele>
        <time>2020-09-13T15:14:25.000Z</time>
      </trkpt>
      <trkpt lat="45.1723" lon="5.87394">
        <ele>816.83</ele>
        <time>2020-09-13T15:14:30.000Z</time>
      </trkpt>
      <trkpt lat="45.17247" lon="5.87416">
        <ele>816.84</ele>
        <time>2020-09-13T15:14:35.000Z</time>
      </trkpt>
      <trkpt lat="45.17271" lon="5.87432">
        <ele>819.2</ele>
        <time>2020-09-13T15:14:40.000Z</time>
      </trkpt>
      <trkpt lat="45.17298" lon="5.87453">
        <ele>824.04</ele>
        <time>2020-09-13T15:14:45.000Z</time>
      </trkpt>
      <trkpt lat="45.17319" lon="5.87481">
        <ele>827.31</ele>
        <time>2020-09-13T15:14:50.000Z</time>
      </trkpt>
      <trkpt lat="45.17338" lon="5.87508">
        <ele>832.33</ele>
        <time>2020-09-13T15:14:55.000Z</time>
      </trkpt>
      <trkpt lat="45.17354" lon="5.87542">
        <ele>834.24</ele>
        <time>2020-09-13T15:15:00.000Z</time>
      </trkpt>
      <trkpt lat="45.1736" lon="5.87573">
        <ele>831.12</ele>
        <time>2020-09-13T15:15:05.000Z</time>
      </trkpt>
      <trkpt lat="45.17369" lon="5.87613">
        <ele>831.43</ele>
        <time>2020-09-13T15:15:10.000Z</time>
      </trkpt>
      <trkpt lat="45.17366" lon="5.87632">
        <ele>832.22</ele>
        <time>2020-09-13T15:15:15.000Z</time>
      </trkpt>
      <trkpt lat="45.1736" lon="5.87651">
        <ele>831.02</ele>
        <time>2020-09-13T15:15:20.000Z</time>
      </trkpt>
      <trkpt lat="45.17371" lon="5.87646">
        <ele>811.46</ele>
        <time>2020-09-13T15:17:31.000Z</time>
      </trkpt>
      <trkpt lat="45.17378" lon="5.87638">
        <ele>798.58</ele>
        <time>2020-09-13T15:18:13.000Z</time>
      </trkpt>
      <trkpt lat="45.17366" lon="5.87664">
        <ele>802.51</ele>
        <time>2020-09-13T15:19:20.000Z</time>
      </trkpt>
      <trkpt lat="45.17346" lon="5.87726">
        <ele>800.93</ele>
        <time>2020-09-13T15:19:25.000Z</time>
      </trkpt>
      <trkpt lat="45.17334" lon="5.87753">
        <ele>798.51</ele>
        <time>2020-09-13T15:19:30.000Z</time>
      </trkpt>
      <trkpt lat="45.17322" lon="5.87779">
        <ele>782.45</ele>
        <time>2020-09-13T15:19:35.000Z</time>
      </trkpt>
      <trkpt lat="45.17308" lon="5.87807">
        <ele>777.45</ele>
        <time>2020-09-13T15:19:40.000Z</time>
      </trkpt>
      <trkpt lat="45.17306" lon="5.87832">
        <ele>778</ele>
        <time>2020-09-13T15:19:45.000Z</time>
      </trkpt>
      <trkpt lat="45.17276" lon="5.87859">
        <ele>770.2</ele>
        <time>2020-09-13T15:19:50.000Z</time>
      </trkpt>
      <trkpt lat="45.17247" lon="5.87917">
        <ele>772.79</ele>
        <time>2020-09-13T15:19:55.000Z</time>
      </trkpt>
      <trkpt lat="45.17223" lon="5.87949">
        <ele>768.39</ele>
        <time>2020-09-13T15:20:00.000Z</time>
      </trkpt>
      <trkpt lat="45.17197" lon="5.88007">
        <ele>766.52</ele>
        <time>2020-09-13T15:20:05.000Z</time>
      </trkpt>
      <trkpt lat="45.17158" lon="5.88084">
        <ele>763.17</ele>
        <time>2020-09-13T15:20:10.000Z</time>
      </trkpt>
      <trkpt lat="45.1711" lon="5.88186">
        <ele>758.99</ele>
        <time>2020-09-13T15:20:15.000Z</time>
      </trkpt>
      <trkpt lat="45.17051" lon="5.88229">
        <ele>757.48</ele>
        <time>2020-09-13T15:20:20.000Z</time>
      </trkpt>
      <trkpt lat="45.16995" lon="5.88272">
        <ele>755.46</ele>
        <time>2020-09-13T15:20:25.000Z</time>
      </trkpt>
      <trkpt lat="45.16929" lon="5.88314">
        <ele>754.88</ele>
        <time>2020-09-13T15:20:30.000Z</time>
      </trkpt>
      <trkpt lat="45.16863" lon="5.88355">
        <ele>748.25</ele>
        <time>2020-09-13T15:20:35.000Z</time>
      </trkpt>
      <trkpt lat="45.16807" lon="5.88414">
        <ele>741.58</ele>
        <time>2020-09-13T15:20:40.000Z</time>
      </trkpt>
      <trkpt lat="45.16787" lon="5.88455">
        <ele>730.95</ele>
        <time>2020-09-13T15:20:45.000Z</time>
      </trkpt>
      <trkpt lat="45.16752" lon="5.88503">
        <ele>724.51</ele>
        <time>2020-09-13T15:20:50.000Z</time>
      </trkpt>
      <trkpt lat="45.16725" lon="5.88528">
        <ele>721.61</ele>
        <time>2020-09-13T15:20:55.000Z</time>
      </trkpt>
      <trkpt lat="45.16686" lon="5.88487">
        <ele>714.88</ele>
        <time>2020-09-13T15:21:00.000Z</time>
      </trkpt>
      <trkpt lat="45.16649" lon="5.88501">
        <ele>704.93</ele>
        <time>2020-09-13T15:21:05.000Z</time>
      </trkpt>
      <trkpt lat="45.16608" lon="5.88533">
        <ele>701.51</ele>
        <time>2020-09-13T15:21:10.000Z</time>
      </trkpt>
      <trkpt lat="45.1657" lon="5.88549">
        <ele>701.25</ele>
        <time>2020-09-13T15:21:15.000Z</time>
      </trkpt>
      <trkpt lat="45.16557" lon="5.88591">
        <ele>691.58</ele>
        <time>2020-09-13T15:21:20.000Z</time>
      </trkpt>
      <trkpt lat="45.16554" lon="5.8864">
        <ele>681.77</ele>
        <time>2020-09-13T15:21:25.000Z</time>
      </trkpt>
      <trkpt lat="45.16569" lon="5.88687">
        <ele>683.74</ele>
        <time>2020-09-13T15:21:30.000Z</time>
      </trkpt>
      <trkpt lat="45.16591" lon="5.88716">
        <ele>690.48</ele>
        <time>2020-09-13T15:21:35.000Z</time>
      </trkpt>
      <trkpt lat="45.16616" lon="5.88729">
        <ele>705.78</ele>
        <time>2020-09-13T15:21:40.000Z</time>
      </trkpt>
      <trkpt lat="45.1664" lon="5.88736">
        <ele>719.3</ele>
        <time>2020-09-13T15:21:45.000Z</time>
      </trkpt>
      <trkpt lat="45.16658" lon="5.8874">
        <ele>730.82</ele>
        <time>2020-09-13T15:21:50.000Z</time>
      </trkpt>
      <trkpt lat="45.1668" lon="5.88737">
        <ele>737.58</ele>
        <time>2020-09-13T15:21:55.000Z</time>
      </trkpt>
      <trkpt lat="45.16701" lon="5.88743">
        <ele>747.48</ele>
        <time>2020-09-13T15:22:00.000Z</time>
      </trkpt>
      <trkpt lat="45.16718" lon="5.88747">
        <ele>755.68</ele>
        <time>2020-09-13T15:22:05.000Z</time>
      </trkpt>
      <trkpt lat="45.16729" lon="5.88745">
        <ele>764.94</ele>
        <time>2020-09-13T15:22:15.000Z</time>
      </trkpt>
      <trkpt lat="45.16738" lon="5.88743">
        <ele>771.19</ele>
        <time>2020-09-13T15:22:22.000Z</time>
      </trkpt>
      <trkpt lat="45.16748" lon="5.8874">
        <ele>769.95</ele>
        <time>2020-09-13T15:22:27.000Z</time>
      </trkpt>
      <trkpt lat="45.1676" lon="5.88739">
        <ele>772.2</ele>
        <time>2020-09-13T15:22:32.000Z</time>
      </trkpt>
      <trkpt lat="45.16773" lon="5.88735">
        <ele>773.58</ele>
        <time>2020-09-13T15:22:37.000Z</time>
      </trkpt>
      <trkpt lat="45.16785" lon="5.8873">
        <ele>778.36</ele>
        <time>2020-09-13T15:22:42.000Z</time>
      </trkpt>
      <trkpt lat="45.16796" lon="5.88725">
        <ele>778.7</ele>
        <time>2020-09-13T15:22:47.000Z</time>
      </trkpt>
      <trkpt lat="45.16812" lon="5.88716">
        <ele>782.98</ele>
        <time>2020-09-13T15:22:52.000Z</time>
      </trkpt>
      <trkpt lat="45.16825" lon="5.8871">
        <ele>779.82</ele>
        <time>2020-09-13T15:22:57.000Z</time>
      </trkpt>
      <trkpt lat="45.1684" lon="5.88705">
        <ele>776.95</ele>
        <time>2020-09-13T15:23:02.000Z</time>
      </trkpt>
      <trkpt lat="45.16856" lon="5.88699">
        <ele>775.36</ele>
        <time>2020-09-13T15:23:07.000Z</time>
      </trkpt>
      <trkpt lat="45.16873" lon="5.88701">
        <ele>777.64</ele>
        <time>2020-09-13T15:23:12.000Z</time>
      </trkpt>
      <trkpt lat="45.16889" lon="5.887">
        <ele>777.76</ele>
        <time>2020-09-13T15:23:17.000Z</time>
      </trkpt>
      <trkpt lat="45.16912" lon="5.88698">
        <ele>778.03</ele>
        <time>2020-09-13T15:23:22.000Z</time>
      </trkpt>
      <trkpt lat="45.16936" lon="5.88689">
        <ele>778.93</ele>
        <time>2020-09-13T15:23:27.000Z</time>
      </trkpt>
      <trkpt lat="45.16959" lon="5.88679">
        <ele>779.34</ele>
        <time>2020-09-13T15:23:32.000Z</time>
      </trkpt>
      <trkpt lat="45.16992" lon="5.88665">
        <ele>778.85</ele>
        <time>2020-09-13T15:23:37.000Z</time>
      </trkpt>
      <trkpt lat="45.17007" lon="5.88665">
        <ele>776.92</ele>
        <time>2020-09-13T15:23:42.000Z</time>
      </trkpt>
      <trkpt lat="45.17031" lon="5.88656">
        <ele>778.42</ele>
        <time>2020-09-13T15:23:47.000Z</time>
      </trkpt>
      <trkpt lat="45.17056" lon="5.88664">
        <ele>775.18</ele>
        <time>2020-09-13T15:23:52.000Z</time>
      </trkpt>
      <trkpt lat="45.17082" lon="5.88687">
        <ele>778.96</ele>
        <time>2020-09-13T15:23:57.000Z</time>
      </trkpt>
      <trkpt lat="45.1711" lon="5.88707">
        <ele>781.2</ele>
        <time>2020-09-13T15:24:02.000Z</time>
      </trkpt>
      <trkpt lat="45.17137" lon="5.88687">
        <ele>777.86</ele>
        <time>2020-09-13T15:24:07.000Z</time>
      </trkpt>
      <trkpt lat="45.17164" lon="5.88663">
        <ele>779.81</ele>
        <time>2020-09-13T15:24:12.000Z</time>
      </trkpt>
      <trkpt lat="45.17191" lon="5.88636">
        <ele>777.39</ele>
        <time>2020-09-13T15:24:17.000Z</time>
      </trkpt>
      <trkpt lat="45.17212" lon="5.88595">
        <ele>777.4</ele>
        <time>2020-09-13T15:24:22.000Z</time>
      </trkpt>
      <trkpt lat="45.17232" lon="5.88574">
        <ele>781.44</ele>
        <time>2020-09-13T15:24:27.000Z</time>
      </trkpt>
      <trkpt lat="45.17257" lon="5.88558">
        <ele>780.94</ele>
        <time>2020-09-13T15:24:32.000Z</time>
      </trkpt>
      <trkpt lat="45.17286" lon="5.88556">
        <ele>783.21</ele>
        <time>2020-09-13T15:24:37.000Z</time>
      </trkpt>
      <trkpt lat="45.17321" lon="5.88561">
        <ele>781.81</ele>
        <time>2020-09-13T15:24:42.000Z</time>
      </trkpt>
      <trkpt lat="45.17359" lon="5.88565">
        <ele>783.51</ele>
        <time>2020-09-13T15:24:47.000Z</time>
      </trkpt>
      <trkpt lat="45.17393" lon="5.88569">
        <ele>783.96</ele>
        <time>2020-09-13T15:24:52.000Z</time>
      </trkpt>
      <trkpt lat="45.17425" lon="5.8857">
        <ele>781.56</ele>
        <time>2020-09-13T15:24:57.000Z</time>
      </trkpt>
      <trkpt lat="45.17454" lon="5.88577">
        <ele>781.09</ele>
        <time>2020-09-13T15:25:02.000Z</time>
      </trkpt>
      <trkpt lat="45.17486" lon="5.88578">
        <ele>782.77</ele>
        <time>2020-09-13T15:25:07.000Z</time>
      </trkpt>
      <trkpt lat="45.17524" lon="5.88574">
        <ele>780.68</ele>
        <time>2020-09-13T15:25:12.000Z</time>
      </trkpt>
      <trkpt lat="45.17552" lon="5.8853">
        <ele>775.5</ele>
        <time>2020-09-13T15:25:17.000Z</time>
      </trkpt>
      <trkpt lat="45.17587" lon="5.88491">
        <ele>774.84</ele>
        <time>2020-09-13T15:25:22.000Z</time>
      </trkpt>
      <trkpt lat="45.1763" lon="5.88477">
        <ele>773.18</ele>
        <time>2020-09-13T15:25:27.000Z</time>
      </trkpt>
      <trkpt lat="45.17674" lon="5.8849">
        <ele>775.49</ele>
        <time>2020-09-13T15:25:32.000Z</time>
      </trkpt>
      <trkpt lat="45.17718" lon="5.88518">
        <ele>774.85</ele>
        <time>2020-09-13T15:25:37.000Z</time>
      </trkpt>
      <trkpt lat="45.17763" lon="5.88531">
        <ele>772.32</ele>
        <time>2020-09-13T15:25:42.000Z</time>
      </trkpt>
      <trkpt lat="45.178" lon="5.8854">
        <ele>769.68</ele>
        <time>2020-09-13T15:25:47.000Z</time>
      </trkpt>
      <trkpt lat="45.17834" lon="5.88533">
        <ele>769.78</ele>
        <time>2020-09-13T15:25:52.000Z</time>
      </trkpt>
      <trkpt lat="45.17871" lon="5.88522">
        <ele>768.03</ele>
        <time>2020-09-13T15:25:57.000Z</time>
      </trkpt>
      <trkpt lat="45.17906" lon="5.88503">
        <ele>766</ele>
        <time>2020-09-13T15:26:02.000Z</time>
      </trkpt>
      <trkpt lat="45.1794" lon="5.88485">
        <ele>764.13</ele>
        <time>2020-09-13T15:26:07.000Z</time>
      </trkpt>
      <trkpt lat="45.17975" lon="5.88458">
        <ele>761.4</ele>
        <time>2020-09-13T15:26:12.000Z</time>
      </trkpt>
      <trkpt lat="45.18012" lon="5.88439">
        <ele>760.06</ele>
        <time>2020-09-13T15:26:17.000Z</time>
      </trkpt>
      <trkpt lat="45.1804" lon="5.88397">
        <ele>761.15</ele>
        <time>2020-09-13T15:26:22.000Z</time>
      </trkpt>
      <trkpt lat="45.18058" lon="5.88346">
        <ele>756.95</ele>
        <time>2020-09-13T15:26:27.000Z</time>
      </trkpt>
      <trkpt lat="45.18078" lon="5.8829">
        <ele>749.87</ele>
        <time>2020-09-13T15:26:32.000Z</time>
      </trkpt>
      <trkpt lat="45.18106" lon="5.88237">
        <ele>748.23</ele>
        <time>2020-09-13T15:26:37.000Z</time>
      </trkpt>
      <trkpt lat="45.18137" lon="5.88175">
        <ele>749.56</ele>
        <time>2020-09-13T15:26:42.000Z</time>
      </trkpt>
      <trkpt lat="45.18168" lon="5.88137">
        <ele>750.61</ele>
        <time>2020-09-13T15:26:47.000Z</time>
      </trkpt>
      <trkpt lat="45.18191" lon="5.88098">
        <ele>751.81</ele>
        <time>2020-09-13T15:26:52.000Z</time>
      </trkpt>
      <trkpt lat="45.18211" lon="5.88069">
        <ele>751.14</ele>
        <time>2020-09-13T15:26:57.000Z</time>
      </trkpt>
      <trkpt lat="45.1823" lon="5.88049">
        <ele>750.82</ele>
        <time>2020-09-13T15:27:02.000Z</time>
      </trkpt>
      <trkpt lat="45.18239" lon="5.88032">
        <ele>748.14</ele>
        <time>2020-09-13T15:27:07.000Z</time>
      </trkpt>
      <trkpt lat="45.18244" lon="5.88016">
        <ele>749.76</ele>
        <time>2020-09-13T15:27:12.000Z</time>
      </trkpt>
      <trkpt lat="45.18247" lon="5.87993">
        <ele>751.37</ele>
        <time>2020-09-13T15:27:17.000Z</time>
      </trkpt>
      <trkpt lat="45.18261" lon="5.87946">
        <ele>751.43</ele>
        <time>2020-09-13T15:27:22.000Z</time>
      </trkpt>
      <trkpt lat="45.18257" lon="5.87884">
        <ele>749.08</ele>
        <time>2020-09-13T15:27:27.000Z</time>
      </trkpt>
      <trkpt lat="45.18272" lon="5.87823">
        <ele>744.59</ele>
        <time>2020-09-13T15:27:32.000Z</time>
      </trkpt>
      <trkpt lat="45.18277" lon="5.87751">
        <ele>743.15</ele>
        <time>2020-09-13T15:27:37.000Z</time>
      </trkpt>
      <trkpt lat="45.1829" lon="5.87708">
        <ele>740.19</ele>
        <time>2020-09-13T15:27:42.000Z</time>
      </trkpt>
      <trkpt lat="45.18293" lon="5.87693">
        <ele>735.16</ele>
        <time>2020-09-13T15:27:47.000Z</time>
      </trkpt>
      <trkpt lat="45.18296" lon="5.87677">
        <ele>729.93</ele>
        <time>2020-09-13T15:28:21.000Z</time>
      </trkpt>
      <trkpt lat="45.18306" lon="5.87625">
        <ele>726.16</ele>
        <time>2020-09-13T15:28:26.000Z</time>
      </trkpt>
      <trkpt lat="45.18319" lon="5.87586">
        <ele>721.57</ele>
        <time>2020-09-13T15:28:31.000Z</time>
      </trkpt>
      <trkpt lat="45.1833" lon="5.87557">
        <ele>718.94</ele>
        <time>2020-09-13T15:28:36.000Z</time>
      </trkpt>
      <trkpt lat="45.18344" lon="5.87525">
        <ele>713.52</ele>
        <time>2020-09-13T15:28:41.000Z</time>
      </trkpt>
      <trkpt lat="45.18351" lon="5.87485">
        <ele>710.61</ele>
        <time>2020-09-13T15:28:46.000Z</time>
      </trkpt>
      <trkpt lat="45.18347" lon="5.87497">
        <ele>712.31</ele>
        <time>2020-09-13T15:29:06.000Z</time>
      </trkpt>
      <trkpt lat="45.18336" lon="5.87499">
        <ele>712.42</ele>
        <time>2020-09-13T15:29:18.000Z</time>
      </trkpt>
      <trkpt lat="45.18344" lon="5.87494">
        <ele>707.8</ele>
        <time>2020-09-13T15:29:23.000Z</time>
      </trkpt>
      <trkpt lat="45.18353" lon="5.87489">
        <ele>705.69</ele>
        <time>2020-09-13T15:29:40.000Z</time>
      </trkpt>
      <trkpt lat="45.18367" lon="5.87451">
        <ele>700</ele>
        <time>2020-09-13T15:29:45.000Z</time>
      </trkpt>
      <trkpt lat="45.18381" lon="5.87414">
        <ele>697.6</ele>
        <time>2020-09-13T15:29:50.000Z</time>
      </trkpt>
      <trkpt lat="45.18386" lon="5.87389">
        <ele>692.92</ele>
        <time>2020-09-13T15:29:55.000Z</time>
      </trkpt>
      <trkpt lat="45.18379" lon="5.87381">
        <ele>689.54</ele>
        <time>2020-09-13T15:30:02.000Z</time>
      </trkpt>
      <trkpt lat="45.18388" lon="5.87375">
        <ele>689.38</ele>
        <time>2020-09-13T15:30:13.000Z</time>
      </trkpt>
      <trkpt lat="45.18399" lon="5.87378">
        <ele>694.59</ele>
        <time>2020-09-13T15:30:18.000Z</time>
      </trkpt>
      <trkpt lat="45.1839" lon="5.87378">
        <ele>696.56</ele>
        <time>2020-09-13T15:30:52.000Z</time>
      </trkpt>
      <trkpt lat="45.1839" lon="5.87378">
        <ele>696.69</ele>
        <time>2020-09-13T15:31:28.000Z</time>
      </trkpt>
    </trkseg>
  </trk>
</gpx>